GFSWCAN_prec_cloud_003.txt.gz
Cloud_Cover
100 100 100 100 100 100 100 100 100 100 100 100 100 100 100 100 100 100 100 100 100 100 100 21 7 18 5 34 40 65 41 74 90 63 100 100 53 13 27 28 58 5 37 54 45 43 5 3 5 5 5 5 5 10
100 100 100 100 100 100 100 100 100 100 100 100 100 100 100 100 100 100 100 100 100 100 100 100 100 94 5 10 9 5 5 60 14 84 90 100 80 90 99 26 67 26 20 7 45 5 3 0 5 5 2 4 45 19
100 100 100 100 100 100 100 100 100 100 100 100 100 100 100 100 100 100 99 89 100 100 100 100 100 100 100 100 100 100 100 100 100 100 100 100 100 100 100 100 100 100 95 60 4 5 5 5 5 5 5 5 5 5
100 100 100 100 100 100 100 100 100 100 100 100 100 100 100 100 100 100 93 65 84 100 100 100 99 100 88 63 99 100 100 100 100 100 100 100 100 100 100 100 100 100 100 94 5 20 6 92 5 2 5 37 93 79
100 100 100 100 100 100 100 100 100 100 100 100 100 100 100 100 100 100 96 92 76 92 85 100 87 95 85 64 73 94 100 100 100 100 100 98 80 66 98 76 100 100 100 100 45 18 100 86 5 48 94 100 20 8
100 100 100 100 100 100 100 100 100 100 100 100 100 100 100 100 100 100 79 100 98 99 99 100 62 92 79 100 100 100 100 100 100 100 100 94 99 50 100 93 100 100 100 100 60 75 98 6 40 85 100 70 55 78
100 100 100 100 100 100 100 100 100 100 100 100 100 100 100 100 100 100 100 100 100 100 99 95 53 67 26 14 100 100 100 100 100 99 96 97 100 93 100 91 100 100 100 100 100 100 34 90 100 100 67 73 84 60
100 100 100 100 100 100 86 100 100 100 100 100 100 100 100 100 100 100 100 100 100 100 100 79 99 100 100 100 100 100 100 100 100 94 80 100 100 96 61 100 100 100 100 100 100 100 96 100 100 80 100 93 80 72
100 100 68 100 100 100 100 100 100 100 100 100 100 100 100 100 100 100 100 100 100 100 100 100 100 100 100 100 100 100 100 100 100 100 100 90 99 95 100 100 100 100 100 94 100 100 96 100 100 100 96 97 67 67
100 100 100 100 100 100 100 100 99 100 100 92 77 91 100 100 100 100 100 100 100 100 59 100 100 100 100 100 100 100 100 100 100 100 100 100 100 98 100 95 100 100 99 99 100 100 100 100 100 100 100 89 100 100
100 100 99 100 100 100 100 100 100 100 100 100 100 100 94 100 100 100 100 100 100 100 100 98 100 100 100 100 100 100 100 100 100 95 97 74 86 100 100 100 100 100 100 100 100 100 100 99 100 100 100 100 100 86
100 100 100 100 88 90 100 100 100 98 100 100 100 100 100 100 100 100 100 100 100 100 100 100 100 100 100 100 100 100 100 100 84 83 100 100 98 100 100 100 100 100 100 100 100 100 100 100 100 100 100 97 83 100
100 100 100 100 99 100 90 100 100 100 100 100 100 100 100 100 100 100 100 100 100 100 100 100 100 100 100 100 100 100 100 100 100 100 100 100 100 100 100 100 100 100 100 100 100 100 100 100 100 100 100 100 96 90
98 100 100 100 100 100 100 100 98 100 100 100 100 100 100 100 100 100 100 100 100 100 100 100 100 100 100 100 100 100 100 100 100 99 97 100 100 100 100 100 100 100 100 100 100 100 100 100 100 100 100 100 77 86
98 86 63 100 100 100 100 100 100 100 96 99 100 100 100 100 100 100 100 100 100 100 100 100 100 100 100 100 100 100 100 100 100 100 100 100 100 100 100 100 100 100 100 100 100 100 100 100 100 100 100 100 100 100
100 100 100 100 100 100 100 100 100 100 100 100 100 100 100 100 100 100 100 100 100 100 100 100 100 100 100 100 100 100 100 100 100 100 100 100 100 100 100 100 100 100 100 100 100 100 100 100 100 100 100 100 100 100
40 67 90 29 81 93 100 100 100 100 100 100 100 100 100 100 100 100 100 100 100 100 100 100 100 100 100 100 100 100 100 100 100 100 100 100 100 100 100 100 100 100 100 100 100 100 100 100 100 100 100 100 100 100
80 99 76 46 88 73 11 89 99 80 63 100 100 100 100 100 100 100 100 100 100 100 100 100 100 100 100 100 100 100 100 100 100 100 100 100 100 100 100 100 100 100 100 100 100 100 100 100 100 100 100 100 100 100
48 97 88 92 87 37 100 96 96 50 78 100 100 100 100 100 100 100 100 100 98 90 91 90 99 100 100 100 100 100 100 100 100 100 100 100 100 100 100 100 100 100 100 100 100 100 100 100 100 100 100 100 100 69
14 95 51 100 63 55 84 87 66 47 98 71 97 100 100 99 100 100 100 100 100 98 99 92 61 65 100 100 100 100 100 100 100 100 100 100 100 100 100 100 100 100 100 100 100 100 100 100 100 96 40 75 90 72
32 100 84 72 100 100 96 92 86 100 60 100 100 100 100 100 100 100 100 94 100 100 39 16 66 84 86 32 88 100 100 100 100 100 100 100 100 100 100 100 100 100 100 100 100 95 11 6 4 5 91 100 82 56
91 79 86 99 100 100 82 94 98 70 83 100 100 100 100 100 100 100 94 100 98 10 8 46 78 22 34 30 6 5 4 1 3 34 32 46 76 52 79 91 91 90 89 48 5 5 5 44 67 99 100 100 100 100
84 95 100 100 100 98 95 91 97 94 72 88 97 83 92 94 100 98 95 100 77 5 15 34 25 76 36 19 6 4 0 0 0 2 12 4 3 25 5 5 5 5 6 5 31 65 65 79 78 68 63 100 100 100
99 100 100 100 100 77 100 100 100 100 100 99 88 99 87 100 91 98 84 70 85 22 38 29 9 16 5 5 49 84 68 9 6 5 6 7 50 69 41 38 30 13 69 90 60 62 94 100 98 98 100 100 100 89
100 74 96 50 100 100 95 78 89 100 100 100 100 100 53 100 100 78 47 69 63 92 91 77 19 15 40 85 100 97 63 8 31 20 46 18 5 8 28 28 46 99 98 100 96 87 90 100 99 99 86 94 95 98
100 78 97 100 100 100 69 74 96 96 100 100 100 80 90 89 71 50 98 100 100 98 100 92 98 94 64 89 68 89 90 35 14 36 7 24 94 97 97 96 92 68 58 99 100 99 100 87 86 75 90 100 100 96
100 100 100 100 100 100 100 100 100 100 100 80 100 100 100 98 36 100 99 100 100 100 100 100 100 100 100 100 100 99 92 27 20 62 9 99 100 100 99 99 98 99 75 98 98 100 100 99 96 84 100 97 100 100
100 100 100 100 100 100 100 100 100 100 100 99 100 100 100 100 100 100 100 100 100 100 100 100 100 95 100 100 99 98 25 5 5 5 94 100 83 5 7 64 91 8 52 97 100 100 100 100 100 99 100 99 100 100
100 100 100 100 100 100 100 100 100 100 100 100 100 100 100 100 100 100 100 100 100 100 100 97 31 56 25 96 100 73 5 5 5 9 44 54 35 39 59 87 67 42 91 100 100 100 100 100 100 99 100 100 100 84
100 100 100 100 100 100 100 100 100 100 100 95 100 100 100 100 100 100 97 96 96 100 100 100 99 68 66 64 52 72 91 70 65 76 100 97 100 99 80 99 100 100 100 100 98 100 100 100 100 100 100 100 100 100
100 100 100 100 100 100 99 100 100 100 100 100 94 86 98 97 100 100 100 100 93 37 68 79 98 82 49 77 94 78 60 45 65 90 90 71 80 36 47 75 38 98 100 89 99 99 100 100 100 100 100 100 100 100
100 96 100 100 99 98 100 100 100 94 100 88 85 100 100 97 94 84 85 96 69 61 75 52 81 99 38 83 97 77 100 100 67 61 92 98 77 78 34 5 41 92 96 82 100 100 100 100 100 100 100 100 100 100
78 50 49 46 59 40 58 5 7 5 16 59 100 100 100 95 95 100 99 98 57 53 61 53 46 48 100 100 85 88 76 54 6 40 100 100 90 62 10 88 92 100 84 82 95 99 100 100 100 100 100 100 100 100

GFSWCAN_prec_cloud_006.txt.gz
Cloud_Cover
100 100 100 100 100 100 100 100 100 100 100 100 100 100 100 100 100 100 100 100 100 100 55 13 8 65 72 49 5 5 5 55 92 84 58 89 82 49 97 100 96 7 46 72 100 100 100 94 18 42 7 5 5 78
100 100 100 100 100 100 100 100 100 100 100 100 100 100 100 100 100 100 100 100 100 100 100 99 100 97 86 72 61 15 32 89 38 83 68 84 90 92 82 40 97 100 100 100 100 100 100 100 97 38 5 5 99 100
100 100 100 100 100 100 100 100 100 100 100 100 100 100 100 100 100 100 100 100 100 100 100 100 100 100 100 100 90 37 94 34 19 22 77 62 94 100 100 100 100 100 100 100 94 99 100 77 100 44 17 66 98 70
100 100 100 100 100 100 100 100 100 100 100 100 100 100 100 100 100 100 100 100 100 100 100 100 100 100 100 100 100 100 100 100 100 100 100 100 100 100 100 100 100 100 100 49 5 45 5 52 18 5 5 40 78 93
100 100 100 100 100 100 100 100 100 100 100 100 100 100 100 100 100 100 100 100 100 100 100 100 100 100 100 100 100 100 100 100 100 100 100 100 94 100 100 100 100 100 100 10 5 15 8 47 5 5 36 99 100 100
100 100 100 100 100 100 100 100 100 100 100 100 100 100 100 100 100 100 36 38 95 100 100 100 100 82 63 100 100 100 100 100 100 100 100 100 100 73 100 100 100 100 98 24 80 100 97 92 77 99 100 72 43 98
100 100 100 100 100 100 100 100 100 100 100 100 100 100 100 100 100 100 100 100 87 44 79 97 74 75 99 98 100 100 97 92 100 96 99 99 100 100 100 100 100 100 100 100 100 100 100 100 100 100 100 100 100 100
100 100 100 100 100 100 100 100 100 100 100 100 100 100 100 97 66 53 87 100 100 100 100 93 81 100 100 100 100 100 100 100 100 47 83 100 81 87 100 100 100 100 100 100 100 100 100 100 100 100 98 100 100 100
100 100 100 100 100 100 100 100 100 100 100 100 97 100 94 96 92 94 100 100 100 79 88 100 100 100 100 100 100 100 100 100 98 100 92 50 100 92 94 96 70 100 100 100 100 100 100 100 100 100 100 100 100 100
100 100 99 96 100 100 100 100 100 100 100 82 99 68 96 100 100 100 100 96 97 100 64 100 100 100 100 100 100 100 100 100 100 80 100 100 100 100 100 100 100 100 100 96 6 32 14 89 100 100 96 100 100 100
100 96 66 92 95 77 99 100 100 100 99 96 100 100 96 100 100 99 99 100 97 93 100 100 100 100 100 100 100 100 100 100 100 85 100 54 99 100 100 100 91 69 94 100 100 100 100 100 100 100 100 100 98 100
100 100 99 93 100 100 99 100 100 100 99 82 93 100 100 100 99 100 100 100 100 96 100 100 100 100 100 100 100 100 100 100 100 100 100 100 100 100 100 100 100 100 100 100 100 100 100 100 100 100 100 100 100 100
100 100 100 100 100 99 99 99 100 100 100 100 100 100 100 100 100 100 100 100 100 100 100 100 100 100 100 100 100 100 100 100 100 100 100 97 100 100 100 100 100 100 100 100 100 100 100 100 100 100 100 100 100 100
100 100 100 100 100 100 100 99 100 100 100 100 100 100 100 99 100 100 100 100 100 100 100 100 100 100 100 100 100 100 100 100 100 99 97 100 100 100 100 100 100 100 100 100 100 100 100 100 100 100 100 100 95 100
100 100 100 100 100 100 100 100 100 98 100 100 100 100 99 100 100 100 100 100 100 100 100 100 100 100 100 100 100 100 100 100 100 95 100 100 100 100 100 100 100 100 100 100 100 100 100 100 100 100 100 100 99 100
100 100 100 100 100 100 100 100 75 80 100 100 100 100 100 100 100 100 100 100 100 100 100 100 100 100 100 100 100 100 100 100 100 100 100 100 100 100 100 100 100 100 100 100 100 100 100 100 100 100 100 100 100 100
100 100 100 100 100 100 100 100 100 100 100 100 100 100 100 100 100 100 100 100 100 100 100 100 98 100 99 100 100 100 100 100 100 100 100 100 100 100 100 100 100 100 100 100 100 100 100 100 100 100 100 100 100 100
100 100 100 100 100 100 100 100 100 100 100 100 100 100 100 100 100 100 100 100 100 100 100 100 100 100 100 100 100 100 100 100 100 100 100 100 100 100 100 100 100 100 100 100 100 100 100 100 100 100 100 100 100 100
100 100 100 100 100 100 96 79 68 86 100 100 100 100 100 100 100 100 100 100 100 100 95 89 100 94 100 96 100 100 100 100 100 100 100 100 100 100 100 100 100 100 100 100 100 100 100 100 100 100 100 100 100 82
100 100 100 100 98 100 100 100 99 88 100 92 100 100 100 100 100 100 100 100 100 100 99 65 62 80 87 93 98 44 51 52 62 96 99 99 92 100 100 100 100 100 100 100 100 100 100 92 91 43 41 99 100 60
72 28 5 7 99 60 66 90 95 100 48 100 100 100 100 100 100 100 100 96 100 96 57 85 76 85 27 39 12 9 5 5 5 5 2 3 0 0 4 0 4 0 1 4 44 5 5 5 5 5 96 100 100 100
92 78 97 100 54 100 95 91 100 91 89 100 100 100 100 100 100 100 95 91 94 10 35 32 79 82 92 79 27 99 99 64 3 3 3 5 5 6 22 38 10 25 14 58 100 98 84 33 57 93 100 100 100 100
86 86 100 79 96 82 78 89 100 100 98 100 100 100 100 100 100 91 98 100 100 85 85 75 53 90 100 100 93 72 60 5 32 47 26 31 50 42 16 19 24 77 100 100 100 97 69 41 85 92 95 94 96 92
97 100 92 100 100 88 98 90 100 98 100 100 100 100 88 100 99 100 86 98 98 100 100 54 85 100 100 100 100 100 80 74 34 97 42 6 9 13 14 25 88 98 96 96 93 84 68 70 30 80 78 86 85 99
100 31 95 99 98 100 74 98 88 100 83 92 100 86 75 99 69 88 66 100 100 100 100 93 89 100 100 100 100 100 78 89 98 99 94 76 92 48 7 10 58 96 81 97 100 100 99 88 93 100 99 91 94 92
100 60 90 84 96 89 98 69 74 90 74 100 100 100 100 100 96 87 99 100 100 94 100 100 100 100 100 100 100 98 90 97 91 81 98 97 95 88 98 96 90 46 14 97 100 100 100 100 100 96 95 77 94 91
97 96 97 100 100 100 100 100 100 100 100 100 91 100 100 100 97 99 100 100 100 100 100 100 100 100 100 100 100 100 83 5 23 36 99 99 91 94 88 100 100 92 44 91 100 100 100 100 100 98 100 73 98 98
100 100 100 100 100 100 100 100 100 100 100 100 100 100 100 100 100 100 98 100 97 100 100 100 100 99 97 99 96 61 11 61 33 100 100 98 75 22 42 70 51 10 48 72 97 97 98 100 100 100 100 100 100 100
100 100 100 100 100 100 100 100 100 100 100 100 100 100 100 100 100 100 100 100 100 100 100 100 94 80 88 84 92 62 7 5 5 43 99 100 79 62 80 30 57 5 6 100 27 5 97 100 100 100 100 100 100 100
100 100 100 100 100 100 100 100 100 100 100 100 100 100 100 100 100 100 100 100 98 94 98 100 100 94 100 80 96 98 100 86 8 43 100 100 100 96 79 80 6 17 97 100 95 41 16 31 91 100 100 100 100 100
100 100 100 100 100 100 100 100 100 100 100 100 100 100 100 92 100 99 100 100 100 92 97 89 89 100 97 83 87 99 97 86 97 97 100 100 100 100 100 55 13 62 98 100 73 89 96 70 78 72 98 100 100 100
100 99 100 100 98 82 91 100 88 87 79 80 98 96 98 92 95 95 100 97 18 90 100 90 99 94 100 100 100 99 100 100 100 97 100 99 99 87 57 51 54 91 95 14 11 88 91 76 69 78 78 100 100 100
57 55 62 84 89 87 36 5 39 44 96 100 100 100 100 99 97 91 100 93 47 76 86 68 73 95 87 87 7 5 31 34 88 63 97 64 40 75 25 88 84 75 33 19 42 92 88 49 43 64 86 82 96 100

GFSWCAN_prec_cloud_009.txt.gz
Cloud_Cover
100 100 100 100 94 100 100 100 100 100 100 100 100 100 100 100 82 100 100 95 18 96 96 100 100 100 100 92 5 5 8 87 74 53 68 74 55 70 92 100 98 100 56 40 68 99 100 100 100 100 100 100 57 56
100 100 100 100 100 100 100 100 100 100 100 100 100 100 100 100 100 100 100 100 78 100 100 100 100 100 100 97 95 20 28 43 5 6 37 76 100 98 100 99 100 100 83 100 100 100 100 100 64 85 81 6 6 32
100 100 100 100 100 100 100 100 100 100 100 100 100 100 100 100 100 100 100 100 100 100 100 100 100 100 100 94 75 47 77 56 17 12 31 80 86 93 100 100 100 100 100 100 100 100 100 18 32 100 18 16 10 96
100 100 100 100 100 100 100 100 100 100 100 100 100 100 100 100 100 96 100 100 100 100 100 100 100 100 100 100 100 100 100 100 100 100 100 100 100 100 100 100 100 100 100 100 80 75 5 96 100 100 100 92 100 100
100 100 100 100 100 100 100 100 100 100 100 100 100 100 100 100 100 100 100 100 100 100 100 100 100 100 100 100 100 100 100 100 100 100 100 100 100 98 97 94 100 100 90 5 5 96 46 54 91 62 8 88 74 34
100 100 100 100 100 100 100 100 100 100 100 100 100 100 100 100 100 100 100 100 100 100 100 100 100 100 100 100 100 100 100 100 100 100 100 78 100 90 98 100 100 100 20 5 5 6 11 18 6 40 48 99 79 100
100 100 100 100 100 100 100 100 100 100 100 100 100 100 100 100 100 100 100 100 100 100 100 100 100 100 100 100 100 100 100 100 100 100 100 97 99 27 100 100 100 100 100 93 34 10 24 84 41 95 100 100 100 94
100 100 100 100 100 100 100 100 100 100 100 100 100 100 100 100 100 100 100 100 100 98 94 78 74 100 100 100 100 100 100 99 95 67 100 100 86 100 100 100 100 100 100 100 100 100 100 100 100 100 100 100 100 100
100 100 100 100 100 100 100 100 100 100 100 100 100 98 84 86 100 100 100 100 100 100 100 100 100 100 100 100 100 100 100 100 92 96 100 69 100 100 99 94 100 97 72 99 84 100 100 100 100 100 100 100 100 100
100 100 100 100 100 100 100 100 100 100 100 100 100 100 100 100 100 94 68 56 86 89 94 100 92 94 100 100 100 100 100 92 100 80 100 100 100 99 100 100 100 100 100 99 97 95 88 95 52 72 100 100 100 100
100 100 100 100 100 100 100 100 100 100 100 100 100 100 100 100 100 91 88 90 100 97 100 100 100 100 100 100 100 100 96 100 100 73 100 98 100 100 100 100 100 87 77 58 79 99 90 100 100 100 100 100 100 98
100 100 100 100 100 100 100 100 100 100 100 100 100 100 100 100 100 98 94 98 100 98 100 100 100 100 100 100 100 100 100 100 100 100 100 100 100 100 100 85 80 99 100 100 100 100 100 100 100 100 100 100 100 100
100 100 100 100 97 100 100 100 100 100 100 100 100 100 98 71 87 97 100 100 100 100 100 100 100 100 100 100 100 100 100 100 95 100 100 100 100 100 100 100 100 100 100 100 100 100 100 100 100 100 100 100 100 100
100 100 100 100 100 100 100 92 98 100 100 100 100 100 100 100 100 100 100 100 100 100 100 100 100 100 100 100 100 100 100 100 100 97 93 100 100 100 100 100 100 100 100 100 100 100 100 100 100 100 100 100 100 100
100 93 100 62 97 96 100 98 100 100 100 100 100 95 99 100 100 100 100 100 100 100 100 100 100 100 100 100 100 100 100 100 98 92 100 100 100 100 100 100 100 100 100 100 100 100 100 100 100 100 100 100 100 100
100 100 97 88 96 92 88 84 71 96 100 99 99 99 100 100 100 100 100 100 100 100 100 100 100 100 100 100 100 100 100 99 100 100 100 100 100 100 100 100 100 100 100 100 100 98 100 100 100 100 100 100 100 100
100 100 100 100 99 59 100 82 74 26 95 100 100 99 99 97 100 100 100 100 100 100 100 100 99 100 99 100 100 100 100 100 100 100 100 100 100 100 100 100 100 100 100 100 100 100 100 100 100 100 100 100 100 100
100 100 100 100 100 100 100 100 100 100 100 100 100 100 100 100 100 100 100 100 94 92 94 92 96 74 97 100 100 100 100 100 100 100 100 100 100 100 100 100 100 100 100 100 100 100 100 100 100 100 100 100 78 5
100 100 100 100 91 100 100 100 100 100 100 100 100 100 100 100 100 100 100 100 100 100 100 100 100 100 99 85 94 100 100 100 100 99 100 100 100 100 100 100 100 100 100 100 89 70 42 3 17 5 5 10 50 80
100 100 100 100 100 100 100 100 100 100 100 100 100 100 100 100 100 100 100 100 100 100 100 96 98 99 85 88 70 56 87 89 8 5 13 40 89 84 6 1 3 4 8 4 8 20 35 17 6 14 56 100 100 100
100 100 100 100 100 100 100 100 100 100 100 100 100 100 100 100 100 100 100 100 100 97 100 100 100 98 62 66 30 28 11 5 34 79 46 10 6 6 11 5 5 6 31 100 100 100 100 100 100 100 100 100 100 100
68 96 100 100 100 100 92 97 100 100 100 100 100 100 100 100 100 100 100 100 100 89 82 46 83 100 100 99 87 55 82 70 100 88 96 76 60 78 93 80 35 93 100 97 100 100 96 100 86 71 86 64 65 76
12 31 94 60 82 55 61 100 99 96 96 100 100 100 100 100 100 99 98 100 100 100 100 100 100 100 100 100 100 100 99 87 94 74 92 72 87 68 83 100 99 92 96 97 87 84 76 42 32 74 84 99 100 93
15 89 60 98 96 86 98 95 96 89 61 95 100 100 100 100 100 99 100 100 98 100 100 100 100 100 100 100 100 98 90 91 73 81 87 99 100 100 100 100 100 88 69 82 73 59 36 58 45 71 96 89 82 96
58 35 80 100 74 100 97 99 100 99 64 78 100 91 84 96 100 100 95 100 100 100 100 100 100 100 100 100 100 100 100 100 100 100 100 100 100 100 64 8 67 71 69 100 98 100 89 72 78 86 96 78 96 100
99 85 92 78 83 93 96 96 98 98 99 87 97 80 87 100 100 100 100 100 100 100 100 100 100 100 100 100 100 100 100 100 100 100 100 65 56 78 87 82 62 21 48 97 100 100 100 100 100 98 99 89 98 100
80 64 73 96 94 100 100 100 100 100 100 100 98 91 100 100 100 100 100 100 100 100 100 100 100 100 100 100 100 62 38 49 58 92 83 77 48 20 11 87 97 50 28 65 100 100 100 100 100 95 100 95 100 100
80 90 99 74 86 99 100 92 100 100 100 100 100 100 100 100 98 100 100 100 100 100 100 100 100 87 79 94 71 76 97 99 90 98 100 17 77 65 54 53 66 27 11 26 87 99 99 100 100 100 100 95 80 80
92 83 100 100 85 100 100 100 100 100 100 100 100 100 100 100 100 100 100 100 100 100 100 100 100 87 84 100 96 95 91 19 5 7 72 100 91 39 74 36 53 9 48 96 61 52 98 99 98 88 84 98 92 84
91 98 76 66 94 99 97 99 100 100 100 100 100 100 100 100 100 100 100 100 100 100 100 100 100 100 100 94 100 98 95 90 48 47 100 100 100 92 98 56 69 93 99 100 90 20 70 43 66 44 15 40 64 73
100 100 99 99 100 99 99 100 100 100 100 99 99 100 100 100 100 100 100 100 100 100 99 90 98 100 61 100 100 100 98 31 97 97 98 96 100 100 100 86 88 100 100 71 52 57 98 98 77 76 51 51 9 40
100 100 92 97 91 77 52 49 80 78 87 97 97 99 93 89 94 99 100 100 95 76 100 100 100 100 98 94 78 74 60 92 100 100 100 98 96 98 89 89 100 90 54 42 43 92 99 96 85 93 98 66 48 54
68 96 82 96 95 74 69 26 19 56 97 96 95 100 100 96 87 100 100 90 22 37 6 53 86 100 64 56 6 31 58 66 96 99 100 91 100 88 80 99 100 87 40 59 60 91 100 83 81 74 76 61 72 45

GFSWCAN_prec_cloud_012.txt.gz
Cloud_Cover
100 100 100 100 100 100 100 100 100 100 100 100 100 100 87 7 100 100 63 41 100 100 92 100 73 100 100 28 5 8 74 70 88 84 47 27 14 13 86 63 26 26 45 23 63 57 94 51 63 100 100 100 100 46
100 100 100 100 100 100 100 100 100 100 100 100 100 100 100 59 100 100 98 87 68 100 93 100 100 100 100 18 27 62 29 32 12 39 39 77 100 80 48 65 100 98 100 96 80 98 71 86 100 75 100 100 60 79
100 100 100 100 100 100 100 100 100 100 100 100 100 100 100 100 98 100 98 90 58 81 72 94 100 100 100 100 46 67 99 73 82 77 95 94 100 100 100 100 100 100 100 100 100 100 100 71 97 100 19 5 33 95
100 100 100 100 100 100 100 100 100 100 100 100 100 100 100 100 99 100 100 69 62 84 98 98 89 98 100 100 100 100 98 100 100 99 96 100 96 100 100 100 100 100 100 99 31 35 10 99 100 96 30 52 70 100
100 100 100 100 82 99 100 100 100 100 100 100 100 100 100 100 100 100 100 100 100 100 100 98 81 86 86 100 100 100 100 100 100 100 100 100 100 100 100 99 100 100 56 5 4 5 5 74 98 66 84 100 100 100
100 100 100 100 100 100 100 100 100 100 100 100 100 100 100 100 100 100 100 100 100 100 100 100 100 100 100 100 100 100 100 100 100 100 100 100 100 100 84 89 100 94 5 10 5 5 5 31 65 56 52 84 86 73
100 100 100 100 100 100 100 100 100 100 100 100 100 100 100 100 100 100 100 100 100 100 100 100 100 100 100 100 100 100 100 100 100 100 100 96 97 16 99 100 100 64 45 70 44 6 13 42 8 46 94 96 100 100
100 100 100 100 100 100 100 100 100 100 100 100 100 100 100 100 100 100 100 100 100 100 100 100 100 100 100 100 100 100 100 100 100 83 100 100 100 94 100 100 100 100 98 95 43 34 8 14 58 99 100 98 100 100
100 100 100 100 100 100 100 100 100 100 100 100 100 100 100 100 100 100 100 100 100 100 96 99 100 100 100 100 100 100 100 100 93 100 100 99 100 100 60 98 100 100 96 90 100 100 97 97 99 47 53 97 100 100
100 100 100 100 100 100 100 100 100 100 100 100 100 99 100 100 100 100 100 100 100 100 100 100 100 100 100 100 100 100 100 85 98 64 100 100 100 100 100 100 100 100 100 99 100 90 69 56 59 95 100 100 100 100
100 100 100 100 100 100 100 100 100 100 100 100 100 100 100 100 100 95 86 82 65 100 100 100 100 100 100 100 100 100 100 98 100 64 100 100 100 100 100 100 100 100 100 100 80 64 100 100 100 100 100 100 100 100
100 100 100 100 100 100 100 100 100 100 94 100 100 100 100 100 94 94 95 100 96 100 100 100 100 100 100 100 100 100 100 97 100 84 100 100 100 100 100 100 100 100 97 97 100 100 100 100 100 100 100 100 100 100
100 100 100 100 100 100 100 100 100 100 100 100 100 100 100 100 100 100 100 100 100 100 100 100 100 100 100 100 100 100 100 100 100 100 100 100 100 100 100 100 100 100 100 100 100 100 100 100 100 100 100 100 100 100
100 100 100 100 100 100 100 100 100 100 100 100 100 100 100 100 100 100 100 100 100 100 100 100 100 100 100 100 100 100 100 100 100 100 100 100 100 100 100 100 100 100 100 100 100 100 100 100 100 100 100 100 100 100
100 100 100 100 100 100 100 100 100 100 100 100 98 99 99 100 99 100 100 100 100 100 100 100 100 100 100 100 100 100 80 87 94 100 100 100 100 96 100 100 99 75 74 100 100 100 100 100 100 100 100 100 100 100
100 100 97 100 100 100 100 94 100 97 99 100 96 100 100 100 100 100 100 100 100 100 100 100 100 98 100 100 92 95 99 95 98 100 100 100 100 100 99 100 88 96 100 100 100 100 100 100 100 100 100 100 100 100
100 100 100 100 100 100 100 100 100 96 91 100 100 100 99 100 100 100 100 100 100 100 100 100 99 100 98 82 82 96 94 98 100 100 100 100 100 100 100 100 100 100 100 100 100 98 99 100 100 100 100 100 100 100
100 100 100 100 100 96 65 80 95 91 100 100 100 100 100 100 100 100 100 100 100 100 93 96 99 99 100 99 100 100 100 100 100 100 100 100 100 100 100 100 100 99 100 100 100 100 98 97 92 88 88 51 30 19
100 100 100 100 100 100 97 100 100 100 100 100 100 100 100 100 100 100 100 100 87 90 96 100 99 100 100 100 100 100 100 100 100 100 100 95 82 5 16 85 45 51 39 6 36 67 57 32 68 97 100 100 100 100
100 94 100 100 96 94 100 100 70 84 99 94 100 100 100 100 100 100 100 100 98 99 100 97 100 100 100 100 100 100 100 100 75 36 32 13 60 97 96 95 98 98 95 100 100 100 100 91 100 100 89 62 88 80
100 100 100 100 100 100 100 100 96 100 100 100 100 100 100 100 100 100 100 100 100 100 100 100 100 100 100 100 100 100 100 99 57 68 95 100 100 100 64 99 100 100 100 100 97 100 94 98 97 65 73 81 98 100
100 100 100 100 100 100 100 100 100 100 100 100 100 100 100 100 100 100 100 100 100 100 100 99 88 100 100 100 100 100 99 88 97 99 99 65 65 100 100 99 100 100 100 99 100 95 53 72 51 64 83 84 96 86
83 100 64 24 47 71 86 100 98 78 94 67 90 100 100 100 99 99 100 100 100 100 100 100 100 100 100 100 99 100 100 100 100 99 92 99 100 100 96 83 39 59 88 74 93 85 64 39 6 66 57 66 60 45
5 51 30 58 24 37 65 100 100 99 69 81 87 66 80 98 86 96 99 100 99 100 100 100 100 100 100 100 100 100 100 98 96 90 74 80 85 100 99 98 100 98 70 51 25 69 32 64 43 60 61 81 76 99
5 54 36 77 50 52 79 100 94 100 100 92 100 93 62 71 95 99 91 99 100 100 100 100 100 100 100 100 100 100 99 98 100 99 100 98 100 100 99 86 61 72 48 95 96 100 83 37 56 58 65 90 100 100
49 82 94 88 95 87 81 84 94 89 93 89 64 74 90 87 96 86 96 100 100 100 100 100 100 100 100 100 100 100 97 100 100 99 99 97 92 98 100 93 81 12 39 97 100 100 100 100 98 81 80 88 90 83
66 72 93 99 96 93 89 78 67 95 100 93 97 99 100 100 100 100 100 100 100 100 100 100 100 100 100 100 100 100 100 100 99 97 95 99 100 85 10 64 90 5 48 86 100 100 100 100 98 96 97 88 94 100
93 87 87 87 87 91 100 84 93 100 100 100 100 100 100 100 100 100 100 100 100 100 100 100 100 100 97 100 100 100 100 100 100 87 83 87 87 71 39 21 53 96 75 68 100 100 100 100 100 100 98 100 99 94
86 87 89 86 75 98 97 94 100 98 95 100 100 100 100 100 100 100 100 100 100 100 100 100 100 100 100 100 99 85 82 82 77 16 50 100 91 27 68 51 47 44 93 95 78 63 96 100 97 56 69 94 87 80
89 98 93 93 82 96 100 100 100 100 100 100 100 100 100 100 98 100 100 100 100 100 100 100 99 98 98 95 99 81 98 100 44 27 100 100 100 98 100 100 100 100 100 100 76 41 91 79 73 40 21 18 16 46
100 100 100 97 92 89 84 100 100 100 97 98 97 96 97 98 98 98 100 100 100 96 84 92 100 94 95 100 100 100 65 47 100 100 100 100 100 100 100 100 100 100 98 66 75 100 100 100 100 88 63 44 29 56
100 86 97 96 100 92 84 92 98 74 100 100 100 97 97 92 93 98 91 100 100 33 97 100 100 99 91 98 98 96 26 91 100 100 100 100 100 100 100 100 100 100 74 58 57 100 100 100 92 100 100 100 95 93
82 98 96 97 97 98 89 67 11 70 100 100 100 100 100 99 87 97 100 93 96 99 85 69 84 100 77 27 42 67 79 94 100 100 100 100 100 100 93 97 100 100 95 94 78 100 100 89 77 92 95 94 86 93

GFSWCAN_prec_cloud_015.txt.gz
Cloud_Cover
100 100 100 100 100 100 100 100 100 100 100 100 100 49 100 100 100 100 100 67 66 28 5 5 81 62 37 41 33 29 5 5 5 19 37 9 59 87 99 8 15 15 42 43 48 100 28 5 53 88 71 100 73 16
100 100 100 100 100 100 100 100 100 100 100 100 100 100 100 100 100 100 100 97 90 9 6 5 47 29 50 28 63 64 32 6 5 5 5 12 24 34 37 66 30 80 19 21 98 100 20 5 33 100 100 65 5 5
100 100 100 100 100 100 100 100 100 100 100 100 100 100 100 100 100 100 100 100 98 77 30 59 36 36 57 7 53 42 8 5 5 7 14 25 28 62 62 49 84 100 87 94 22 99 93 100 100 87 5 5 5 5
100 100 100 100 100 100 100 100 100 100 100 100 100 100 100 100 100 100 100 58 28 25 69 98 81 64 99 46 72 40 46 58 65 89 97 69 45 77 98 98 100 100 100 100 100 100 98 96 42 5 5 25 25 11
100 100 100 100 100 100 100 100 100 100 100 100 100 100 100 100 100 100 100 100 99 10 36 73 99 86 98 100 100 100 100 100 100 100 88 89 100 99 96 100 100 100 100 71 45 34 5 8 20 48 43 77 82 89
100 100 100 100 100 100 100 100 100 100 100 100 100 100 100 100 100 100 100 84 98 46 28 70 77 100 100 100 100 100 100 100 100 100 100 100 100 58 71 57 100 100 100 21 5 5 5 13 61 60 43 82 77 63
100 100 100 100 100 100 100 100 100 100 100 100 100 100 100 100 100 100 100 100 100 100 53 84 87 59 90 100 100 100 100 100 86 96 96 100 100 100 100 100 100 100 93 10 5 5 5 5 5 5 49 40 10 10
100 100 100 100 100 100 100 100 100 100 100 100 100 100 100 100 100 100 100 100 96 33 26 90 100 100 100 100 100 100 100 100 100 100 100 100 100 100 100 100 100 100 100 68 5 5 5 5 5 10 49 88 92 98
100 100 100 100 100 100 100 100 100 100 100 100 100 100 100 100 100 100 100 100 100 100 100 100 100 100 100 100 100 100 100 100 100 100 100 100 100 100 100 100 100 100 100 100 87 84 62 24 26 54 99 100 100 100
100 100 100 100 100 100 100 100 100 100 100 100 100 100 100 100 100 100 100 100 100 100 100 100 100 100 100 100 100 100 100 100 99 76 100 100 100 100 100 100 100 100 100 100 100 100 100 100 100 100 100 100 100 100
100 100 100 100 100 100 100 100 100 100 100 100 100 100 100 100 100 100 100 100 100 100 100 100 100 100 100 100 100 100 98 97 93 70 100 100 100 100 100 100 98 100 100 100 100 100 100 100 100 100 100 99 100 100
100 100 100 100 100 100 100 100 100 100 100 100 100 100 100 100 100 86 83 94 100 100 100 100 100 100 100 100 98 98 91 92 97 85 100 100 100 100 100 100 100 100 100 100 100 100 100 100 100 100 100 100 100 100
100 100 100 100 100 100 100 100 100 100 100 100 100 100 100 98 100 92 98 100 100 100 100 100 100 100 98 50 100 100 100 100 96 100 100 100 100 100 100 100 100 100 100 100 100 100 100 100 100 100 100 100 100 100
100 100 100 100 100 100 100 100 100 100 100 100 100 100 98 80 100 100 100 100 100 100 100 100 100 100 100 100 100 100 100 100 100 100 100 100 100 100 100 100 98 100 100 100 100 98 100 100 100 100 100 100 100 100
100 100 100 100 100 100 100 100 100 100 100 100 98 95 100 100 100 100 100 100 100 100 100 100 100 97 100 100 100 100 99 89 86 85 100 100 100 99 100 100 100 100 93 82 71 59 64 72 88 89 82 99 100 98
100 100 100 100 100 100 100 100 100 100 100 100 100 100 100 100 100 100 100 100 100 100 100 100 100 100 100 100 94 99 99 99 93 99 100 100 98 100 100 94 93 87 88 91 82 75 75 98 99 93 94 99 97 90
99 100 100 100 100 100 100 100 100 100 100 100 100 100 100 100 100 100 100 100 100 100 100 100 100 100 98 98 92 100 100 80 100 100 100 100 100 100 100 100 100 98 100 96 95 92 49 12 33 14 52 59 95 69
100 100 100 100 100 99 100 99 90 95 100 100 100 100 100 100 100 100 100 100 100 100 100 100 100 100 100 100 100 94 100 100 100 100 100 100 100 100 96 93 96 98 94 81 33 64 70 90 100 100 100 70 61 80
100 100 100 100 100 100 100 100 94 100 100 100 100 100 100 100 100 100 100 100 91 100 100 100 100 100 100 100 100 100 100 100 100 100 100 100 100 100 100 98 97 99 96 100 98 98 96 100 100 95 96 82 84 72
100 100 100 100 100 100 100 100 92 100 100 98 100 100 100 100 100 100 100 100 84 65 88 89 72 50 80 71 72 100 100 99 89 100 100 100 96 96 100 86 100 100 84 82 93 58 42 46 64 70 61 37 88 98
100 100 100 100 100 100 100 100 100 100 100 100 100 100 95 96 100 100 100 100 100 100 96 85 100 100 100 100 100 100 100 100 100 84 99 100 100 100 100 98 94 77 22 72 73 24 42 72 74 67 76 76 82 83
100 98 100 100 99 100 100 100 99 99 98 72 81 97 67 98 99 96 98 100 100 100 100 100 98 100 100 100 100 100 100 100 100 99 97 100 100 97 86 89 74 80 93 97 98 86 46 63 35 69 86 76 62 86
43 92 100 100 100 100 100 100 100 100 100 100 94 83 84 74 66 82 99 100 100 100 100 100 100 100 100 100 100 95 99 100 99 100 100 94 100 100 100 100 100 94 88 75 80 76 73 43 33 80 86 86 98 91
2 9 36 19 59 99 97 100 100 100 84 97 100 100 100 100 100 100 100 100 98 100 100 100 100 100 100 100 100 100 100 100 100 100 100 100 100 100 100 100 100 100 100 100 99 63 45 61 48 77 76 99 95 100
6 60 21 42 37 48 91 100 93 100 100 87 62 71 60 78 92 92 100 100 100 100 100 100 100 100 100 100 100 100 100 100 100 100 100 100 100 100 100 100 100 97 92 86 86 97 80 72 80 91 83 100 100 100
53 98 89 98 99 92 99 94 100 96 97 93 92 90 99 98 95 98 100 100 100 100 100 100 100 100 100 100 100 100 100 100 100 100 100 100 100 100 100 100 100 79 80 100 100 100 100 100 100 96 94 80 97 98
94 98 100 100 100 98 60 98 96 99 100 100 100 100 97 86 95 97 99 98 100 100 100 100 100 100 100 100 100 100 100 100 100 100 100 100 100 100 97 46 42 65 100 100 100 100 100 100 100 100 100 93 100 100
100 98 81 99 83 91 77 80 72 77 80 90 89 76 83 85 81 99 100 100 100 100 100 100 100 100 100 100 100 100 100 100 100 100 100 96 93 70 33 25 54 100 71 75 86 95 96 100 100 100 96 99 100 100
97 83 69 72 75 93 99 94 95 91 91 95 96 84 89 99 90 88 87 99 100 100 100 100 100 100 100 100 100 100 100 91 59 10 6 14 36 8 53 66 65 73 99 88 34 38 99 100 99 40 8 61 59 42
59 90 75 89 89 92 100 94 95 95 97 99 99 84 84 94 93 99 99 94 94 98 100 100 100 90 89 55 89 24 86 100 48 45 80 100 100 96 100 100 100 99 100 71 12 43 86 48 48 6 5 6 37 56
78 97 92 90 93 93 99 100 100 100 96 99 99 92 97 96 98 99 100 99 100 99 98 96 80 100 64 99 100 75 12 35 100 100 100 100 98 100 100 100 100 100 100 80 54 89 100 85 86 75 53 38 25 58
55 99 94 90 98 97 72 91 100 88 99 100 100 100 100 98 92 99 94 100 100 100 99 100 89 88 96 100 100 98 69 95 100 100 100 100 100 100 100 98 100 100 100 90 70 74 100 97 83 77 84 77 79 78
95 99 99 97 88 94 95 68 43 73 100 100 100 100 100 98 88 96 96 100 100 100 100 93 85 100 98 41 5 26 79 92 100 100 100 100 100 100 100 92 100 100 100 90 91 87 72 94 65 68 76 84 58 54

GFSWCAN_prec_cloud_018.txt.gz
Cloud_Cover
100 100 100 100 100 100 100 100 100 100 100 100 100 100 100 100 49 8 75 72 96 100 100 100 5 15 51 5 12 74 9 29 8 48 54 28 61 46 44 5 9 12 8 19 15 64 33 5 5 60 91 73 90 93
100 100 100 100 100 100 100 100 100 100 100 100 100 100 100 100 5 5 68 81 100 100 100 84 57 71 6 10 8 23 74 95 74 63 46 41 94 94 7 34 7 47 5 5 5 7 5 5 20 23 54 100 100 100
100 100 100 100 100 100 100 100 100 100 100 100 100 79 100 100 45 21 36 100 100 100 100 80 50 44 5 6 65 35 71 87 62 7 19 19 100 72 85 75 86 58 5 5 5 12 6 35 100 100 100 95 17 5
100 100 100 100 100 100 100 100 100 100 100 100 100 100 100 46 29 100 100 100 100 100 100 92 67 31 28 10 44 39 72 62 5 21 55 63 88 5 5 10 89 96 5 5 20 99 100 100 62 5 7 5 5 15
100 100 100 100 100 100 100 100 100 100 100 100 100 100 100 94 100 100 100 100 100 100 100 66 59 35 55 60 67 82 60 18 11 59 68 55 15 6 29 96 100 100 100 100 84 35 18 84 100 100 22 32 57 72
100 100 100 100 100 100 100 100 100 100 100 100 99 100 100 100 100 100 100 100 100 100 24 61 31 65 76 73 89 100 75 51 52 41 63 99 100 55 95 100 100 100 100 32 85 100 56 8 5 15 71 81 50 36
100 100 100 100 100 100 100 100 96 100 99 71 100 100 100 100 100 100 100 100 91 59 77 94 64 62 53 60 94 92 100 100 100 100 100 100 100 82 99 100 100 100 100 100 100 24 6 5 5 6 5 24 60 38
100 100 100 100 100 100 100 100 100 100 100 100 100 100 100 100 100 100 100 100 96 100 100 100 77 89 84 100 100 98 100 72 79 100 94 94 76 92 100 100 100 100 100 100 7 5 5 5 11 19 39 69 98 100
100 100 100 100 100 99 100 100 100 100 100 100 100 100 100 100 100 100 100 100 100 100 100 100 92 100 95 100 88 89 100 100 71 98 96 84 100 100 100 100 100 100 100 74 12 5 5 27 78 99 99 100 100 100
100 100 100 100 100 100 100 100 100 100 100 100 100 100 100 100 97 100 98 70 74 100 100 100 100 100 84 100 100 80 90 93 99 100 100 100 100 100 100 100 100 93 28 91 100 100 100 100 100 100 100 100 96 98
100 99 100 89 100 100 100 100 100 100 100 100 100 100 100 100 100 100 100 100 100 100 100 100 100 100 100 100 100 100 96 92 99 100 100 100 100 100 100 100 100 100 100 100 100 100 100 100 100 100 100 100 100 100
100 100 100 93 100 100 100 100 100 100 100 100 100 100 100 100 100 98 100 100 100 100 100 100 100 100 100 100 100 100 100 100 89 82 100 100 100 100 100 100 100 100 100 100 100 100 100 100 100 100 100 95 79 74
100 100 100 100 100 100 100 100 100 100 100 100 100 100 100 74 100 100 99 100 100 100 100 100 100 100 100 100 96 94 100 100 61 99 100 100 100 100 100 100 100 100 100 100 100 100 100 100 100 100 98 91 89 29
100 100 100 100 97 100 100 100 100 100 100 100 100 100 100 100 100 100 100 100 100 100 100 100 100 100 100 100 100 100 100 100 100 100 100 100 100 100 100 100 100 100 100 100 100 100 99 76 54 18 37 48 48 36
100 100 100 100 100 100 100 100 100 100 100 100 100 100 100 100 100 100 100 100 100 100 100 100 100 100 100 100 100 100 100 100 97 100 100 100 100 100 100 97 85 90 100 100 92 87 65 12 40 15 44 40 24 55
100 100 100 100 100 100 100 100 100 100 100 100 100 100 100 100 100 100 100 100 100 100 100 100 100 100 100 100 100 100 100 96 99 100 100 100 100 100 100 96 81 95 100 98 83 75 69 57 42 44 40 10 10 35
100 100 100 100 100 100 100 100 100 100 100 100 100 100 100 100 100 100 100 100 100 100 100 100 100 100 100 98 100 100 100 100 100 100 100 99 100 100 100 96 78 70 66 88 34 51 72 66 22 5 5 5 5 5
100 100 100 100 100 100 100 100 100 100 100 100 100 100 100 100 100 100 100 100 100 100 100 100 100 100 100 100 99 96 100 100 100 100 100 100 100 100 94 91 58 54 69 100 100 80 60 10 44 22 5 5 5 5
100 100 100 100 100 100 100 100 100 100 100 100 100 100 100 100 100 100 100 100 100 100 100 100 92 94 99 100 100 100 100 100 100 100 100 100 100 100 93 56 86 99 87 56 53 80 100 78 19 5 5 5 5 5
100 100 100 100 100 100 100 100 100 100 100 100 100 100 100 100 100 100 100 100 99 97 98 88 95 98 93 99 100 100 100 100 100 100 100 99 98 100 100 96 100 94 90 100 96 54 24 17 5 5 5 8 5 5
100 100 92 89 100 100 94 97 100 99 100 99 100 100 100 94 98 72 96 73 69 48 23 100 100 100 100 100 100 100 100 100 100 100 96 97 99 98 89 96 100 100 100 94 83 91 100 90 69 56 56 75 90 100
99 100 100 85 70 97 81 98 98 88 60 84 64 57 77 73 79 92 92 74 100 100 100 100 100 100 100 100 100 100 100 100 100 100 100 100 100 100 100 99 98 98 100 100 100 100 100 100 84 65 98 100 87 100
100 100 100 100 100 85 90 89 79 78 57 60 44 50 74 71 94 48 96 99 100 100 100 100 100 100 100 100 100 100 100 100 98 100 100 100 100 100 100 100 100 100 100 100 100 100 98 66 74 95 100 100 100 100
100 100 100 100 100 100 100 99 100 100 73 100 98 94 98 98 85 92 100 100 100 100 100 100 100 100 100 100 100 100 100 100 100 100 100 100 100 100 100 100 100 100 100 100 100 96 95 100 80 99 100 100 100 100
5 34 12 41 56 72 80 100 100 100 100 100 100 100 100 100 100 100 100 100 100 100 100 100 100 100 100 100 100 100 100 100 100 100 100 100 100 100 100 100 100 100 100 88 85 93 100 100 100 100 100 100 100 100
74 89 75 97 97 85 85 88 95 95 96 93 90 85 83 99 100 100 100 100 100 100 100 100 100 100 100 100 100 100 100 100 100 100 100 100 100 100 96 83 64 66 100 100 100 97 89 93 100 100 100 100 100 100
98 99 95 100 100 96 83 85 80 88 97 98 96 98 97 92 100 100 100 100 100 100 100 100 100 100 100 100 100 100 100 100 100 100 100 100 100 81 50 41 42 90 100 100 100 100 100 100 100 100 100 100 100 100
100 96 91 100 93 88 87 89 94 100 100 94 99 94 99 99 98 100 100 100 100 100 100 100 100 100 100 100 100 100 100 96 85 73 91 100 100 100 100 100 81 81 74 96 92 100 100 100 100 100 100 100 100 100
79 94 84 81 82 86 84 96 96 99 92 99 99 99 99 100 100 100 100 100 100 100 100 100 100 100 94 78 92 94 91 83 62 46 39 26 37 98 100 100 100 100 100 100 74 88 100 100 100 100 100 100 100 100
76 98 47 81 79 96 98 91 99 96 90 98 96 95 99 100 100 100 100 100 100 100 100 100 100 99 96 82 90 96 100 96 83 45 6 40 98 100 100 100 100 100 100 100 100 100 89 92 100 100 97 100 100 100
85 74 77 85 94 96 98 97 99 99 99 100 100 100 100 100 100 100 100 100 100 100 100 100 97 89 81 41 18 55 60 93 86 92 95 100 100 100 100 100 100 100 100 100 100 100 97 98 100 100 100 100 100 98
45 90 66 31 98 99 83 97 97 96 100 100 100 100 100 100 100 100 100 100 100 100 100 100 100 98 99 90 60 75 85 89 100 100 100 100 100 100 100 100 100 100 100 100 100 100 100 100 100 100 100 100 99 86
99 99 99 88 97 95 90 64 25 90 100 100 100 100 100 100 100 100 100 100 98 100 98 98 96 100 81 24 32 44 66 98 100 96 100 100 100 98 97 100 100 100 100 100 100 100 100 100 100 96 98 81 73 70

GFSWCAN_prec_cloud_021.txt.gz
Cloud_Cover
82 100 100 100 100 100 99 94 100 100 100 100 100 100 100 94 98 94 70 92 100 80 41 100 89 100 100 100 93 88 13 65 45 29 45 5 31 5 5 5 5 8 15 25 6 63 61 86 78 68 13 6 5 12
100 100 100 100 100 100 100 100 75 100 100 100 100 100 100 100 100 85 47 3 12 12 37 100 100 100 100 100 45 34 8 11 6 19 92 36 91 90 5 50 17 16 5 15 6 5 5 5 48 5 5 35 16 78
100 100 100 100 100 100 100 100 100 100 100 100 100 100 100 100 31 9 77 9 11 9 100 100 100 100 100 100 92 9 25 20 78 99 88 28 98 67 86 65 12 9 5 5 5 5 5 5 5 5 5 12 97 43
100 100 100 100 100 100 100 100 100 100 100 100 100 100 100 42 27 57 100 17 41 77 100 100 100 100 100 99 36 86 99 100 78 45 95 65 88 100 86 13 11 5 5 5 5 5 5 13 24 67 77 5 19 93
100 100 100 100 100 100 100 100 100 100 100 100 100 100 100 100 100 97 100 20 64 100 100 100 100 100 100 76 18 94 21 74 100 88 66 94 97 87 60 34 61 62 5 5 5 63 100 100 99 19 26 100 89 18
100 100 100 100 100 100 100 100 100 100 100 100 100 100 100 100 100 95 7 8 66 100 78 83 100 100 100 42 12 100 36 98 100 100 100 93 92 25 44 43 76 22 36 91 100 100 100 69 5 5 90 100 57 47
100 100 100 100 100 100 100 100 100 100 100 100 100 100 100 100 99 72 84 98 99 100 100 100 100 100 70 43 32 58 59 84 99 97 73 61 48 30 82 60 100 100 100 100 100 72 51 9 19 24 18 68 59 78
100 100 100 100 100 100 100 100 100 100 100 100 100 86 60 96 100 100 100 100 100 100 100 100 100 100 19 73 79 73 74 44 8 34 55 68 68 76 87 100 100 100 100 72 5 5 5 5 36 80 91 90 84 76
100 100 100 100 100 100 100 100 100 100 100 100 100 100 100 91 89 82 91 100 100 84 100 100 100 100 25 98 77 88 60 80 50 99 82 56 100 97 100 100 100 75 6 30 11 10 54 94 96 93 98 99 99 98
100 100 100 100 100 100 100 100 100 100 100 100 100 100 100 100 100 100 100 100 100 97 94 100 85 100 58 92 98 76 99 82 98 88 58 99 100 100 100 100 66 14 35 61 90 100 100 100 96 100 100 100 100 100
100 100 100 100 100 100 100 100 100 100 100 100 100 100 100 100 100 100 100 100 92 96 80 100 100 100 97 90 99 95 100 88 100 76 98 99 100 100 89 84 76 52 55 92 91 82 99 100 100 100 100 73 99 100
100 100 100 100 100 100 100 100 100 100 100 100 100 100 100 100 100 99 100 97 92 100 100 100 100 100 100 100 89 75 95 93 98 80 95 86 100 100 100 100 100 88 91 94 100 100 100 100 100 100 100 100 100 100
100 100 100 100 100 100 100 100 100 100 100 100 100 100 100 100 100 100 100 100 100 100 100 100 100 100 100 100 100 100 97 91 83 93 86 95 100 100 100 100 100 100 100 100 100 100 100 100 100 100 100 100 100 99
100 100 100 100 99 100 100 100 100 100 100 100 100 100 100 100 100 100 100 100 100 100 100 100 100 100 100 100 100 100 100 86 100 100 100 100 100 100 100 100 100 100 100 100 100 100 100 100 100 100 100 100 99 87
100 100 100 100 100 100 100 100 100 100 100 100 100 100 100 100 100 100 100 100 100 100 100 100 100 100 100 100 100 100 100 100 100 99 100 100 100 100 100 100 100 100 100 100 100 100 98 85 91 81 52 5 9 8
93 99 100 100 100 100 100 100 100 100 100 100 99 100 100 100 100 100 100 100 100 100 100 100 100 100 100 100 100 100 98 100 100 100 100 100 100 100 100 100 100 100 100 100 100 77 78 88 78 54 7 5 5 5
99 78 97 100 100 100 100 100 100 100 100 100 100 100 100 100 100 100 100 100 100 100 100 100 100 100 100 100 100 100 100 100 100 100 100 100 100 100 100 100 100 100 88 62 73 94 98 54 5 5 1 1 3 5
94 100 100 100 100 100 100 100 100 100 100 100 100 100 100 100 100 100 100 100 100 100 100 100 100 100 100 100 100 100 100 100 100 100 100 100 100 100 100 100 96 92 100 99 56 29 7 5 5 5 5 5 5 23
99 97 100 100 100 100 100 100 100 100 100 100 100 100 100 100 100 100 100 100 100 100 100 100 100 100 100 100 100 100 100 100 100 100 100 100 100 100 100 99 100 99 68 54 53 69 12 6 23 5 5 12 90 88
88 100 94 100 100 100 100 100 100 100 100 100 100 100 100 100 100 100 100 100 100 100 100 100 100 100 100 100 100 100 100 100 100 100 100 100 100 100 99 99 100 100 78 58 66 13 5 20 53 44 50 74 95 61
100 78 21 38 100 99 100 100 100 100 100 100 100 100 100 100 100 100 100 100 100 100 100 100 100 100 100 100 100 100 100 100 100 100 96 100 100 100 100 100 100 100 100 100 97 97 74 70 67 75 72 98 100 100
97 100 100 100 100 100 91 96 100 100 100 100 100 100 100 100 100 99 100 100 100 100 100 100 100 100 100 100 100 100 100 100 100 100 100 100 100 100 100 100 100 100 100 100 99 98 100 96 89 64 96 100 100 100
91 100 100 88 89 89 80 95 76 84 83 98 91 93 97 100 87 66 89 99 100 100 100 100 100 100 100 100 88 95 100 100 100 100 100 99 100 100 100 100 100 100 100 100 100 100 100 99 100 95 100 100 100 100
100 100 100 98 64 97 55 93 78 80 73 91 99 98 100 100 71 94 100 100 100 100 100 100 100 100 99 100 100 100 100 100 100 100 100 100 100 100 100 100 100 100 100 100 100 100 100 100 97 100 100 100 100 100
6 44 39 55 98 32 82 84 96 92 100 96 97 99 100 90 100 100 100 100 100 100 100 100 100 100 100 100 100 100 100 100 100 100 100 100 100 100 100 100 100 100 100 100 100 100 100 100 100 100 100 100 100 100
71 100 91 98 91 71 90 94 100 100 100 100 100 100 100 100 100 100 100 100 100 100 100 100 100 100 100 100 100 100 100 100 100 100 100 100 100 99 97 97 100 100 100 100 100 100 100 100 100 100 100 100 100 100
98 100 100 100 100 100 100 100 99 100 100 100 100 100 100 100 100 100 100 100 100 100 100 100 100 100 100 100 100 100 100 97 88 78 68 83 73 79 94 98 96 100 100 100 100 100 100 100 100 100 100 100 100 100
100 100 96 100 100 100 100 100 100 100 100 100 100 100 100 100 100 100 100 100 100 100 100 100 100 100 100 100 100 100 99 70 86 84 94 99 100 100 100 100 99 90 100 100 100 100 100 100 100 100 100 100 100 100
97 100 90 70 98 100 100 100 100 100 99 100 100 100 100 100 100 100 100 100 100 100 100 100 100 100 100 100 100 100 100 90 44 5 5 34 89 100 100 100 100 100 100 100 100 100 100 100 100 100 100 100 100 100
99 100 98 87 92 100 100 100 100 100 97 99 94 97 100 100 100 100 100 100 100 100 100 100 100 100 100 100 100 100 100 96 65 17 5 43 100 100 100 100 100 100 100 100 100 100 100 100 100 100 100 100 100 100
100 95 96 93 100 100 100 100 99 100 100 100 100 100 100 100 100 100 100 100 100 100 100 100 100 100 91 86 83 81 69 100 98 96 99 100 100 100 100 100 100 100 100 100 100 100 100 100 100 100 100 100 100 100
88 92 95 90 100 100 99 100 100 100 100 100 100 100 100 100 100 100 100 100 100 100 95 99 100 100 91 90 94 98 20 83 100 100 100 100 100 100 100 100 100 100 100 100 100 100 100 100 100 100 100 100 100 100
100 94 93 94 98 100 95 95 87 99 100 100 100 100 100 100 100 100 100 100 100 100 100 100 100 100 97 85 96 58 35 95 78 100 100 100 100 100 100 100 100 100 100 100 100 100 100 100 100 100 100 100 100 100

GFSWCAN_prec_cloud_024.txt.gz
Cloud_Cover
75 99 100 100 100 100 86 15 98 45 5 5 5 29 100 100 100 100 85 100 99 100 100 100 78 100 100 100 100 99 60 13 41 31 41 5 57 19 5 5 5 5 6 40 6 72 54 6 30 74 5 15 29 5
5 43 60 78 100 25 64 18 5 5 5 5 5 100 97 100 99 100 99 91 100 100 97 100 37 10 100 100 86 100 100 80 31 8 46 20 93 90 5 16 5 11 17 5 5 5 60 67 97 7 57 100 5 5
7 2 17 4 2 0 1 3 4 5 7 12 77 100 98 96 100 70 98 25 51 100 100 100 92 100 100 100 92 100 100 83 41 18 20 6 96 6 80 9 6 5 49 6 50 26 5 11 20 66 67 5 83 57
100 100 100 100 100 100 100 84 34 27 96 100 84 100 53 88 99 100 100 100 100 100 82 71 97 92 100 100 100 100 100 100 92 26 19 82 86 97 97 6 42 15 76 22 91 8 5 5 72 65 5 10 93 100
100 100 100 100 100 100 100 100 100 100 100 100 50 50 100 100 100 100 100 100 100 36 84 99 66 100 100 100 100 100 100 100 14 24 73 53 100 100 100 99 100 86 47 44 56 7 71 4 15 31 71 93 100 100
100 100 100 100 100 100 100 100 100 100 100 100 100 100 100 100 100 100 100 100 100 54 7 33 96 100 100 100 100 100 100 100 7 13 95 86 100 90 85 100 94 30 67 6 5 5 5 11 21 96 100 100 100 62
100 100 100 100 100 100 100 100 100 100 100 100 100 100 92 100 100 100 85 76 45 66 5 93 100 60 100 100 100 100 100 99 13 50 72 63 88 100 100 100 22 100 86 8 34 5 26 7 100 100 100 86 6 52
100 100 100 100 100 100 100 100 100 100 100 100 100 100 100 94 100 100 86 100 100 69 8 96 100 97 100 100 100 100 100 100 72 50 20 42 48 100 100 100 100 100 100 100 80 36 75 100 100 91 44 35 54 38
100 100 100 100 100 100 100 100 100 100 100 100 100 88 100 100 100 98 98 100 100 98 96 82 100 100 100 100 100 100 100 100 66 42 67 48 68 68 100 98 84 41 40 84 100 100 100 95 88 100 43 6 5 29
100 100 100 100 100 100 100 100 100 100 100 100 99 99 100 100 100 98 76 100 100 100 100 100 100 100 98 100 100 100 100 100 82 64 56 87 95 100 100 100 100 100 98 59 75 77 91 100 92 83 96 73 47 78
100 100 100 100 100 100 100 100 100 100 100 100 92 100 100 100 89 72 100 63 100 100 100 100 98 100 96 100 100 100 91 89 61 47 72 93 98 100 100 100 97 100 89 85 100 100 99 100 100 100 86 100 94 99
100 100 100 100 100 100 100 100 100 100 100 100 100 100 100 100 100 87 90 76 85 100 100 100 100 100 100 100 100 100 91 94 94 82 93 98 100 100 100 94 70 98 100 100 100 100 100 100 98 100 99 95 98 100
100 100 100 100 100 100 100 100 100 100 100 100 100 100 100 100 100 100 100 97 100 100 100 100 100 100 100 100 100 100 100 71 88 92 86 79 100 100 100 99 100 100 100 100 100 100 100 100 100 100 100 100 100 100
99 100 100 100 100 100 100 100 100 100 100 100 100 100 100 100 100 100 100 100 100 100 100 100 100 100 100 100 100 100 100 100 100 100 79 100 100 100 100 100 100 100 100 100 100 100 100 100 100 100 100 100 100 100
27 84 100 100 100 100 100 100 100 100 100 100 100 100 100 100 100 100 100 100 100 100 100 100 100 100 100 100 100 100 100 96 100 86 100 100 100 100 100 100 100 100 100 100 100 100 100 100 100 100 100 100 100 92
99 100 100 100 100 100 100 100 100 100 100 100 100 100 100 100 100 100 100 100 100 100 100 100 100 100 100 100 100 100 97 83 100 100 100 100 100 100 100 100 100 100 100 100 100 100 100 100 100 100 100 100 76 18
69 97 100 100 100 100 100 100 100 100 100 100 100 100 100 100 100 100 100 100 100 100 100 100 100 100 100 100 100 100 100 100 100 100 100 100 100 100 100 100 100 100 100 100 100 100 100 100 100 82 79 10 5 4
91 70 83 98 100 100 100 100 100 100 100 100 100 100 100 100 100 100 100 100 100 100 100 100 100 100 100 100 100 100 100 100 100 100 100 100 100 100 100 100 100 100 100 100 100 100 100 100 96 53 12 5 5 5
99 100 90 68 99 100 100 100 100 100 100 100 100 100 100 100 100 100 100 100 100 100 100 100 100 100 100 100 100 100 100 100 100 100 100 100 100 100 100 100 100 100 100 100 100 100 98 76 89 81 66 49 52 16
100 100 100 100 100 100 100 100 100 100 100 100 100 100 100 100 100 100 100 100 100 100 100 100 100 100 100 100 100 100 100 100 100 100 100 100 100 100 100 100 100 100 95 95 96 83 82 98 100 100 83 51 82 81
100 90 88 100 100 100 100 100 100 100 100 100 100 100 100 100 100 100 100 100 100 100 100 100 100 100 100 100 100 100 100 100 100 100 100 100 100 100 100 100 100 100 100 100 100 100 100 99 71 75 78 94 71 19
12 17 18 5 10 17 49 86 93 100 100 100 100 100 100 100 100 100 100 100 100 100 100 100 100 100 100 100 100 100 100 100 100 100 100 100 100 100 100 100 100 100 100 100 100 100 100 81 97 92 80 69 71 86
39 22 9 64 65 14 34 37 6 45 44 83 72 100 100 100 99 100 100 100 100 100 100 100 100 100 100 100 100 100 100 100 100 100 100 100 100 100 100 100 100 100 100 100 100 99 97 94 98 66 92 82 77 95
57 93 81 63 8 81 25 71 75 90 79 92 90 92 100 92 81 100 100 100 100 100 100 96 100 100 98 95 99 100 100 100 100 100 100 100 100 100 100 100 100 100 100 100 100 100 100 100 100 100 100 94 100 100
6 59 36 37 98 100 95 98 100 96 100 100 100 99 97 74 95 100 100 100 100 100 100 100 98 98 100 100 100 100 98 100 100 100 100 100 100 100 100 100 100 100 100 100 100 100 100 100 92 94 79 93 100 100
76 88 86 100 96 82 98 100 100 100 100 100 100 100 92 99 100 100 100 100 100 100 100 100 100 100 100 100 100 100 100 99 100 99 82 94 94 96 89 89 100 100 100 100 100 100 100 100 99 97 98 99 100 100
99 100 100 100 100 99 100 100 97 100 100 99 100 100 90 100 100 100 100 100 100 100 100 100 100 100 100 100 100 100 86 73 64 63 79 89 86 87 85 97 100 87 96 100 100 100 100 100 100 100 100 100 100 100
99 100 100 100 100 100 100 100 100 100 100 98 96 98 99 100 100 100 100 100 100 100 100 100 100 100 100 100 100 100 100 91 54 37 92 99 100 100 93 99 97 84 100 100 92 100 100 100 100 100 100 100 98 100
100 97 72 50 100 100 100 100 100 100 100 100 100 100 100 100 100 100 100 100 100 100 100 100 100 96 98 98 99 100 100 54 39 5 8 73 100 100 82 96 100 100 100 100 100 100 100 99 100 100 100 100 95 100
100 96 97 86 100 100 100 96 100 100 100 100 92 94 100 100 100 100 100 100 100 100 100 100 100 100 100 100 100 100 100 80 63 71 73 90 100 100 99 100 100 100 100 100 100 100 100 100 100 99 100 100 100 100
100 99 91 85 100 98 97 99 96 100 100 100 100 100 100 100 100 100 100 100 100 100 100 100 100 100 100 97 100 100 96 100 64 93 47 91 100 100 100 100 100 100 100 100 100 100 100 100 100 100 100 100 100 100
98 99 95 90 100 99 100 100 96 100 100 100 100 100 100 100 100 100 100 100 100 100 94 99 100 100 100 100 100 100 93 80 100 100 99 100 100 100 100 100 100 100 100 100 100 100 100 100 100 100 100 100 100 88
99 90 94 99 99 100 100 96 100 100 100 100 100 100 100 100 100 100 100 100 100 100 100 100 100 100 100 96 97 96 100 100 100 100 100 100 100 88 96 100 100 100 100 100 100 100 100 100 100 100 100 100 100 100

GFSWCAN_prec_cloud_027.txt.gz
Cloud_Cover
57 77 100 100 91 100 100 100 100 100 100 100 100 52 27 5 94 99 100 100 100 100 80 5 98 76 100 86 100 100 100 100 86 95 99 88 35 5 62 8 5 7 29 46 58 79 15 5 61 5 5 5 27 5
100 100 74 7 7 98 100 100 100 100 100 99 89 40 5 40 100 76 100 100 100 100 86 35 79 13 97 100 100 100 98 79 100 100 100 97 74 90 43 72 63 49 5 5 5 5 5 5 5 5 33 68 5 5
5 5 93 99 100 100 100 98 83 91 75 100 86 82 18 34 100 100 100 100 100 88 99 76 18 84 51 76 94 35 67 100 96 100 98 95 40 12 29 46 99 85 20 5 5 5 33 8 15 59 100 100 80 90
4 5 6 14 100 100 33 5 18 48 61 25 9 79 10 29 72 30 100 100 100 100 100 92 88 100 100 100 99 40 100 100 100 100 100 100 96 5 17 11 64 84 48 7 40 10 11 5 41 100 100 96 93 86
64 1 1 8 61 5 5 4 5 5 6 12 14 5 99 100 100 100 100 100 100 100 100 100 100 100 100 100 100 100 100 100 100 97 90 88 100 16 6 5 38 79 69 100 100 100 86 42 8 5 9 24 39 59
100 100 100 100 64 4 5 5 5 5 5 5 78 100 100 100 100 100 100 100 100 100 100 100 100 100 100 56 64 100 100 100 100 100 71 100 100 98 52 5 5 62 76 100 100 100 100 100 100 74 5 5 6 6
100 100 100 100 100 78 49 12 5 5 100 100 100 100 100 100 100 100 100 100 100 100 100 100 100 100 100 65 95 100 100 100 100 100 98 100 100 100 91 5 5 57 100 100 72 36 22 58 99 15 32 81 72 56
100 100 100 100 100 100 100 93 100 100 100 100 100 100 100 100 100 100 100 100 100 100 100 100 100 100 82 100 100 100 100 100 100 100 100 100 100 100 27 5 30 16 99 100 100 100 100 100 93 58 28 13 61 100
100 100 100 100 100 100 100 100 100 100 100 100 100 100 100 100 100 100 100 100 100 100 100 100 100 100 100 100 100 100 100 100 100 98 100 100 100 100 90 65 67 44 65 98 100 100 89 7 23 64 9 15 56 30
100 100 100 100 100 100 100 100 100 100 100 87 100 100 100 100 100 100 100 100 100 100 100 100 100 100 100 100 100 100 100 100 100 100 100 100 100 100 93 100 100 9 26 87 58 39 28 71 96 53 23 9 7 92
100 100 100 100 100 100 87 100 100 100 100 89 100 100 100 100 100 100 100 100 100 100 69 67 100 100 100 100 100 100 99 97 80 100 84 79 87 100 100 99 80 100 86 96 76 55 55 88 99 100 82 41 87 90
100 100 100 100 100 100 100 100 100 61 55 95 97 100 79 98 43 97 98 100 100 91 89 97 100 100 100 100 100 95 73 70 42 82 64 82 100 100 100 100 100 99 98 100 100 100 100 100 100 100 85 97 100 100
100 100 100 100 100 100 100 100 100 100 100 58 39 42 91 92 99 94 100 100 99 100 100 100 100 100 100 100 98 92 86 86 73 99 84 100 100 100 100 100 100 100 100 100 100 100 100 100 88 100 100 100 94 91
100 100 100 100 100 100 100 100 100 100 100 100 100 100 100 100 100 100 100 100 100 100 100 96 100 100 100 100 100 100 100 100 100 100 100 100 100 100 100 100 100 100 100 100 99 91 98 100 100 100 100 100 100 100
100 100 100 100 100 100 100 100 100 100 100 100 100 100 100 100 100 100 100 100 100 100 100 100 100 100 100 100 100 100 100 97 100 100 100 100 100 100 100 100 100 100 100 100 100 100 100 100 100 100 100 100 100 100
100 100 100 100 100 100 100 100 100 100 100 100 100 100 100 100 100 100 100 100 100 100 100 100 100 100 100 100 100 100 100 100 100 100 100 100 100 100 100 100 100 100 100 100 100 100 100 100 100 100 100 100 100 100
100 100 100 100 100 100 100 100 100 100 100 100 100 100 100 100 100 100 100 100 100 100 100 100 100 100 100 100 100 100 100 100 100 100 100 100 100 100 100 100 100 100 100 100 100 100 100 100 100 100 100 100 100 100
99 92 99 100 100 100 100 100 100 100 100 100 100 100 100 100 100 100 100 100 100 100 100 100 100 100 100 100 99 100 100 100 100 100 100 100 100 100 100 100 100 100 100 100 100 100 100 100 100 100 100 100 100 100
100 100 100 100 100 100 100 100 100 100 100 100 100 100 100 100 100 100 100 100 100 100 100 100 100 100 100 100 100 100 100 100 100 100 100 100 100 100 100 100 100 100 100 100 100 100 100 100 100 100 100 100 100 89
5 29 91 76 34 83 100 100 100 100 100 100 100 100 100 100 100 100 100 100 100 100 100 100 100 100 100 100 100 100 100 100 100 100 100 100 100 100 100 100 100 100 100 100 100 100 100 98 100 100 100 100 98 44
28 5 70 80 98 92 90 100 100 100 100 100 100 100 100 100 100 100 100 100 100 100 100 100 100 100 100 100 100 100 100 100 100 100 100 100 100 100 100 100 100 100 100 100 100 100 100 100 100 100 100 100 90 81
5 15 99 100 100 100 100 100 100 100 100 100 100 100 100 100 100 100 100 100 100 100 100 100 100 100 100 100 100 100 100 100 100 100 100 100 100 100 100 100 100 100 100 100 100 100 100 100 100 99 87 99 94 84
50 86 100 100 100 61 99 96 100 100 100 100 100 100 100 100 100 100 100 100 100 100 100 100 100 100 100 100 100 100 100 100 100 100 100 100 100 100 100 100 100 100 100 100 100 100 100 100 100 100 100 100 99 100
14 63 64 64 28 66 27 20 55 36 78 90 96 100 100 100 100 100 100 100 100 100 100 100 100 100 100 100 100 100 100 100 100 100 100 100 100 100 100 100 100 100 100 100 100 100 100 100 100 100 100 100 80 72
10 58 38 98 100 81 93 100 97 98 100 100 65 85 96 78 78 100 100 100 100 100 100 98 99 82 96 98 84 78 89 88 86 91 95 100 100 100 100 100 100 100 100 100 100 100 100 100 99 96 52 6 77 82
97 95 89 100 100 99 100 100 100 100 100 100 100 100 90 97 88 100 100 100 98 100 100 99 100 86 79 86 92 94 94 100 91 92 82 81 72 76 89 96 100 94 89 84 51 66 40 21 7 29 37 16 95 100
100 100 100 100 100 92 100 100 91 69 75 92 100 98 98 100 98 100 100 100 100 100 96 95 97 97 99 100 91 74 76 75 74 81 87 88 83 57 13 46 66 16 48 65 5 9 89 86 85 54 80 100 100 100
100 100 100 100 100 99 100 100 100 100 100 100 100 83 76 94 100 100 100 100 100 100 100 99 88 78 86 99 100 100 99 97 99 98 87 76 78 65 47 37 63 75 99 95 65 98 92 100 88 58 71 75 42 5
100 100 25 99 100 100 100 100 100 100 100 100 100 98 100 100 100 100 100 100 100 96 87 88 100 98 99 99 90 84 59 47 43 42 58 79 99 54 5 60 100 70 8 20 59 90 100 100 100 100 34 100 99 96
88 78 62 86 98 99 96 100 100 100 99 89 38 86 98 100 100 100 98 100 100 100 100 100 100 100 96 95 100 100 92 84 82 47 89 100 94 85 79 100 100 78 82 79 38 62 32 21 64 81 35 71 100 100
97 74 44 33 67 99 100 100 99 100 80 66 100 100 98 100 100 100 100 100 100 100 95 97 100 100 100 92 73 86 76 7 94 96 64 5 20 36 26 46 92 99 66 98 100 100 100 95 100 100 100 100 100 100
99 79 10 86 94 66 100 100 100 100 98 94 90 37 86 93 96 96 98 92 100 100 99 87 87 99 43 40 45 46 82 97 100 87 18 79 64 67 73 5 12 83 77 91 100 100 100 100 100 100 100 100 100 87
94 6 5 70 99 94 47 28 96 99 99 81 90 98 99 100 97 95 99 93 85 87 99 98 98 100 100 86 7 100 96 74 58 37 88 94 90 89 100 96 99 93 88 63 60 74 82 100 100 100 100 100 98 82

GFSWCAN_prec_cloud_030.txt.gz
Cloud_Cover
100 100 100 100 100 100 100 98 63 70 5 5 5 72 99 95 100 33 100 100 100 100 94 100 100 100 100 100 100 100 100 51 100 100 100 100 72 39 5 3 25 94 30 42 70 74 5 5 5 5 22 32 5 5
100 100 100 100 100 100 100 100 87 12 5 20 67 98 94 100 100 44 40 100 100 100 100 68 100 100 100 100 100 100 96 100 100 100 100 100 95 31 67 10 16 98 10 10 26 82 75 47 61 21 5 5 6 40
100 100 100 99 100 100 100 100 100 96 51 56 100 100 97 100 100 20 100 100 100 100 100 75 35 100 96 99 100 96 100 99 100 100 100 100 100 99 32 100 22 100 26 49 55 95 100 58 32 7 11 42 30 41
74 63 60 100 100 99 100 100 100 100 90 90 100 100 100 100 98 14 96 99 100 100 100 100 20 3 0 4 96 58 99 100 100 100 100 100 88 89 100 100 100 55 20 84 88 96 46 100 80 56 69 100 100 100
5 41 86 100 100 100 100 100 100 100 100 100 68 100 100 100 42 94 100 100 100 100 100 44 53 4 0 5 28 92 100 100 100 100 83 90 94 100 70 54 100 92 34 38 96 97 77 58 48 55 79 100 100 100
5 7 100 100 100 100 100 86 100 100 100 100 100 100 40 17 43 100 100 100 100 100 100 100 98 19 10 42 98 100 100 100 100 100 100 98 100 100 99 100 100 65 6 49 100 100 78 70 47 47 92 100 100 100
9 36 100 84 77 97 12 5 85 100 100 100 96 85 33 39 97 54 39 46 100 100 100 100 100 78 56 100 100 100 100 100 100 100 100 100 100 100 100 100 100 100 66 49 17 75 97 100 100 100 94 83 100 100
100 86 8 100 100 23 5 6 16 50 72 23 100 99 55 99 100 100 93 100 100 100 100 100 100 100 95 97 100 100 100 100 100 100 100 100 100 100 100 100 100 100 100 100 65 30 21 39 81 90 96 100 100 100
100 100 98 12 5 61 6 5 5 5 5 18 31 99 100 100 100 100 100 100 100 100 100 100 100 100 100 100 89 60 88 100 100 100 100 100 100 100 100 100 100 100 100 100 100 63 33 50 20 43 47 54 68 19
100 100 100 100 10 5 5 5 5 7 52 100 100 100 96 100 100 100 100 100 100 100 100 100 100 100 100 100 100 100 100 100 100 100 100 100 100 8 96 100 100 100 100 100 100 100 92 6 47 32 14 28 56 11
100 100 100 100 100 100 97 99 100 100 100 100 100 100 100 100 100 100 100 100 100 100 100 100 100 100 100 100 100 100 100 100 100 100 100 100 100 100 83 100 100 100 100 100 100 100 100 100 31 72 97 67 82 92
100 100 100 100 100 100 100 100 100 100 100 100 100 100 100 100 100 100 100 100 100 100 100 100 100 91 100 100 100 100 100 100 100 100 100 100 100 100 100 100 100 100 100 100 100 100 100 100 100 100 97 100 100 100
100 100 100 100 100 100 100 100 100 100 100 100 100 100 100 100 100 100 100 100 100 100 100 100 100 100 100 100 100 100 100 100 100 100 100 100 100 100 100 100 100 100 100 100 100 100 100 100 100 99 100 99 100 100
100 100 100 100 100 100 100 100 100 100 100 100 100 100 100 100 100 100 100 100 100 100 100 100 100 100 100 100 100 100 100 100 100 89 51 100 100 100 100 100 100 100 100 100 100 100 100 100 100 100 100 100 100 100
100 100 100 100 100 100 100 100 100 100 100 100 100 100 100 100 100 100 100 100 100 100 100 100 100 100 100 100 100 97 100 97 74 99 100 100 100 100 100 100 100 100 100 100 100 100 100 100 100 100 100 100 100 100
100 100 100 100 100 100 100 93 100 100 100 100 100 100 100 100 100 100 100 100 100 100 99 100 100 100 100 100 100 100 100 100 100 100 100 100 100 100 100 100 100 100 99 100 100 100 100 100 100 100 100 100 100 100
86 100 100 100 99 100 100 100 96 91 100 100 100 100 100 100 100 100 100 100 100 100 100 100 100 100 100 100 100 100 100 100 100 100 100 100 100 100 100 100 100 100 100 100 100 100 100 100 100 100 100 100 100 100
100 100 100 100 98 98 100 100 100 100 100 100 100 100 100 100 100 100 100 100 100 100 100 100 100 100 100 100 100 100 100 100 100 100 100 100 100 100 100 100 100 100 100 100 100 100 100 100 100 100 100 100 100 100
100 100 100 100 100 99 79 100 100 100 100 100 100 100 100 100 100 100 100 100 100 100 100 100 100 100 100 100 100 100 100 100 100 100 100 100 100 100 100 100 100 100 100 100 100 100 100 100 100 100 100 100 100 100
100 100 100 100 100 100 100 100 99 100 100 100 100 100 100 100 100 100 100 100 100 100 100 100 100 100 100 100 100 100 100 100 100 100 100 100 100 100 100 100 100 100 100 100 100 100 100 100 100 100 100 100 100 98
30 47 92 74 98 100 100 100 100 100 100 100 100 100 100 100 100 94 100 87 93 100 100 100 100 100 100 100 100 100 100 100 100 100 100 100 100 100 100 100 100 100 100 100 100 100 100 100 100 100 100 100 100 100
4 5 8 34 9 82 99 100 100 100 100 100 100 100 100 100 100 100 100 100 100 100 100 100 100 100 100 100 100 100 100 100 100 100 100 100 100 100 100 100 100 100 100 100 100 100 100 100 100 100 100 100 100 100
9 14 65 79 5 6 51 96 100 100 100 100 100 100 100 100 100 100 100 100 100 100 100 100 97 96 99 100 100 100 100 100 100 100 100 100 100 100 100 100 100 100 100 100 100 100 100 100 100 100 100 100 100 100
5 6 51 30 8 59 22 85 100 100 99 96 100 100 100 100 100 100 100 100 100 100 100 100 100 100 98 100 99 100 100 100 100 100 100 100 100 100 100 100 100 100 96 100 100 100 100 100 100 100 100 100 100 100
96 97 36 26 19 56 100 53 18 93 100 100 94 100 88 52 64 67 94 98 97 100 100 100 100 100 100 100 98 98 81 76 73 92 99 89 94 100 100 100 100 100 100 100 100 100 99 98 94 82 55 100 94 86
68 83 51 100 97 89 99 100 99 100 36 89 100 100 86 37 37 99 99 100 100 100 100 100 98 74 93 74 80 84 90 82 92 81 65 65 80 89 89 88 96 95 77 58 5 80 91 89 98 84 90 81 100 100
87 66 83 97 95 78 91 96 74 26 87 97 89 86 99 80 97 100 100 99 95 100 100 100 97 96 99 98 91 78 73 72 77 87 94 90 75 44 10 5 6 66 74 20 54 66 100 100 100 94 100 86 82 78
93 94 77 83 48 36 31 56 81 96 98 93 92 94 69 100 100 100 100 100 100 100 100 97 96 95 91 85 92 86 95 98 99 79 69 36 50 52 98 100 99 97 78 74 77 80 98 100 100 100 100 100 98 73
100 97 48 92 50 91 92 100 100 96 97 100 99 100 100 97 100 100 100 100 100 100 100 96 100 98 99 93 92 94 84 74 32 51 98 100 91 35 80 97 100 100 100 98 88 60 88 100 96 99 98 92 100 100
90 90 6 33 77 100 99 92 99 99 67 76 30 99 95 99 100 100 100 100 100 100 100 100 96 93 86 98 100 90 89 99 100 77 80 91 80 71 89 60 72 61 91 100 97 88 98 89 90 64 51 72 100 83
83 25 22 72 98 100 100 100 91 66 58 59 84 98 85 90 100 100 100 100 98 86 100 94 85 91 87 98 100 100 58 100 100 98 98 97 100 100 99 86 88 95 98 72 80 96 100 99 98 98 95 89 100 100
5 12 57 82 100 99 100 100 100 100 99 91 99 95 97 46 92 92 94 100 93 84 100 100 100 99 94 85 89 99 100 100 100 100 96 92 99 100 99 93 93 100 99 100 97 100 100 98 98 100 99 94 100 100
26 5 55 73 99 94 28 63 100 99 100 100 100 100 100 100 94 97 99 90 90 95 99 99 91 96 100 100 100 90 87 65 77 76 82 91 88 57 54 95 100 100 100 100 100 100 100 100 91 89 85 91 98 100

GFSWCAN_prec_cloud_033.txt.gz
Cloud_Cover
100 100 100 100 100 100 100 100 100 100 100 100 100 58 43 100 100 100 100 100 100 100 100 52 65 100 100 100 100 100 100 96 96 100 100 100 86 76 100 100 100 6 10 38 2 2 68 4 11 5 4 0 2 5
100 100 100 100 100 100 100 100 100 100 100 100 40 14 99 100 100 100 100 100 100 83 100 30 24 80 100 100 100 100 100 100 100 100 100 100 100 100 100 100 100 11 6 44 0 5 35 5 5 5 5 5 5 5
100 100 100 100 100 100 100 100 100 100 100 100 100 5 97 100 99 100 100 100 100 100 56 62 92 81 100 100 100 100 100 100 100 100 100 100 100 100 100 100 99 6 4 5 5 83 62 43 9 5 5 5 5 5
100 100 100 100 100 100 100 100 100 100 100 50 85 10 5 24 99 100 100 100 100 99 95 1 48 34 100 52 100 100 100 100 100 100 100 100 100 100 100 100 100 72 5 72 100 100 81 98 81 32 18 7 7 9
100 100 100 100 100 100 100 100 100 99 76 43 69 9 62 75 100 100 100 100 100 58 100 50 100 93 97 69 100 100 100 100 100 100 100 100 100 100 100 100 100 56 100 100 100 100 92 75 99 100 100 100 100 100
100 100 100 100 100 100 100 100 87 100 53 99 56 76 100 100 100 100 100 100 70 100 100 100 63 16 18 93 100 100 100 100 100 100 100 99 100 100 100 44 52 100 100 100 100 100 98 62 100 100 100 100 100 100
97 98 100 98 100 100 100 100 100 100 89 96 100 100 88 70 86 100 74 64 99 100 100 100 100 100 100 24 61 100 100 99 97 92 99 100 100 100 100 99 100 100 100 100 100 100 100 100 99 79 62 77 92 97
85 100 100 78 100 100 82 71 96 100 100 100 100 100 100 100 98 94 100 100 100 100 100 100 89 76 89 100 98 75 76 99 98 100 100 100 100 100 100 100 100 100 100 100 100 100 100 100 100 100 93 14 5 9
5 5 6 5 34 48 58 24 39 96 91 83 96 94 96 73 68 94 100 100 100 100 100 100 99 100 100 100 100 100 100 100 100 100 98 100 100 100 100 100 100 100 100 100 100 100 100 100 100 100 96 74 86 93
3 14 0 3 0 4 19 84 62 65 99 90 52 77 100 100 10 39 100 100 100 100 100 100 100 100 100 100 100 100 100 100 100 100 100 100 100 100 100 100 100 100 100 100 100 100 100 100 87 100 100 100 84 100
5 5 4 5 1 4 5 5 28 80 75 97 100 100 100 100 100 100 100 100 100 100 100 100 100 100 100 100 100 100 100 100 100 100 98 100 100 100 100 100 100 100 100 100 100 99 100 100 100 99 93 100 100 100
13 5 2 2 0 0 25 60 88 75 100 100 100 100 100 100 100 100 100 100 100 100 100 100 100 100 100 100 100 100 100 100 100 97 82 100 100 100 100 100 100 100 100 100 100 96 100 100 100 100 100 100 100 100
99 94 61 7 88 100 100 100 100 100 100 100 100 100 100 100 100 100 100 100 100 100 100 100 100 100 100 100 100 100 100 100 100 100 100 100 100 100 100 100 100 100 100 100 100 100 100 100 100 100 100 100 100 100
100 100 100 100 100 100 100 100 100 100 100 100 100 100 100 100 100 100 100 100 100 100 100 100 100 100 100 100 100 100 100 100 100 100 90 100 100 100 100 100 100 100 100 100 100 100 100 100 100 100 100 100 100 100
100 100 100 100 100 100 100 100 100 100 100 100 100 100 100 100 100 100 100 100 100 100 100 100 100 100 100 100 99 98 100 100 99 99 100 100 100 100 100 100 100 100 100 100 100 100 100 100 100 100 100 100 100 100
100 100 100 100 100 100 100 100 100 100 100 100 100 100 100 100 100 100 100 100 100 100 100 100 100 100 100 100 90 100 100 100 100 100 100 100 100 100 100 100 100 100 100 100 100 100 100 100 100 100 100 100 100 100
100 100 100 100 100 100 100 100 100 100 100 100 100 100 100 100 100 100 100 100 100 100 100 100 100 100 99 100 100 100 100 100 100 100 100 100 100 100 100 100 100 100 100 100 100 100 100 100 100 100 100 100 100 100
100 100 100 100 100 100 100 100 100 100 99 100 100 100 100 100 100 100 100 100 100 100 100 100 100 100 100 100 100 100 100 100 100 100 100 100 100 100 100 100 100 100 100 100 100 100 100 100 100 100 100 100 100 100
100 100 100 100 100 100 100 100 100 100 100 100 100 98 64 95 96 100 100 100 100 98 100 100 100 100 100 100 100 100 100 100 100 100 100 100 100 100 100 100 100 100 100 100 100 100 100 100 100 100 100 100 100 100
98 88 98 100 100 100 100 100 100 100 100 100 100 100 100 100 74 71 56 70 95 91 98 100 100 100 100 100 100 100 100 100 100 100 100 100 100 100 100 100 100 100 100 100 100 100 100 100 100 100 100 100 100 100
100 96 100 100 100 100 100 100 99 100 100 100 100 100 100 100 100 100 100 100 100 100 100 100 100 100 100 100 100 100 100 100 100 100 100 100 100 100 100 100 100 100 100 100 100 100 100 100 100 100 100 100 100 100
8 6 5 5 12 44 45 94 100 100 100 100 100 100 99 100 100 100 100 100 100 100 100 100 100 100 100 100 100 100 100 100 100 100 100 100 100 100 100 100 100 100 100 100 100 100 100 100 100 100 100 100 100 100
8 7 5 24 33 5 5 15 71 95 100 100 100 100 96 97 96 98 100 100 100 100 100 100 100 100 100 100 100 100 100 100 100 100 100 100 100 100 100 100 100 100 100 100 100 100 100 100 100 96 93 100 100 100
5 5 8 7 5 70 13 5 5 5 5 30 82 100 100 100 100 100 100 100 100 100 100 100 100 100 100 100 100 100 100 100 96 100 100 100 100 100 100 100 100 100 100 100 100 100 100 100 100 100 100 100 100 100
6 38 5 5 15 4 6 21 6 8 74 87 68 100 93 55 65 100 93 100 100 100 100 100 100 100 97 96 89 100 78 73 84 96 100 84 76 74 74 74 89 84 93 100 100 100 100 100 98 83 72 100 88 97
69 88 54 80 47 32 17 21 87 90 93 75 91 89 70 5 26 98 95 98 98 100 100 100 91 88 100 100 100 95 100 39 45 28 55 36 52 67 77 82 74 99 70 40 17 98 100 100 100 88 100 96 100 100
80 78 81 79 61 28 39 55 18 30 88 99 96 88 94 74 100 100 94 93 80 98 100 97 86 82 94 89 92 91 72 42 58 93 82 83 99 92 73 90 100 98 97 93 96 100 100 100 100 100 100 100 100 100
91 58 14 30 16 48 97 98 94 97 98 100 97 75 58 92 100 100 100 100 100 97 91 76 73 64 16 5 86 100 100 85 63 29 20 18 7 26 91 100 100 90 82 93 100 100 100 100 100 97 100 100 92 71
72 41 7 12 17 58 88 100 100 100 100 100 76 92 98 95 100 100 100 100 92 95 99 99 90 83 56 12 8 11 6 23 5 5 42 90 72 32 48 43 57 59 79 86 73 71 100 100 100 100 92 99 98 100
90 57 28 87 57 99 97 70 94 92 52 72 46 99 93 100 100 100 100 98 99 99 86 76 75 76 91 96 97 96 99 95 93 71 100 100 100 100 100 100 100 100 100 100 87 44 78 74 91 84 90 86 93 100
43 31 69 69 89 97 100 44 48 24 7 51 76 92 78 87 98 97 95 98 100 97 95 74 65 97 100 100 100 95 99 90 97 99 95 96 100 99 100 95 98 100 100 100 100 100 100 100 100 100 90 91 92 100
46 92 61 89 100 100 100 100 82 83 98 80 100 96 92 76 92 96 99 100 100 88 98 100 100 96 98 98 97 92 92 96 62 83 100 100 100 100 100 100 100 100 100 100 100 100 100 100 100 98 94 96 75 100
49 8 70 66 91 94 97 98 100 100 97 100 100 100 92 74 84 100 97 82 33 5 6 94 100 100 100 100 76 16 59 69 96 100 100 100 100 100 89 100 100 97 99 100 100 100 100 100 100 100 97 69 64 83

GFSWCAN_prec_cloud_036.txt.gz
Cloud_Cover
70 85 30 37 59 85 100 100 100 100 100 100 100 100 100 100 88 66 4 100 96 100 99 98 13 5 100 100 100 100 100 100 100 26 30 91 100 94 100 100 100 100 94 10 52 2 5 2 0 0 0 0 0 3
91 100 100 100 100 100 100 100 100 100 100 100 100 100 100 100 76 98 8 76 86 100 95 100 98 89 89 100 100 100 100 100 100 100 90 69 100 79 100 100 100 100 100 94 26 5 4 98 5 0 0 4 5 5
100 100 100 100 100 100 100 100 100 100 100 100 100 100 100 100 70 20 46 100 100 100 100 100 69 57 82 100 100 100 100 100 100 100 100 100 100 100 100 100 100 100 100 30 16 41 5 64 2 0 4 5 5 5
100 100 100 100 100 100 100 100 100 100 100 100 100 100 100 100 100 91 26 94 100 100 100 100 91 89 34 100 100 100 100 100 100 100 100 99 100 100 100 100 100 91 22 99 80 99 22 5 9 49 90 92 45 5
100 100 100 100 100 100 100 100 100 100 100 100 100 100 100 100 99 10 95 100 100 100 100 99 64 4 63 100 100 100 100 100 100 100 100 100 100 100 100 100 100 97 100 100 100 87 14 99 100 100 100 100 100 61
100 100 100 100 100 100 100 100 100 100 100 100 100 100 100 100 100 100 100 100 99 100 100 100 81 20 93 100 100 100 100 100 100 100 100 100 100 100 100 100 100 100 100 100 100 100 100 100 100 100 100 100 100 100
100 100 100 100 100 100 100 100 100 100 100 100 100 100 100 84 98 62 100 77 40 43 100 100 60 93 93 100 91 33 100 96 100 100 100 100 100 100 100 100 100 100 100 100 100 100 100 100 100 100 100 100 100 100
69 100 100 100 100 100 100 100 100 100 98 64 46 40 68 100 94 98 84 100 100 100 100 94 100 10 54 100 100 99 72 72 100 100 100 100 100 100 100 100 100 100 100 100 100 100 100 100 100 100 100 100 100 94
70 75 58 100 100 100 84 23 23 10 5 69 93 100 100 100 79 7 39 75 54 80 32 98 79 98 100 100 100 87 23 91 100 100 100 100 100 100 100 100 100 100 100 100 100 100 100 100 100 100 100 100 100 74
5 5 57 100 90 100 100 100 100 89 100 88 35 41 90 0 47 33 100 100 100 76 95 100 100 100 100 100 100 93 89 98 99 100 100 100 100 100 100 100 100 100 100 100 100 100 100 100 100 100 100 80 100 95
12 4 31 50 65 38 36 63 95 75 10 16 15 77 49 100 100 100 100 100 100 100 100 100 100 100 100 100 100 100 97 86 98 100 100 100 100 100 100 100 100 100 100 100 100 100 100 100 100 100 100 100 100 100
0 0 2 5 26 26 36 57 77 93 64 100 100 100 99 100 100 100 100 100 100 100 100 100 100 100 100 100 100 100 100 100 96 100 100 100 100 100 100 100 100 100 100 100 100 98 84 100 100 100 100 100 100 100
100 89 95 100 98 100 100 100 97 98 100 100 100 100 100 100 100 100 100 100 100 100 100 100 100 100 100 100 100 100 100 100 100 100 100 100 100 100 100 100 100 100 87 94 93 100 100 100 100 100 100 100 100 100
100 100 49 100 100 100 100 100 100 100 100 100 100 100 100 100 100 100 100 100 100 100 100 100 100 100 100 100 100 100 100 100 100 100 100 100 100 100 100 100 100 100 100 100 100 100 100 100 100 100 100 100 100 100
100 100 100 100 100 100 100 100 100 100 100 97 100 100 100 100 100 100 100 100 100 100 100 100 100 100 100 100 100 100 100 100 100 100 100 100 100 100 100 100 100 100 100 100 100 100 100 100 100 100 100 100 100 100
100 100 100 100 100 100 100 100 100 100 94 100 100 100 100 100 100 100 100 100 100 100 100 100 100 100 100 100 100 100 100 100 100 100 100 100 100 100 100 100 100 100 100 100 100 100 100 100 100 100 100 100 100 100
100 100 100 100 100 100 100 100 100 100 99 100 100 100 100 100 100 100 100 100 100 100 100 100 100 100 100 100 100 100 100 100 100 100 100 100 100 100 100 100 100 100 100 100 100 100 100 100 100 100 100 100 100 100
100 100 100 100 100 100 100 100 79 98 100 100 100 100 100 100 100 100 100 100 100 100 100 100 100 96 100 100 100 100 100 100 100 100 100 100 100 100 100 100 100 100 100 100 100 100 100 100 100 100 100 100 100 100
100 100 100 100 100 100 100 100 100 73 100 100 100 100 97 100 100 87 88 100 100 100 100 98 99 100 100 100 100 100 100 100 100 100 100 100 100 100 100 100 100 100 100 100 100 100 100 100 100 100 100 100 100 100
100 100 100 100 100 100 100 100 100 98 100 100 100 99 100 91 95 100 98 100 96 70 98 100 100 100 100 100 100 100 100 100 100 100 100 100 100 100 100 100 100 100 100 100 100 100 100 100 100 100 100 100 100 100
100 100 100 100 100 100 100 100 100 100 100 100 100 100 99 100 100 93 90 87 93 100 100 100 100 100 100 100 100 100 100 100 100 100 100 100 100 100 100 100 100 100 100 100 100 100 100 100 100 100 100 100 100 100
100 100 100 100 100 100 100 100 100 100 100 100 100 100 99 100 100 100 99 100 100 100 100 100 100 100 100 100 100 100 100 100 100 100 100 100 100 100 100 100 100 100 100 100 100 100 100 100 100 100 100 100 100 100
82 64 56 42 78 70 59 41 85 97 91 91 96 99 100 100 94 50 96 100 100 100 100 100 100 100 100 100 100 100 100 100 100 100 100 100 100 100 100 100 100 100 100 100 100 100 100 100 100 100 98 100 100 100
8 6 16 7 5 41 10 5 5 6 12 9 40 76 94 80 15 24 89 94 100 100 100 99 95 94 98 100 100 100 100 100 100 100 100 100 100 100 100 100 100 100 100 100 100 97 100 100 98 100 100 97 94 100
65 67 56 22 5 9 6 29 23 13 99 86 76 100 91 11 53 63 90 100 100 100 100 100 100 81 94 79 90 100 62 16 76 82 65 82 63 63 52 96 100 90 6 5 30 55 71 100 97 92 66 100 100 100
75 86 68 63 49 39 85 88 99 100 96 82 90 98 63 5 24 99 93 98 100 99 99 97 94 86 100 100 100 96 98 12 5 63 100 48 19 18 71 77 87 99 100 100 99 100 100 100 100 100 100 95 100 100
98 77 88 88 59 18 81 72 32 19 85 100 93 91 68 84 100 100 97 98 91 99 96 84 56 25 80 98 97 100 87 41 41 92 95 97 100 98 82 96 100 100 100 89 93 100 100 100 100 100 100 100 100 100
83 6 5 55 49 44 100 96 87 99 97 99 55 83 59 78 94 100 99 100 89 83 76 69 46 49 90 99 100 99 92 88 65 23 5 5 8 28 46 59 91 94 85 88 100 100 100 100 100 100 100 100 99 66
91 73 8 79 19 56 94 100 100 100 100 87 46 97 98 98 99 98 100 100 94 91 88 77 82 84 54 32 56 50 7 23 5 6 77 100 94 44 91 100 100 100 100 91 57 83 86 96 96 98 95 96 84 77
28 68 71 59 73 100 100 81 95 59 21 79 43 96 91 100 100 100 100 98 93 96 100 96 81 79 99 89 100 91 100 93 67 26 100 100 100 100 100 100 100 97 95 100 100 83 96 92 84 71 47 9 5 45
38 32 37 77 94 97 72 37 32 8 7 34 30 47 84 98 100 100 93 86 87 76 88 97 100 100 100 100 100 97 79 39 100 100 100 100 100 100 100 100 100 100 100 100 100 100 100 100 100 100 96 37 6 45
55 94 61 74 100 97 95 97 97 86 84 84 98 92 87 21 94 100 100 100 94 57 86 100 100 94 93 92 99 97 32 91 100 100 100 100 100 100 100 100 100 100 100 100 100 100 100 100 100 100 100 100 51 52
71 20 73 90 87 97 96 100 94 90 80 90 94 93 78 36 68 93 99 76 6 8 30 99 100 92 96 65 42 88 89 94 97 100 100 100 100 100 88 100 99 91 100 100 100 100 100 100 100 100 100 100 97 68

GFSWCAN_prec_cloud_039.txt.gz
Cloud_Cover
92 51 100 100 100 100 100 100 61 77 100 100 100 100 100 100 100 100 68 92 46 100 44 100 91 77 6 100 100 100 100 100 100 54 47 5 60 88 76 100 100 100 100 97 60 100 100 95 5 2 0 0 5 1
100 100 90 100 100 100 100 100 100 100 100 100 100 100 100 100 100 100 100 66 6 43 100 100 100 23 85 99 100 100 100 100 100 100 100 87 65 100 72 100 100 100 100 100 96 5 48 100 28 5 1 0 0 0
100 100 100 89 54 100 100 100 100 100 100 100 100 100 100 100 100 100 100 60 74 91 80 88 85 95 64 40 100 100 100 100 100 100 100 78 100 100 100 100 100 100 100 100 52 5 5 13 90 5 4 29 0 0
100 100 100 100 99 100 100 100 100 100 100 100 100 100 100 100 100 100 100 87 11 91 99 84 100 97 100 75 100 100 100 100 100 100 100 86 100 100 100 100 100 100 100 100 28 87 43 98 31 8 98 100 17 5
100 100 100 100 100 100 100 100 100 100 100 100 100 100 100 100 100 100 100 99 23 45 100 98 100 100 99 57 100 100 100 100 100 100 100 100 100 100 100 100 98 100 100 100 98 100 93 100 100 100 100 100 100 62
100 100 100 100 100 100 100 100 100 100 100 100 100 100 100 100 100 100 88 12 7 43 100 98 44 74 96 71 100 100 100 100 90 100 100 100 100 100 100 100 100 100 100 100 100 100 100 100 100 100 100 100 100 100
100 100 100 100 100 100 100 100 100 100 100 100 100 100 100 100 100 100 97 85 69 100 82 100 87 4 7 100 100 100 100 63 46 100 100 100 100 100 100 100 100 100 100 100 100 100 100 100 100 100 100 100 100 100
100 100 100 100 100 100 100 100 100 100 100 100 100 100 100 100 100 100 92 100 93 100 18 99 100 100 100 100 100 100 100 78 66 57 90 100 100 100 100 100 100 100 100 100 100 100 100 100 100 100 100 100 100 100
100 100 100 100 100 100 100 100 100 100 100 100 100 100 99 100 100 70 97 86 100 100 82 85 100 100 58 100 100 100 100 100 86 100 97 100 100 100 100 100 100 100 100 100 100 100 100 100 100 100 100 100 100 100
100 100 100 100 100 100 100 100 100 100 100 100 100 100 100 98 99 82 81 97 100 100 100 100 100 100 86 100 100 88 100 100 100 99 100 100 100 100 100 100 100 100 100 100 100 100 100 100 100 100 100 100 90 100
100 98 100 63 100 61 43 39 61 99 100 100 100 95 54 76 40 46 100 100 100 100 94 76 91 100 100 100 98 89 100 100 100 100 100 100 100 100 100 100 100 100 100 100 100 100 100 99 100 83 100 100 100 100
94 100 100 100 100 63 85 94 100 100 100 20 71 11 100 98 88 94 100 100 100 100 99 100 100 100 100 99 80 98 100 100 94 98 81 100 100 100 100 90 100 100 100 100 100 100 100 100 100 100 100 100 100 100
73 90 13 95 100 100 100 100 100 100 100 69 39 79 94 100 100 100 100 100 100 100 100 100 100 99 100 64 85 100 100 100 100 100 100 100 100 100 100 100 100 100 100 100 100 100 100 100 100 100 100 100 100 100
100 100 100 100 100 100 100 100 98 100 100 100 100 100 100 100 100 100 100 100 100 100 100 100 100 100 100 100 100 100 100 100 100 100 100 100 100 100 100 100 100 100 100 100 100 100 100 100 100 100 100 100 100 100
100 100 100 100 100 100 100 100 100 100 100 100 100 100 100 100 100 100 100 100 100 100 100 100 100 100 100 100 100 100 100 100 100 100 100 100 100 100 100 100 100 100 100 100 100 100 100 100 100 100 100 100 100 100
100 100 100 100 100 100 100 100 100 100 100 100 100 100 100 100 100 100 100 100 100 100 100 100 100 100 100 100 100 100 100 100 100 100 100 100 100 100 100 100 100 100 100 100 100 100 100 100 100 100 100 100 100 100
100 100 100 100 100 100 100 100 100 100 100 100 100 100 100 100 100 100 100 100 100 100 100 100 100 100 100 100 100 100 100 100 100 100 100 100 100 100 100 100 100 100 100 100 100 100 100 100 100 100 100 100 100 100
100 100 100 100 100 100 100 100 100 100 100 100 100 100 100 100 100 100 100 100 100 100 100 100 100 100 100 100 100 100 100 100 100 100 100 100 100 100 100 100 100 100 100 100 100 100 100 100 100 100 100 100 100 100
100 100 100 100 100 100 100 100 100 100 100 100 100 100 100 100 100 100 100 100 100 100 100 100 100 100 100 100 100 100 100 100 100 100 100 100 100 100 100 100 100 100 100 100 100 100 100 100 100 100 100 100 100 100
100 100 100 100 100 100 100 100 100 100 100 100 100 100 100 100 100 100 100 100 100 100 100 100 100 100 100 100 100 100 100 100 100 100 100 100 100 100 100 100 100 100 100 100 100 100 100 100 100 100 100 100 100 100
100 100 100 100 100 100 100 100 96 100 98 100 100 100 91 87 89 94 92 81 82 100 100 100 100 100 100 100 100 100 100 100 100 100 100 100 100 100 100 100 100 100 100 100 100 100 100 100 100 100 100 100 100 100
100 100 100 100 100 100 100 95 94 93 94 93 76 75 85 99 80 69 31 29 99 100 100 100 100 100 100 100 100 100 100 100 100 100 100 100 98 94 100 100 100 100 100 100 100 100 100 100 100 100 100 100 100 100
100 100 100 100 100 100 92 91 84 82 92 84 84 63 65 69 57 36 53 89 100 100 100 100 100 100 100 100 100 99 100 99 100 100 100 100 100 100 100 100 100 100 100 100 100 100 100 100 100 100 100 100 100 100
100 100 100 100 100 100 100 99 78 58 28 47 30 94 88 67 13 5 99 100 100 100 100 100 100 100 100 100 99 100 100 92 100 100 100 100 100 100 100 100 100 100 100 100 100 100 100 100 100 100 100 100 86 68
82 82 72 60 16 6 20 74 96 58 98 94 76 100 78 5 31 68 90 100 100 100 100 100 100 100 87 83 98 84 5 5 5 9 27 7 53 77 91 100 100 100 96 76 91 79 80 79 81 70 61 80 59 76
69 87 67 89 86 37 88 88 100 100 94 78 88 84 7 5 27 98 100 98 99 100 100 100 98 91 100 100 99 95 98 27 5 49 100 93 59 29 55 58 59 98 100 100 100 98 94 96 100 98 72 70 93 100
77 70 75 94 35 40 98 65 19 12 77 92 89 67 25 83 100 100 98 91 82 85 74 75 53 73 100 100 100 99 54 5 25 76 100 100 100 95 71 92 99 100 96 92 99 100 100 100 100 100 95 82 87 100
99 99 100 100 99 96 99 96 92 95 97 98 6 84 58 43 88 95 99 97 80 91 86 96 100 88 96 100 98 87 89 46 5 5 7 14 63 87 94 98 97 100 84 58 86 98 100 100 100 100 100 99 88 67
100 100 96 96 45 56 96 100 100 100 100 56 47 100 100 100 100 96 100 100 84 85 88 70 85 38 42 66 80 64 7 5 5 5 11 64 72 33 85 96 100 100 100 85 59 88 98 72 96 5 8 22 22 46
66 68 78 62 62 100 98 80 87 49 37 66 38 99 96 100 100 100 100 97 94 87 96 92 93 13 52 18 93 67 98 97 48 22 94 100 100 95 100 100 100 100 100 100 100 90 92 50 58 31 35 5 11 7
81 49 50 45 92 96 8 36 60 25 20 28 45 49 89 93 100 98 81 76 91 94 86 100 100 100 58 95 89 67 12 34 100 100 100 100 100 100 100 100 100 100 100 100 100 100 100 99 100 100 74 52 9 51
75 95 61 69 100 100 100 99 99 89 99 72 100 97 91 18 88 94 90 65 62 26 86 100 100 95 94 100 100 98 72 94 100 100 100 100 100 100 100 98 100 100 79 98 100 100 100 100 99 98 99 82 61 54
77 8 78 94 89 97 98 98 77 84 89 97 98 100 83 21 39 62 96 60 10 5 70 100 95 100 94 68 65 98 85 92 100 100 100 100 100 100 97 97 100 65 56 89 100 97 67 86 70 66 56 48 60 55

GFSWCAN_prec_cloud_042.txt.gz
Cloud_Cover
100 98 5 11 98 100 68 87 100 100 100 100 32 100 100 100 100 100 100 100 100 100 100 23 20 100 100 100 37 14 100 99 100 100 100 99 100 100 100 100 100 100 100 100 100 100 100 100 95 61 10 0 5 6
100 96 25 60 99 100 100 97 100 100 100 100 100 100 100 100 100 100 100 100 100 100 91 72 94 97 100 84 6 26 19 100 100 100 100 37 74 100 100 100 100 100 100 100 100 100 100 100 100 100 5 5 5 78
80 5 44 9 100 91 98 100 100 100 39 100 100 100 100 100 100 100 100 100 100 100 24 30 100 100 96 87 67 11 87 100 100 100 100 100 100 100 100 100 100 100 100 100 100 100 100 100 100 7 5 5 65 100
100 100 100 97 100 80 45 17 85 100 100 100 100 100 100 100 100 100 100 100 100 87 92 100 53 98 100 100 37 18 100 100 100 100 100 74 82 91 100 100 100 100 96 100 100 100 100 100 91 16 5 42 100 100
100 100 100 100 100 99 100 100 100 100 100 100 100 100 100 100 100 100 100 100 100 100 41 100 54 100 100 50 72 15 100 100 100 100 100 95 52 91 100 100 100 100 100 100 100 100 100 100 34 32 81 100 100 100
100 100 100 100 100 100 100 100 100 100 100 100 100 100 100 100 100 99 100 98 72 76 16 100 70 87 96 38 19 10 100 100 100 100 100 100 100 100 94 63 100 100 100 100 100 100 100 93 98 64 77 100 60 100
100 100 100 100 100 100 100 100 100 100 100 100 100 100 100 100 100 100 100 100 100 5 85 52 92 100 99 86 100 96 100 100 84 18 76 81 92 100 100 100 100 100 100 100 100 100 100 100 100 100 100 88 98 35
100 100 100 100 100 100 100 100 100 100 100 100 100 100 100 100 100 100 100 100 98 31 100 100 100 100 100 98 100 98 97 100 58 100 100 8 20 87 100 100 100 100 100 100 100 100 100 100 100 100 100 100 88 88
100 100 100 100 100 100 100 100 100 100 100 100 100 100 72 100 100 100 100 100 100 48 99 100 100 100 99 100 100 100 71 100 99 93 96 45 48 100 100 100 100 100 100 100 100 100 100 100 100 100 100 100 100 100
100 100 100 100 100 100 100 100 100 99 100 100 100 100 100 100 100 100 100 100 100 73 18 47 75 100 100 100 100 100 100 100 100 100 61 89 96 100 100 100 100 100 100 100 100 100 100 100 100 100 100 100 100 100
100 100 100 100 100 100 100 100 100 100 100 100 100 100 95 60 99 84 100 100 100 100 100 100 100 100 100 100 100 100 100 100 100 100 100 100 100 100 100 100 100 100 100 100 100 100 100 100 100 100 100 100 100 100
100 77 22 53 67 89 93 37 47 55 100 100 66 27 36 56 49 83 100 100 100 75 100 100 100 100 100 100 95 97 100 100 100 100 100 100 100 100 100 100 100 100 100 100 100 100 100 100 100 100 100 100 100 100
93 5 5 5 5 5 11 79 99 100 100 100 72 94 100 100 100 97 93 100 100 100 100 100 100 100 90 53 84 99 100 100 100 100 100 100 100 100 100 100 100 100 100 100 100 100 100 100 100 100 100 100 100 100
100 42 15 70 100 100 100 100 100 78 60 100 100 100 100 100 100 100 100 100 100 100 100 100 100 100 100 100 100 100 100 100 100 100 100 100 100 100 100 100 100 100 100 100 100 100 100 100 100 100 100 100 100 100
98 100 100 100 100 100 100 100 100 100 96 98 100 100 100 100 100 100 100 100 100 100 100 100 100 100 100 100 100 100 100 100 100 100 100 100 100 100 100 100 100 100 100 100 100 100 100 100 100 100 100 100 100 100
100 100 100 100 100 100 100 100 100 100 100 100 100 100 100 100 100 100 100 100 100 100 100 100 100 100 100 100 100 100 100 100 100 100 100 100 100 100 100 100 100 100 100 100 100 100 100 100 100 100 100 100 100 100
100 100 100 100 100 100 100 100 100 100 100 100 100 100 100 100 100 100 100 100 100 100 100 100 100 100 100 100 100 100 100 100 100 100 100 100 100 100 100 100 100 100 100 100 100 100 100 100 100 100 100 100 100 100
100 100 100 100 100 100 100 100 100 100 100 100 100 100 100 100 100 100 100 100 100 100 100 100 100 100 100 100 100 100 100 100 100 100 100 100 100 100 100 100 100 100 100 100 100 100 100 100 100 100 100 100 100 100
100 100 100 100 100 100 100 100 100 100 100 100 100 100 100 100 100 100 100 100 100 100 100 100 100 100 100 100 100 100 100 100 100 100 100 100 100 100 100 100 100 100 100 100 100 100 100 100 100 100 100 100 100 100
100 100 100 100 100 100 100 100 100 100 100 100 100 100 100 100 99 100 100 100 100 100 100 100 100 100 100 100 100 100 100 100 100 100 100 100 100 100 100 100 100 100 100 100 100 100 100 100 100 100 100 100 100 100
100 100 100 100 100 100 100 100 100 100 98 100 100 94 100 88 76 69 86 100 100 100 100 100 100 100 100 100 100 100 100 100 100 100 100 100 100 100 100 100 100 100 100 100 100 100 100 100 100 100 100 100 100 100
100 100 100 100 100 100 100 100 100 100 100 100 98 99 100 94 97 47 77 100 100 100 100 100 100 100 100 100 100 100 100 100 100 100 100 100 100 100 100 100 100 100 100 100 100 100 100 100 100 100 100 100 100 100
100 100 100 100 100 100 83 100 97 83 80 87 74 54 62 61 36 15 94 100 100 100 100 100 100 100 100 100 100 100 99 94 35 41 81 100 98 100 100 100 100 100 100 100 100 100 100 100 100 100 100 100 100 100
100 100 98 93 62 44 6 5 5 5 5 71 82 99 92 55 7 44 100 100 100 100 100 100 100 100 99 95 86 88 7 5 9 15 5 5 5 5 5 37 69 76 81 71 80 86 88 99 65 86 89 92 94 99
100 100 100 98 88 80 45 80 69 46 96 93 100 96 85 9 64 97 100 100 100 100 100 100 100 100 99 99 79 35 5 5 5 5 5 5 5 6 5 17 65 80 100 95 96 99 100 100 100 100 100 100 92 100
100 100 87 89 86 61 87 92 98 97 100 99 100 43 5 5 81 100 100 100 100 100 100 100 100 100 100 100 100 94 83 12 5 5 6 5 5 17 5 5 15 68 100 100 100 100 100 100 100 100 100 100 100 100
96 92 85 94 96 73 89 76 59 61 100 100 96 14 5 39 100 100 100 100 100 100 100 100 100 100 100 100 99 74 5 5 5 11 59 58 74 83 83 63 89 100 100 100 100 100 100 100 100 100 100 100 100 100
57 5 34 70 56 72 68 79 97 100 100 88 7 71 35 82 100 100 100 100 100 100 100 100 100 100 100 100 100 100 100 79 93 78 100 100 100 100 100 100 99 98 95 100 100 100 100 100 100 100 100 100 100 100
76 67 8 36 45 96 100 100 100 100 100 84 66 100 100 100 100 100 100 100 100 100 100 84 84 97 93 85 96 92 75 5 2 0 1 5 75 100 100 100 100 100 100 100 74 100 100 100 100 100 100 100 100 100
81 67 29 54 71 98 100 100 100 100 100 100 100 100 100 100 100 100 100 100 100 100 100 100 92 87 68 92 99 99 84 53 69 45 17 56 100 100 100 100 100 100 100 100 99 98 62 80 100 100 94 100 100 91
100 100 100 99 95 100 94 83 63 42 88 100 100 99 100 100 100 100 100 99 88 85 90 86 92 95 95 87 65 10 46 94 84 98 95 100 100 100 100 100 100 100 100 100 100 100 91 94 100 100 97 89 90 94
100 96 82 97 100 100 100 100 96 81 93 99 99 100 100 100 100 100 100 100 100 100 67 82 100 100 100 80 43 65 91 83 100 100 100 100 100 100 100 100 100 100 100 100 100 100 98 88 96 91 92 95 89 90
100 100 100 100 100 100 100 100 89 99 100 100 100 100 99 88 82 100 99 85 91 52 40 86 100 100 71 60 81 93 42 92 99 100 100 100 100 99 91 100 100 100 100 100 99 98 81 81 85 82 88 92 96 95

GFSWCAN_prec_cloud_045.txt.gz
Cloud_Cover
100 40 16 5 5 55 56 100 96 86 100 42 100 100 100 100 62 100 100 100 100 100 100 100 100 100 89 83 100 5 100 100 98 100 24 65 27 8 100 100 100 100 100 100 100 78 67 100 100 100 100 37 27 100
100 100 5 48 24 100 82 100 88 32 100 95 100 100 100 100 100 100 100 100 100 100 100 100 100 100 100 97 72 14 99 8 18 93 13 98 95 87 98 100 100 100 100 100 100 100 100 100 100 100 100 100 5 80
8 100 5 98 100 100 100 100 100 100 100 100 100 100 100 100 100 100 100 100 100 100 100 100 100 100 94 94 28 24 90 100 96 100 100 100 100 100 100 100 100 100 100 100 100 100 100 100 100 100 100 98 98 100
88 96 21 94 100 100 100 100 100 100 100 100 100 100 100 100 100 100 100 100 100 100 100 100 100 100 18 98 84 72 86 99 100 100 77 48 65 80 100 100 100 99 100 100 100 100 100 100 100 100 100 100 100 100
100 100 100 8 100 96 96 99 100 90 78 40 36 86 100 100 100 100 100 100 100 100 100 100 98 66 25 92 100 84 90 21 100 78 56 5 67 11 6 100 100 97 88 100 100 100 100 100 100 100 100 100 100 100
100 98 100 95 75 10 6 61 100 100 100 100 100 100 100 100 100 100 100 100 100 100 100 100 99 100 98 73 98 69 100 49 97 7 5 75 93 6 8 98 100 100 100 100 100 100 100 100 100 100 100 100 100 100
100 100 100 100 100 98 100 100 100 100 100 100 100 100 100 100 100 100 100 100 100 100 100 93 59 40 64 100 59 61 62 16 3 37 67 55 19 70 100 88 100 100 100 100 100 100 100 100 100 100 100 84 100 100
100 100 100 100 100 100 100 100 100 100 100 100 100 100 100 100 100 100 100 100 100 100 56 41 25 23 43 100 100 91 81 68 23 100 100 72 47 100 100 100 100 100 100 100 100 100 100 100 100 100 100 100 100 100
100 100 100 100 100 100 100 100 100 100 100 100 100 100 100 100 100 100 100 100 100 98 79 10 84 100 100 100 99 62 96 61 50 5 12 78 42 100 100 100 100 100 100 100 100 100 100 100 100 100 100 100 100 100
100 100 100 100 100 100 100 100 100 100 100 100 100 100 100 100 100 100 100 100 76 21 8 24 99 100 100 100 100 100 100 96 59 98 23 80 87 100 100 100 100 100 100 100 100 100 100 100 100 100 100 100 100 100
100 100 100 100 100 100 100 100 100 100 100 100 100 100 100 100 100 100 100 100 100 89 85 100 100 100 100 100 100 100 96 98 100 93 100 84 99 100 100 100 100 100 100 100 100 100 100 100 79 100 100 100 100 100
100 98 97 98 79 100 99 100 100 97 100 100 100 100 100 100 100 93 100 100 96 99 100 100 100 100 84 98 100 100 100 100 100 100 100 100 100 100 100 100 100 100 100 100 100 100 100 100 100 100 100 100 100 100
80 100 100 45 99 82 100 100 100 100 43 31 89 98 71 96 97 99 100 100 100 100 100 100 100 100 100 100 100 99 99 100 100 100 100 100 100 100 100 100 100 100 100 100 100 100 100 100 100 100 100 100 100 100
18 6 17 99 35 77 100 100 100 100 100 100 100 100 100 100 100 100 100 100 100 100 100 100 100 100 100 100 100 100 100 100 100 100 100 100 100 100 100 100 100 100 100 100 100 100 100 100 100 100 100 100 100 100
100 100 100 100 100 100 100 100 100 100 100 100 100 100 100 100 93 96 100 100 100 100 100 100 100 100 100 100 100 99 100 100 100 100 100 100 100 100 100 100 100 100 100 100 100 100 100 100 100 100 100 100 100 100
100 100 100 100 100 100 100 100 100 100 100 100 100 100 100 100 100 100 100 97 100 100 100 100 100 100 100 100 100 100 100 100 100 100 100 100 100 100 100 100 100 100 100 100 100 100 100 100 100 100 100 100 100 100
100 100 100 100 100 100 100 100 100 100 100 100 100 100 100 100 100 100 100 100 100 100 100 100 100 100 100 100 100 100 100 100 100 100 100 100 100 100 100 100 100 100 100 100 100 100 100 100 100 100 100 100 100 100
100 100 100 100 100 100 100 100 100 100 100 100 100 100 100 100 100 100 100 100 100 100 100 100 100 100 100 100 100 100 100 100 100 100 100 100 100 100 100 100 100 100 100 100 100 100 100 100 100 100 100 100 100 100
100 100 100 100 100 100 100 100 100 100 100 100 100 100 100 100 100 100 100 100 100 100 100 100 100 100 100 100 100 100 100 100 100 100 100 100 100 100 100 100 100 100 100 100 100 100 100 100 100 100 100 100 100 100
100 100 100 100 100 100 100 100 100 100 100 100 100 100 100 100 100 100 100 100 100 100 100 100 100 100 100 100 100 100 100 100 100 100 100 100 100 100 100 100 100 100 100 100 100 100 100 100 100 100 100 100 100 100
100 100 100 100 100 100 100 100 100 100 100 100 100 100 100 100 100 100 100 100 100 100 100 100 100 100 100 100 100 100 100 100 100 100 100 100 100 100 100 100 100 100 100 100 100 100 100 100 100 100 100 100 100 100
100 100 100 100 100 100 100 100 100 100 84 89 63 82 95 93 99 93 90 99 100 100 100 100 100 100 100 100 100 100 100 100 100 100 100 100 100 100 100 100 99 99 100 100 100 100 100 99 98 99 100 100 100 100
89 100 100 100 100 100 100 100 100 97 98 95 95 90 95 99 80 49 96 100 100 100 100 100 100 100 100 100 99 96 100 100 99 96 86 76 82 94 77 83 92 90 79 73 76 94 100 73 98 96 100 100 100 100
100 100 100 100 100 99 69 82 42 80 83 96 94 96 90 91 82 97 100 100 100 100 100 100 100 100 99 89 96 97 76 62 92 100 91 39 29 8 15 31 77 99 100 100 100 100 100 100 100 100 100 100 100 100
100 100 99 52 13 5 6 76 92 64 100 93 100 96 99 99 100 100 100 100 100 100 100 100 100 100 100 100 100 100 79 100 87 72 88 100 100 100 100 100 85 87 100 100 100 100 100 100 100 100 100 100 100 100
100 100 100 100 88 67 71 79 87 95 96 100 100 95 98 100 100 100 100 100 100 100 100 100 100 100 100 100 100 100 97 92 61 30 5 5 21 82 71 52 81 99 100 100 100 100 100 100 100 100 100 100 100 100
100 100 100 99 96 92 94 97 87 90 100 100 100 100 88 92 100 100 100 100 100 100 100 100 100 100 100 100 96 77 30 5 6 14 20 5 33 73 96 100 98 100 100 100 100 100 100 100 100 100 100 100 100 100
100 100 100 100 100 95 97 91 100 100 100 86 79 98 98 98 100 100 100 100 100 100 100 100 100 100 100 100 100 100 99 86 89 88 100 100 100 100 100 100 85 93 100 100 100 100 100 100 100 100 100 100 100 100
100 100 100 100 100 98 100 100 100 100 100 100 99 100 100 100 100 100 100 100 100 100 100 100 100 100 100 100 100 100 99 84 67 3 5 80 100 100 100 100 100 100 100 100 100 100 100 100 100 100 100 100 100 100
98 99 59 42 75 100 100 100 100 100 100 99 98 98 100 100 100 100 100 100 100 100 100 100 100 100 100 100 100 100 100 91 99 100 100 100 100 100 100 100 100 100 100 100 100 100 100 100 100 100 100 100 100 100
93 53 43 65 100 100 100 100 100 100 100 100 100 100 100 100 100 100 100 100 100 100 100 100 100 100 100 100 100 100 100 100 88 95 89 100 100 100 100 100 100 100 100 100 100 100 100 100 100 100 100 100 100 100
100 84 51 80 100 100 100 100 100 100 100 100 100 100 100 100 100 100 100 100 100 100 100 100 100 100 100 100 94 70 28 94 100 100 100 100 100 100 100 100 100 100 100 100 100 100 100 100 100 100 100 100 100 100
100 100 100 100 100 100 100 98 91 99 100 100 100 100 100 100 100 100 100 100 100 100 100 100 100 100 100 100 97 94 44 98 84 76 91 98 99 81 83 100 100 100 100 100 100 100 100 100 100 100 100 100 100 100

GFSWCAN_prec_cloud_048.txt.gz
Cloud_Cover
97 100 97 5 5 5 5 5 5 5 78 100 100 100 100 82 100 100 100 100 100 100 100 87 100 100 98 100 27 33 100 64 100 100 69 100 100 93 96 86 28 100 100 100 99 100 98 100 100 100 100 100 97 5
100 100 5 5 5 11 93 100 29 73 85 100 100 100 100 100 100 100 100 100 100 100 100 56 99 100 100 100 100 100 72 24 63 100 89 100 100 72 35 74 65 99 100 93 100 25 70 100 100 100 100 100 86 72
100 90 5 18 57 97 94 99 96 100 100 100 89 98 100 100 100 100 100 100 100 100 91 100 100 100 100 100 100 100 32 2 5 0 20 100 96 18 90 5 99 100 100 53 97 59 88 100 100 100 100 97 100 91
83 78 22 100 99 100 100 100 98 81 100 96 100 100 100 100 100 100 100 100 100 100 100 100 100 100 100 100 100 100 96 80 92 100 100 100 100 46 5 96 93 100 100 97 32 100 100 100 100 100 100 100 100 100
100 99 99 36 51 100 100 100 100 100 100 92 99 100 100 100 100 100 100 100 100 100 100 100 100 100 93 47 90 100 97 9 89 96 11 8 94 100 96 25 18 99 40 39 97 100 100 100 100 100 100 100 100 100
100 100 6 8 100 100 100 100 100 100 100 72 100 100 100 100 100 100 100 100 100 100 100 100 39 24 90 74 36 100 94 28 99 100 100 37 48 95 88 0 59 100 100 100 100 100 100 100 100 100 100 100 100 100
100 100 91 100 100 100 94 90 97 100 100 100 100 100 100 100 100 100 100 100 100 100 100 85 92 100 100 100 100 100 100 37 45 16 98 16 21 82 65 8 100 100 100 100 100 100 84 91 92 100 100 100 100 100
100 100 100 96 100 100 100 37 53 84 77 93 100 100 100 100 99 100 100 100 100 100 100 100 100 98 95 83 59 50 84 96 100 100 100 83 60 97 32 67 100 100 100 100 89 100 100 100 100 100 100 100 100 100
100 100 100 100 100 100 100 100 100 100 100 100 100 100 100 100 100 100 100 100 100 97 100 100 100 76 100 100 84 88 96 64 100 44 67 10 10 43 100 96 100 100 85 83 100 100 97 100 100 100 100 100 100 100
100 100 100 100 100 100 100 100 100 100 100 100 100 100 100 100 100 100 100 100 100 100 93 79 10 72 48 90 97 88 10 100 97 4 6 76 100 100 100 100 100 100 100 100 100 100 100 100 100 100 100 100 100 100
100 100 100 100 100 100 100 100 100 100 100 100 100 100 100 100 100 100 100 97 95 60 86 53 14 81 65 81 98 99 100 100 100 83 63 96 95 94 100 100 100 100 100 100 100 100 100 100 100 100 100 100 100 100
100 100 100 100 100 100 100 100 100 100 100 100 100 100 100 100 100 100 100 100 68 30 31 6 15 26 76 100 100 100 100 100 100 100 97 100 100 100 100 100 100 100 100 100 100 100 100 100 100 100 100 100 100 100
100 100 100 100 100 100 100 100 100 100 100 100 100 100 100 98 100 100 100 100 100 100 100 100 100 100 100 100 100 100 100 100 100 100 100 100 100 100 100 100 100 100 100 100 100 100 100 100 100 100 100 100 100 100
14 49 68 97 70 80 100 99 100 100 100 96 97 100 92 99 100 100 100 100 100 100 100 100 100 100 100 100 100 100 100 100 100 100 100 100 100 100 100 100 100 100 100 100 100 100 100 100 100 100 100 100 100 100
96 100 100 97 100 100 100 100 100 100 100 100 74 94 99 100 100 100 100 100 100 100 100 100 100 100 100 100 100 100 100 100 100 100 100 100 100 100 100 100 100 100 100 100 100 100 100 100 100 100 100 100 100 100
98 100 100 100 100 100 100 100 100 100 100 100 100 100 98 87 92 100 100 100 88 100 100 99 100 98 100 96 100 100 100 100 100 100 100 100 100 100 100 100 100 100 100 100 100 100 100 100 100 100 100 100 100 100
100 100 100 100 100 100 100 100 100 100 100 100 100 100 100 100 100 100 100 100 100 100 100 100 100 100 100 98 99 100 100 100 100 100 100 100 100 100 100 100 100 100 100 100 100 100 100 100 100 100 100 100 100 100
100 100 100 100 100 100 100 100 100 100 100 100 100 100 100 100 100 100 100 100 100 100 100 100 100 100 100 100 100 100 100 100 100 100 100 100 100 100 100 100 100 100 100 100 100 100 100 100 100 100 100 100 100 100
100 100 100 100 100 100 100 100 100 100 100 100 100 100 100 100 100 100 100 100 100 100 100 100 100 100 100 100 100 100 100 100 100 100 100 100 100 100 100 100 100 100 100 100 100 100 100 100 100 100 100 100 100 100
100 100 100 100 100 100 100 100 100 100 100 100 100 100 100 100 100 100 100 100 100 100 100 100 100 100 100 100 100 100 100 100 100 100 100 100 100 100 100 100 100 100 100 100 100 100 100 100 100 100 100 100 100 100
100 100 99 99 100 100 100 100 100 100 100 100 100 100 100 100 100 100 100 100 100 100 100 100 100 100 100 100 100 100 100 100 100 100 100 100 100 100 100 100 100 100 100 100 100 100 100 100 100 100 100 100 100 100
100 100 100 100 100 97 92 79 100 99 93 100 93 99 100 88 96 55 51 100 100 100 100 100 100 100 100 100 100 100 100 100 100 100 100 100 100 100 100 100 100 100 99 100 100 100 100 92 99 99 91 100 100 46
100 100 100 100 100 100 100 100 100 100 100 100 100 100 100 100 100 62 99 100 100 100 100 100 100 100 100 100 100 98 100 100 99 100 100 100 100 99 100 100 100 100 100 100 100 100 100 100 91 100 100 99 100 100
100 100 100 100 100 100 100 100 100 98 88 100 100 100 96 99 92 98 100 100 100 100 100 100 100 100 100 98 100 100 100 100 100 100 100 100 100 96 70 68 92 100 100 100 100 100 100 100 96 100 86 86 20 88
100 100 100 100 99 56 91 100 100 100 98 95 96 100 99 99 100 100 100 100 100 100 100 100 100 100 100 100 100 100 100 100 100 78 56 98 100 100 95 88 53 98 100 100 100 95 99 98 97 100 100 65 44 100
100 98 99 98 92 76 72 92 90 93 95 100 100 99 100 100 100 100 100 100 100 100 100 100 100 100 100 100 100 100 100 100 80 37 7 5 71 100 99 100 100 100 100 100 100 100 100 100 100 100 100 100 100 100
100 100 100 100 100 100 100 95 81 88 100 100 100 100 95 96 100 100 100 100 100 98 100 100 100 100 100 100 100 100 84 18 19 46 71 88 98 100 100 100 100 100 100 100 100 100 100 100 100 100 100 100 100 100
100 100 100 100 100 100 98 82 98 100 99 90 72 100 100 100 100 100 100 100 100 100 100 100 100 100 100 100 100 100 100 74 7 66 100 100 100 100 100 100 90 88 99 77 74 100 100 100 100 100 100 100 100 100
100 100 100 100 100 100 100 100 100 100 99 100 100 100 100 100 100 100 100 100 100 100 100 100 100 100 100 100 100 100 100 87 55 7 12 93 100 100 100 100 100 100 100 100 100 100 97 96 100 79 85 99 100 100
100 100 100 100 97 100 100 100 100 100 97 62 93 100 100 100 100 100 100 100 100 100 100 100 100 100 100 100 100 100 100 98 100 100 100 100 100 99 100 100 100 100 100 100 100 100 100 65 95 100 100 100 100 87
100 100 100 100 100 100 100 100 100 100 100 100 100 99 100 100 100 100 100 100 100 100 100 100 100 100 100 100 100 100 100 95 26 30 22 95 100 100 100 100 100 100 100 100 100 100 100 100 100 100 100 100 100 100
100 100 100 100 100 100 100 100 100 100 100 100 100 100 100 100 100 100 100 100 100 100 78 100 99 100 98 100 86 18 23 84 100 99 98 95 100 100 99 99 100 100 100 100 100 100 100 100 100 100 100 100 100 100
100 100 100 100 100 100 97 100 100 100 100 100 100 100 98 99 100 100 100 100 100 100 100 100 100 100 72 92 95 61 45 72 5 15 6 36 13 18 56 100 100 100 100 100 100 100 100 100 100 100 100 100 100 100

GFSWCAN_prec_cloud_051.txt.gz
Cloud_Cover
100 100 100 100 88 100 93 71 54 8 56 100 100 100 100 99 62 100 100 100 100 100 100 100 71 64 13 65 5 13 92 67 25 0 4 10 12 2 91 100 100 100 100 100 100 79 39 5 96 98 92 100 100 100
100 100 93 100 46 12 18 11 5 5 33 6 19 100 100 100 100 100 100 100 100 100 100 100 100 100 93 100 99 62 25 99 38 2 42 5 7 5 29 100 100 100 100 100 66 6 11 98 95 100 100 100 100 93
100 76 80 5 5 36 98 100 72 100 75 81 99 95 100 100 100 64 100 100 100 100 100 100 100 100 100 100 94 98 100 100 10 0 5 5 66 34 100 100 100 100 100 100 55 51 100 100 100 100 100 100 100 100
98 69 5 28 82 82 100 86 98 100 94 100 100 100 100 100 100 100 100 100 100 100 100 100 100 100 100 100 100 99 100 74 4 5 6 34 100 98 100 100 100 100 100 100 94 100 100 100 100 100 100 100 100 100
100 98 100 100 100 98 98 99 100 77 100 100 100 100 100 100 100 100 100 100 100 100 100 100 100 97 78 20 87 84 100 100 67 98 95 100 100 100 100 100 98 81 10 100 100 100 100 100 89 100 100 100 100 99
100 100 100 100 100 100 100 92 100 100 100 100 100 100 100 100 100 100 100 100 100 100 100 100 100 71 98 100 100 100 95 100 98 70 100 100 100 100 100 100 100 86 95 100 100 100 100 99 100 100 100 100 100 100
100 100 42 67 100 100 100 100 96 99 100 100 100 100 100 100 100 100 100 100 100 100 100 100 93 100 100 100 95 65 100 100 100 83 52 88 100 100 86 100 90 30 8 100 64 100 89 45 52 59 100 100 100 100
100 100 11 98 88 100 83 92 100 100 100 100 100 100 100 100 100 100 100 100 100 100 92 100 100 60 66 22 100 99 87 88 83 100 98 96 100 100 100 100 82 19 97 100 100 100 100 100 100 100 100 98 100 100
100 100 100 48 25 77 98 100 100 100 100 100 100 100 100 100 100 100 100 100 99 71 100 82 6 46 20 36 31 73 87 68 83 90 100 100 100 100 100 100 100 100 100 100 100 100 100 100 100 100 100 100 100 100
100 100 100 100 100 87 73 93 58 85 99 100 100 100 100 100 100 99 99 100 100 86 100 100 100 100 100 100 100 100 100 100 100 100 100 100 100 100 100 100 100 100 100 100 100 100 100 100 100 100 100 100 100 100
100 100 100 100 100 100 100 100 100 100 100 100 97 100 100 100 99 93 100 100 100 100 100 100 100 100 97 100 100 100 100 100 83 100 100 100 100 100 100 100 100 100 100 100 100 100 100 100 100 100 100 100 100 100
100 100 100 100 100 100 100 100 100 100 100 100 100 100 100 100 100 100 100 100 100 99 100 100 100 100 97 96 94 95 100 98 96 100 100 100 100 100 80 97 100 100 100 100 100 100 100 100 100 100 100 100 100 100
100 100 100 100 100 100 100 100 100 100 90 97 100 100 100 100 100 100 100 100 100 100 100 100 91 87 98 40 91 100 100 100 100 100 100 100 100 100 84 85 100 100 100 100 100 100 100 100 100 100 100 100 100 100
100 100 100 100 100 100 100 100 100 100 100 100 100 100 100 100 100 100 100 97 89 100 100 100 100 100 100 100 100 100 100 100 100 100 100 100 100 100 100 99 99 100 100 100 100 100 100 100 100 100 100 100 100 100
96 100 100 100 100 100 100 100 100 100 100 100 100 96 100 100 100 100 100 100 100 100 100 100 100 100 100 100 100 100 100 100 100 100 100 100 100 100 100 100 100 100 100 100 100 100 100 100 100 100 100 100 100 100
100 100 100 100 100 100 100 100 89 76 51 5 22 99 98 74 58 100 100 99 95 100 100 100 100 100 100 100 100 100 100 100 100 100 100 100 100 100 100 100 100 100 100 100 100 100 100 100 100 100 100 100 100 100
100 100 100 100 100 100 100 100 87 100 88 75 97 100 100 100 100 100 100 100 100 100 100 100 100 100 100 100 100 100 100 100 100 100 100 100 100 100 100 100 100 100 100 100 100 100 100 100 100 100 100 100 100 100
100 100 100 100 100 98 97 97 99 98 100 99 100 100 100 100 100 100 100 100 100 100 100 100 100 100 100 100 100 100 100 100 100 100 100 100 100 100 100 100 100 100 100 100 100 100 100 100 100 100 100 100 100 100
100 100 100 100 100 99 88 71 96 100 100 100 100 100 100 100 100 100 100 100 100 100 100 100 100 100 100 100 100 100 100 100 100 100 100 100 100 100 100 100 100 100 100 100 100 100 100 100 100 100 100 100 100 100
100 100 100 100 100 100 100 100 100 100 100 100 100 100 100 100 100 100 100 100 100 100 100 100 100 100 100 100 100 100 100 100 100 100 100 100 100 100 100 100 100 100 100 100 100 100 100 100 100 100 100 100 100 100
100 100 100 100 100 100 100 100 100 100 100 100 100 100 100 100 100 100 100 100 100 100 100 100 100 100 100 100 100 100 100 100 100 100 100 100 100 100 100 100 100 100 100 100 100 55 87 83 100 100 78 85 70 73
100 100 100 100 100 100 100 100 100 100 99 100 100 100 96 97 100 100 94 100 100 100 100 100 100 100 99 98 100 100 100 100 100 100 100 100 100 100 100 100 100 100 100 100 95 82 65 74 50 58 95 100 77 75
100 100 99 100 100 100 100 99 100 100 98 100 100 100 100 100 100 100 100 100 100 100 100 99 99 100 100 100 100 100 100 99 85 73 46 41 6 5 5 14 52 60 65 83 66 42 51 96 15 7 5 34 76 99
100 100 100 100 100 100 100 100 100 100 100 100 100 100 100 99 64 64 100 100 100 100 97 87 77 77 53 12 86 100 94 12 71 100 92 5 5 5 5 5 5 70 100 98 23 42 34 38 100 68 5 5 8 24
100 100 100 100 100 100 100 100 100 100 100 100 100 100 96 74 89 100 98 100 100 99 99 88 24 35 7 16 33 67 17 5 5 8 75 96 100 97 78 12 5 5 30 66 100 23 33 5 76 96 9 6 32 28
100 100 100 100 97 99 100 100 100 100 90 97 99 96 84 33 55 99 100 100 99 88 100 87 27 37 86 60 5 41 99 85 1 5 5 5 10 58 77 97 62 84 10 52 67 100 64 67 6 15 68 96 25 5
100 97 98 100 100 100 93 100 100 100 98 100 100 100 47 53 99 91 100 98 96 96 85 100 28 5 5 5 5 9 9 5 5 4 5 5 5 5 5 13 62 79 64 5 5 43 84 96 92 100 98 33 24 38
100 86 100 99 100 99 100 100 100 100 100 91 72 70 91 97 100 100 81 96 68 70 75 33 12 54 86 98 100 99 98 89 53 79 60 74 57 44 62 90 93 74 98 99 76 21 5 6 14 31 26 8 83 100
100 100 100 100 100 99 92 100 100 99 95 100 66 89 96 96 100 86 90 63 93 24 58 53 62 32 40 6 5 8 5 32 42 6 77 100 100 95 28 30 76 60 40 98 99 98 94 95 36 97 94 74 46 100
100 100 100 100 100 100 100 100 100 16 8 23 67 100 99 100 100 100 100 100 96 90 98 91 98 97 100 97 94 83 54 7 39 83 89 100 96 31 100 73 36 79 5 80 99 46 94 67 5 74 100 100 100 93
100 100 100 100 100 100 100 87 56 33 9 64 7 5 62 82 99 96 90 80 68 5 55 78 73 65 27 88 90 100 99 42 5 5 13 26 67 100 94 16 72 68 89 97 53 5 56 83 90 7 11 43 93 100
100 100 100 100 100 100 100 99 74 65 47 25 31 21 82 87 95 75 79 97 100 100 98 99 70 91 13 23 10 12 8 92 91 46 45 64 51 26 22 5 63 100 100 52 11 90 86 96 98 100 100 88 41 8
100 100 99 96 91 92 93 86 93 97 99 91 87 99 97 99 99 96 88 94 100 96 95 72 40 5 15 90 39 14 71 28 32 28 59 61 13 7 5 10 5 6 5 5 5 17 97 100 100 100 100 100 100 100

GFSWCAN_prec_cloud_054.txt.gz
Cloud_Cover
5 41 91 98 100 99 100 100 100 100 100 100 100 100 100 100 100 100 100 100 100 100 100 98 99 80 72 7 12 88 100 17 6 5 5 1 1 0 0 0 2 23 97 100 100 100 100 89 99 100 92 97 100 100
82 99 100 100 78 57 28 100 92 99 85 47 61 95 100 100 100 100 100 100 100 100 100 100 82 100 100 100 100 100 100 100 18 5 4 0 0 0 0 0 0 4 63 100 100 100 100 100 100 100 85 60 100 100
100 100 72 97 89 10 5 5 5 45 100 74 45 56 100 100 100 100 100 100 100 100 100 100 84 85 62 100 91 75 91 93 8 6 5 2 0 0 2 5 11 0 92 100 100 100 100 100 100 100 76 40 100 100
100 96 100 100 100 100 42 74 86 100 100 24 8 30 42 100 100 100 100 100 90 100 100 99 100 100 100 93 100 100 99 100 97 99 39 41 19 0 0 5 2 10 100 100 100 100 100 100 92 82 93 100 100 100
100 46 95 100 100 100 99 99 100 100 97 100 96 54 100 92 100 100 100 100 100 100 49 100 100 100 100 100 100 100 93 100 83 99 100 19 97 29 0 66 19 96 100 100 100 100 72 100 4 26 89 88 100 100
62 44 99 100 100 95 100 36 91 96 100 100 100 100 100 100 100 100 100 100 29 98 100 100 100 89 100 100 100 100 100 100 100 100 100 100 79 16 4 5 68 100 100 100 100 100 87 3 5 20 100 100 100 100
72 78 51 98 100 100 100 100 100 76 100 100 96 100 100 100 100 100 100 99 100 100 100 100 100 100 100 100 87 77 96 100 5 100 99 100 100 100 100 100 100 100 100 100 100 100 100 58 55 38 100 100 100 100
72 78 97 68 81 98 94 94 99 100 92 100 100 100 100 100 100 100 100 100 100 100 100 100 100 100 100 82 65 37 93 100 96 58 91 100 100 100 100 100 100 100 100 100 100 48 98 100 100 100 100 100 100 100
99 45 88 100 100 100 100 100 100 100 99 100 100 100 100 100 99 100 100 100 100 99 92 100 100 100 99 97 100 100 100 100 100 92 100 100 100 100 100 100 100 100 100 100 100 60 84 100 100 100 100 100 100 100
88 100 100 100 100 100 100 100 100 100 100 100 100 100 100 100 100 100 100 100 100 100 100 100 100 100 63 89 95 100 100 100 100 82 100 100 100 100 100 96 100 100 100 100 100 100 97 100 100 100 100 100 100 100
100 100 100 100 91 100 100 100 100 91 99 98 95 100 100 100 100 100 100 100 100 100 78 87 99 100 81 97 90 90 100 100 92 100 100 99 100 100 100 100 100 100 100 100 100 100 100 100 100 100 100 100 100 100
100 100 100 100 100 100 100 100 100 92 100 100 99 95 95 97 89 76 73 57 44 98 99 97 100 100 100 84 93 100 100 100 100 100 98 100 100 99 77 80 90 100 100 100 100 100 100 100 100 100 100 100 100 100
100 100 100 100 100 100 100 100 100 100 100 100 100 100 100 100 100 94 100 100 100 100 100 100 100 100 100 100 100 100 100 100 100 100 100 100 100 99 100 99 99 100 100 100 100 100 100 100 100 100 100 100 100 100
100 100 100 100 100 100 100 100 100 100 100 100 100 100 100 100 100 100 100 100 100 100 100 100 100 100 100 92 99 100 100 100 99 100 100 100 100 100 100 100 100 100 100 100 100 100 100 100 100 100 100 100 100 100
100 100 100 100 100 100 100 100 100 100 100 100 100 100 100 100 100 99 98 100 100 100 100 100 100 100 95 98 100 98 100 98 99 100 100 100 100 100 100 100 100 100 100 100 100 100 100 100 100 100 100 100 100 100
100 100 100 100 100 100 100 100 100 98 100 100 100 100 100 100 100 97 90 99 100 100 100 100 100 100 100 100 100 100 100 100 100 100 100 100 100 100 100 100 100 100 100 100 100 100 100 100 100 100 100 100 100 100
98 94 100 100 99 100 94 97 100 44 85 100 100 100 100 100 100 100 100 100 100 100 100 100 100 100 100 100 100 100 100 100 100 100 100 100 100 100 100 100 100 100 100 100 100 100 100 100 100 100 100 100 100 100
100 100 100 100 100 100 70 91 97 86 63 97 100 100 100 100 100 100 100 100 100 100 100 100 100 100 100 100 100 100 100 100 100 100 100 100 100 100 100 100 100 100 100 100 100 100 100 100 100 100 100 100 100 100
100 100 100 100 78 41 48 87 94 64 98 89 96 89 93 100 100 100 100 100 98 99 100 100 100 100 100 100 100 100 100 100 100 100 100 100 100 100 100 100 100 100 100 100 100 100 100 100 100 100 100 100 100 100
100 100 100 100 100 96 29 74 100 98 100 100 100 100 99 100 100 100 100 100 100 100 100 100 100 100 100 100 100 100 100 100 100 100 100 100 100 100 100 100 100 100 100 100 100 100 100 100 100 100 100 100 100 100
100 100 96 96 100 100 97 100 100 99 100 100 100 100 100 100 100 100 100 100 100 100 100 100 100 100 100 100 91 100 100 100 100 100 100 100 100 100 100 100 100 100 100 100 100 100 100 100 99 95 100 100 100 100
100 100 92 99 100 100 95 95 100 100 100 97 89 100 100 100 100 100 100 100 100 100 100 100 100 100 96 96 100 100 100 100 98 99 97 98 99 100 95 59 68 98 100 94 99 100 81 71 99 90 56 75 17 6
100 98 100 67 100 100 100 100 100 100 100 100 100 100 100 100 99 97 81 100 100 100 100 96 100 100 100 100 78 83 94 82 35 9 5 13 41 48 87 100 82 71 98 99 23 71 76 47 16 63 99 23 9 70
100 100 100 100 100 100 100 100 100 100 100 100 100 100 100 100 98 86 100 100 100 100 100 99 100 64 49 45 98 92 43 9 51 75 34 5 8 73 47 98 100 100 61 9 5 8 16 25 5 5 5 5 37 97
100 100 100 100 100 100 100 100 100 100 100 100 100 100 100 84 78 70 75 100 100 98 81 53 6 5 86 85 57 67 95 92 5 64 100 28 5 8 29 85 100 100 100 8 54 38 31 45 30 6 12 30 14 38
100 100 100 100 100 100 100 100 100 100 100 100 100 100 100 79 43 94 98 100 96 98 99 66 15 9 27 5 42 22 45 5 2 21 70 96 81 29 72 61 87 90 78 97 52 95 86 78 83 94 81 12 52 47
100 100 100 97 88 100 100 100 100 100 84 100 96 99 20 95 100 99 100 94 97 100 81 74 54 38 39 7 32 38 9 5 5 18 28 5 5 5 12 17 79 67 14 12 21 28 97 100 100 67 76 90 63 87
100 100 100 100 100 100 100 84 90 99 95 99 82 90 60 91 98 100 91 94 62 75 82 89 75 73 76 94 79 66 62 30 7 5 5 30 43 25 5 23 51 56 71 53 39 28 12 64 58 54 52 49 25 82
97 100 100 100 100 94 97 99 100 100 100 98 58 100 94 96 96 80 98 89 69 69 62 73 100 49 22 34 28 18 84 99 79 100 99 99 89 100 100 93 56 49 79 76 97 95 100 97 59 64 56 90 100 100
100 100 100 100 88 100 100 100 100 96 48 68 83 100 95 100 100 99 85 54 60 66 58 61 89 47 77 52 100 50 37 67 44 10 91 99 94 98 100 90 100 20 72 89 64 25 72 45 45 71 88 87 100 99
100 100 100 100 100 100 100 100 100 85 47 20 61 57 96 99 100 100 100 100 98 67 38 94 95 97 80 94 92 100 96 40 24 57 98 99 100 100 100 92 96 94 86 99 77 88 100 96 100 100 92 83 80 69
100 100 100 100 100 100 100 76 35 83 99 44 100 97 91 40 98 98 100 78 72 79 95 54 85 100 75 52 84 90 16 69 97 88 77 84 84 60 71 100 48 27 43 56 63 70 100 100 100 96 100 100 99 100
100 100 100 100 100 100 91 83 55 81 65 90 100 95 100 66 90 89 99 86 60 47 90 80 70 92 62 42 45 94 72 71 96 86 98 85 24 27 37 69 68 58 38 70 93 100 55 10 44 50 85 99 97 88

GFSWCAN_prec_cloud_060.txt.gz
Cloud_Cover
100 100 100 100 100 100 100 100 100 100 100 100 100 100 100 100 100 100 100 100 100 100 100 100 100 100 100 100 100 100 100 70 74 64 53 94 94 13 5 13 25 39 73 98 100 97 89 100 100 100 100 100 100 100
100 100 100 100 100 100 100 100 100 100 100 100 100 100 100 100 100 100 100 100 100 100 100 100 100 100 100 100 100 100 100 100 84 5 10 4 5 30 5 4 0 0 1 12 2 6 0 4 70 100 100 100 98 100
100 100 100 96 61 92 86 67 71 99 92 100 100 100 100 100 100 100 100 100 100 100 100 100 100 100 100 100 100 100 100 90 100 100 76 5 5 5 9 5 5 0 0 0 0 0 0 0 0 0 7 98 100 25
100 100 78 82 96 12 5 36 10 89 91 100 100 100 100 100 100 100 100 100 100 100 100 100 100 100 100 100 100 100 100 100 95 100 32 36 6 16 24 39 12 5 3 1 1 0 0 0 0 0 3 100 100 100
93 78 45 62 100 78 95 100 98 100 100 100 100 100 100 100 100 100 100 100 100 100 100 100 100 100 100 100 100 100 100 100 100 99 64 72 72 74 22 22 27 62 11 3 0 8 82 14 1 0 0 0 100 100
100 93 100 100 97 19 97 100 100 100 100 100 100 100 100 100 100 100 100 100 100 100 100 100 100 100 100 100 100 100 100 100 99 100 90 52 70 35 58 26 47 99 100 100 100 58 10 5 83 5 5 5 9 100
88 100 100 97 100 100 83 100 100 100 100 100 100 100 100 100 100 100 100 100 100 100 100 100 100 100 100 100 96 100 100 100 100 99 77 96 97 100 97 87 91 100 100 100 100 97 23 62 94 78 19 100 98 100
100 100 100 100 99 84 40 100 100 100 100 100 100 100 100 100 100 100 100 100 100 100 100 100 100 100 96 100 99 100 100 100 100 100 89 94 96 98 100 88 80 89 95 83 99 99 100 100 85 69 100 100 100 100
100 100 99 100 100 100 100 100 100 100 100 100 100 100 100 100 100 100 100 100 99 100 100 100 100 100 100 100 100 100 100 100 100 100 100 100 100 99 100 86 86 100 100 99 94 95 100 100 100 99 100 100 100 100
100 100 100 100 100 100 100 100 100 100 100 100 100 100 100 100 100 100 100 100 100 100 100 100 100 100 100 100 100 100 100 100 100 100 100 100 100 100 99 100 100 100 100 100 100 100 100 100 100 100 100 100 100 100
100 100 100 100 100 100 100 100 100 100 100 100 100 100 100 100 100 100 100 100 100 100 100 100 100 100 98 98 100 93 99 100 100 92 92 97 100 99 94 100 100 100 100 100 100 100 100 100 100 100 100 100 100 100
100 100 100 100 100 100 100 100 100 100 98 100 100 100 98 100 100 100 100 100 100 100 100 100 100 100 100 93 100 96 89 100 100 98 100 100 100 97 100 96 98 100 98 100 100 100 100 100 100 100 100 100 100 100
100 100 100 100 100 100 100 100 98 47 82 72 100 100 100 67 90 94 100 100 100 100 100 100 100 100 100 100 71 99 100 100 78 100 100 100 100 100 100 100 98 98 96 100 100 100 100 100 100 100 100 100 100 100
97 100 100 100 100 100 100 100 100 100 99 98 79 38 94 100 92 100 100 94 99 100 100 100 100 98 92 95 100 100 97 99 95 100 100 100 100 100 100 99 100 100 100 100 100 100 100 100 100 100 100 100 100 100
100 100 100 100 100 100 100 100 100 100 100 100 100 100 99 99 100 99 100 100 100 100 100 90 84 100 82 89 100 100 100 100 100 100 100 100 100 100 100 100 100 100 100 100 100 100 100 100 100 100 100 100 100 100
100 96 92 100 100 100 100 97 100 100 100 100 100 100 98 100 100 100 100 100 100 100 100 100 100 100 100 100 100 100 100 100 100 100 100 100 100 100 100 100 100 100 100 100 100 100 100 100 100 100 100 100 100 100
82 100 100 100 100 100 100 100 100 89 100 100 100 100 100 100 100 100 100 100 100 100 100 100 100 100 100 100 100 100 100 100 100 100 100 100 100 100 100 100 100 100 100 100 100 100 100 100 100 100 100 100 100 100
58 99 100 100 100 100 100 100 95 98 96 100 100 100 100 100 100 100 100 100 100 100 100 100 100 100 100 100 100 100 100 100 100 100 100 100 100 100 100 100 100 100 100 100 100 100 100 100 100 100 100 100 100 100
96 54 16 91 100 100 100 86 24 60 100 99 100 100 100 100 100 100 100 100 100 100 100 100 100 100 100 100 100 100 100 100 100 100 100 100 100 100 100 100 100 100 100 100 100 100 100 100 100 100 100 100 100 100
74 5 26 97 100 100 96 96 97 100 100 100 100 100 100 100 100 100 100 100 100 100 100 100 100 100 100 100 100 100 100 100 100 99 100 100 100 100 100 100 100 100 100 100 99 87 74 68 80 67 49 34 69 100
5 5 13 91 97 100 100 100 100 100 100 100 100 100 100 100 100 100 100 100 100 100 100 100 100 100 100 100 100 100 100 100 100 100 100 100 100 100 100 100 100 100 99 67 68 99 96 100 93 7 25 100 99 100
92 96 97 98 64 24 35 90 100 100 100 100 100 100 100 100 99 99 75 89 95 100 97 100 100 98 85 94 100 99 100 98 100 100 100 100 100 96 96 79 10 72 66 92 79 100 100 96 56 22 34 95 20 31
98 100 100 100 100 95 100 99 100 100 100 100 100 100 89 68 73 71 74 96 100 100 100 100 100 100 100 100 100 100 97 91 96 95 96 100 100 93 98 84 32 42 96 89 47 27 85 96 100 85 64 41 15 39
93 88 99 100 100 100 100 100 100 100 100 100 100 98 62 51 45 48 90 100 100 100 100 100 100 100 100 94 98 99 80 61 80 79 30 14 92 100 100 100 79 63 52 47 5 10 11 86 66 76 100 100 100 100
100 100 100 100 100 100 100 100 97 98 100 98 61 78 45 46 96 100 100 100 100 100 100 96 88 66 89 100 100 100 73 71 52 53 79 7 84 63 83 90 100 100 25 61 98 99 73 77 75 62 33 96 81 100
97 100 76 74 93 97 96 97 100 90 84 83 97 76 95 100 100 100 100 100 100 99 95 83 88 96 100 87 86 63 68 60 50 73 92 58 57 79 84 71 64 81 81 82 99 100 100 100 97 69 82 47 70 98
99 100 100 100 99 98 88 90 94 92 99 100 100 100 100 100 100 100 100 100 100 99 85 68 83 88 60 87 52 64 35 5 5 5 27 32 56 80 57 31 78 42 37 36 73 84 95 100 100 100 100 99 100 100
73 95 75 64 65 70 99 80 93 100 100 97 75 96 100 100 99 100 100 98 98 86 91 94 66 22 7 47 51 7 63 62 42 9 13 40 93 99 92 95 100 92 94 85 81 98 100 100 100 100 100 100 93 94
56 61 58 100 99 100 100 100 100 100 100 99 84 100 100 99 99 100 100 98 95 87 73 94 100 78 85 92 98 99 100 53 56 93 100 100 99 57 94 100 71 98 100 97 94 97 99 93 94 100 100 100 100 100
66 40 37 46 62 100 100 100 96 100 90 95 100 100 97 100 100 100 89 92 98 100 99 93 41 5 5 5 50 70 92 99 99 100 100 99 61 24 100 100 100 100 100 96 96 56 92 89 98 94 98 99 100 100
62 13 25 30 90 100 100 100 88 93 100 89 65 60 98 100 100 100 94 84 82 65 35 100 100 79 85 92 89 72 13 53 100 97 67 83 100 100 100 100 100 100 100 100 100 100 100 100 100 100 100 100 100 100
87 49 64 74 100 100 96 87 95 93 100 92 99 82 40 14 95 98 100 100 94 98 100 100 100 86 94 97 99 94 18 74 100 100 93 83 68 96 100 100 97 76 74 100 100 100 100 100 100 93 100 100 100 93
89 83 87 100 100 100 92 74 81 78 90 100 100 100 99 28 72 88 99 94 87 100 100 89 92 72 95 97 89 96 98 94 100 100 100 85 25 69 71 98 84 87 91 100 100 93 57 47 54 58 68 80 78 50

GFSWCAN_prec_cloud_063.txt.gz
Cloud_Cover
100 100 100 100 100 100 100 100 100 100 100 100 100 100 100 100 100 100 100 100 100 100 83 94 100 100 100 100 100 100 100 97 99 93 98 100 100 100 100 100 100 100 100 100 100 100 96 100 100 88 91 48 5 14
100 100 100 100 100 100 100 100 100 100 100 100 100 100 100 100 100 100 100 100 100 100 100 100 100 100 100 100 100 100 100 100 100 85 60 58 42 17 62 14 57 100 100 100 100 96 88 100 100 100 100 100 89 29
100 100 100 100 100 100 45 75 97 100 100 100 100 100 100 100 100 100 100 100 100 100 100 100 100 100 100 100 100 100 100 96 100 56 100 98 62 5 16 18 18 21 20 14 75 99 100 100 100 100 100 100 100 100
100 100 93 92 84 57 98 96 55 51 60 100 100 100 100 100 100 100 100 100 100 100 100 100 100 100 100 100 100 100 100 100 91 100 100 97 100 49 12 5 4 1 4 5 5 5 5 5 35 3 63 87 88 99
99 100 100 100 92 18 93 92 58 41 5 11 97 100 100 100 100 100 100 100 100 100 100 100 100 100 100 100 100 100 100 100 99 86 83 62 97 98 84 17 7 12 10 4 3 98 98 60 10 87 13 1 4 2
100 100 100 7 27 91 23 13 41 58 84 6 84 100 100 100 100 100 100 100 100 100 100 100 100 100 100 100 100 100 100 100 100 100 100 100 100 83 85 48 5 9 75 98 96 92 100 66 100 100 85 51 23 5
55 88 64 87 100 26 49 100 64 100 100 76 100 100 100 100 100 100 94 99 100 100 100 100 100 100 100 100 100 100 100 98 100 100 90 90 100 48 43 45 82 54 18 97 100 100 78 100 100 100 99 82 62 52
77 76 39 100 71 87 98 100 100 100 100 100 100 100 100 100 100 100 100 100 100 100 100 100 100 100 100 100 100 100 100 100 100 100 100 98 89 71 100 100 100 97 32 82 100 100 100 100 100 100 100 100 100 98
100 93 100 100 99 100 100 100 100 100 100 100 100 100 100 100 100 100 100 100 100 100 97 94 100 100 100 100 100 100 100 100 100 100 100 100 100 99 100 100 100 88 100 100 99 100 100 100 100 100 100 100 100 100
100 100 100 100 100 97 100 100 100 100 100 100 100 100 100 100 100 100 100 100 100 100 98 88 100 100 100 100 100 100 100 100 100 100 100 100 100 100 100 100 100 100 100 100 99 92 100 100 100 100 100 100 100 100
100 100 100 100 100 100 100 100 100 100 100 100 100 100 100 100 100 100 100 100 100 100 100 100 100 100 100 100 100 100 97 99 100 100 99 99 100 100 100 99 100 100 100 100 99 95 100 100 100 100 100 100 100 100
100 100 100 100 91 100 100 100 100 100 100 100 100 100 100 100 100 100 100 100 100 100 100 100 100 100 100 100 100 100 100 99 94 92 100 96 100 100 99 100 100 100 100 100 100 100 100 100 100 100 100 100 100 100
100 100 100 100 100 100 83 97 100 100 100 100 100 100 100 35 31 68 100 100 99 100 100 100 100 100 100 100 100 100 100 97 87 100 100 100 100 92 100 100 100 100 100 100 100 100 100 100 100 100 100 100 100 100
100 100 100 100 100 100 100 100 100 100 99 100 100 100 100 100 100 100 100 100 97 100 100 99 75 100 100 74 100 100 98 91 100 100 100 100 100 100 100 100 100 100 100 100 100 100 100 100 100 100 100 100 100 100
100 100 97 100 100 100 100 100 100 100 100 100 100 100 100 99 95 99 99 98 100 100 100 100 100 69 76 81 93 55 70 94 100 89 100 100 100 100 100 100 100 100 100 100 100 100 100 100 100 100 100 100 100 100
100 100 99 100 100 100 100 100 100 100 100 100 100 100 100 100 100 100 100 100 100 100 97 100 100 100 100 98 91 99 75 62 97 100 100 99 100 100 100 100 100 100 100 100 100 100 100 100 100 100 100 100 100 100
100 100 100 100 100 100 100 100 100 100 100 100 100 100 100 100 100 100 100 100 100 100 100 99 92 98 72 85 68 93 98 99 100 100 100 100 100 100 100 100 100 100 100 100 100 100 100 100 100 100 100 100 100 100
19 95 100 100 100 99 98 100 100 100 100 100 100 100 97 95 99 95 100 100 99 99 100 98 76 97 96 100 100 100 100 100 100 100 100 100 100 100 100 100 100 100 100 100 100 100 100 100 100 100 100 100 100 100
36 80 100 96 95 87 93 39 72 100 96 94 93 96 96 100 100 100 100 100 100 100 100 100 100 100 100 100 100 100 100 100 100 100 100 100 100 100 100 100 100 100 100 100 100 100 100 100 100 100 100 100 100 100
27 8 42 46 39 26 22 10 56 99 99 92 99 99 95 97 98 93 100 100 100 100 100 100 100 100 100 100 100 100 100 99 100 98 100 100 100 100 100 100 100 100 100 100 100 100 100 100 99 58 39 57 64 99
41 37 64 55 65 83 98 100 100 100 98 100 100 100 100 100 99 100 100 100 100 100 100 100 100 100 100 100 100 100 100 84 91 86 96 100 100 100 100 100 100 100 100 100 100 76 56 89 78 24 70 100 100 100
17 20 76 23 22 67 95 74 100 85 95 100 100 100 100 93 85 87 98 97 100 100 100 100 100 100 100 100 100 100 100 98 99 99 100 100 100 100 100 93 76 76 93 97 90 100 100 70 5 5 39 98 82 96
68 84 93 47 76 74 98 100 100 100 100 100 100 100 100 100 98 100 98 88 100 100 100 100 100 100 100 100 93 99 97 99 90 77 76 83 96 82 84 52 6 5 5 70 94 100 100 99 98 51 15 6 7 17
38 85 20 64 100 100 98 100 100 100 100 97 85 75 72 71 63 78 99 100 100 100 100 100 99 92 88 86 91 92 57 7 78 92 73 39 89 100 98 97 87 95 60 5 5 53 82 97 84 98 96 74 87 68
87 86 97 100 100 100 100 100 76 96 88 64 76 86 56 66 86 100 89 88 100 100 100 79 74 62 75 100 99 85 28 6 5 46 67 5 76 99 99 100 100 100 53 18 5 5 53 37 10 5 51 77 71 89
100 100 100 100 100 95 78 94 79 79 85 97 94 59 57 55 56 99 93 100 100 100 97 100 100 87 78 75 91 97 96 11 5 57 100 74 11 5 25 24 21 65 88 43 84 93 92 94 88 41 25 42 24 66
100 100 90 95 97 97 89 76 60 68 94 98 66 76 54 75 100 100 100 100 100 100 100 78 71 57 50 59 67 60 5 5 5 28 52 52 38 20 5 5 5 45 58 37 39 30 48 96 100 98 92 90 88 100
52 82 68 62 49 20 78 74 93 100 99 91 72 90 100 100 100 100 100 100 100 99 77 83 32 7 5 5 9 5 34 51 14 23 23 59 92 95 99 99 100 96 78 73 74 99 94 68 57 84 100 100 99 96
60 29 17 52 24 28 96 100 100 100 100 96 100 100 100 100 100 100 100 100 100 93 33 17 88 58 68 82 98 92 62 5 42 81 100 98 86 55 97 95 58 100 100 96 95 93 98 92 95 100 100 100 100 100
55 53 55 60 70 100 100 100 100 100 90 99 84 97 95 100 100 100 100 100 100 82 47 50 73 5 46 33 98 92 93 100 98 99 100 81 39 30 100 100 100 100 100 100 94 34 91 45 69 94 96 99 100 96
46 74 96 74 90 100 100 100 100 65 39 38 58 86 98 100 100 100 95 95 88 33 10 10 21 18 44 19 32 5 5 45 100 99 69 78 98 100 100 100 100 100 100 100 90 85 91 98 100 96 69 47 45 81
100 100 100 100 100 100 93 62 97 91 98 92 89 80 29 26 93 98 98 98 96 87 99 98 100 76 70 94 97 76 21 76 100 100 98 70 10 73 100 99 96 77 64 77 97 96 69 36 6 5 5 5 13 5
99 100 99 91 100 100 94 40 59 62 94 100 100 100 98 61 84 88 90 91 98 99 90 75 43 95 97 82 37 92 95 96 100 93 89 62 19 37 34 94 100 98 99 100 100 98 70 39 5 5 5 7 5 5

GFSWCAN_prec_cloud_066.txt.gz
Cloud_Cover
100 100 100 100 100 100 100 100 100 100 100 100 100 100 100 100 100 100 100 100 100 100 43 58 75 93 74 100 100 100 100 100 100 100 100 100 95 100 100 100 100 100 97 99 100 100 97 100 100 100 60 61 93 86
99 77 64 95 100 100 100 100 100 100 100 100 100 100 100 100 100 100 100 100 100 100 96 100 100 98 100 100 100 100 100 100 100 100 90 100 100 100 100 100 100 100 100 100 75 87 69 100 100 100 100 96 68 100
93 100 100 100 100 100 98 99 100 100 100 100 100 100 100 100 100 100 100 100 100 100 100 91 100 100 100 100 100 100 97 100 100 96 100 100 100 100 81 77 99 100 100 100 92 100 100 85 100 100 100 100 100 100
100 79 95 94 99 94 89 99 95 100 100 100 100 100 100 100 100 100 100 100 100 100 100 95 100 100 100 100 100 100 100 100 100 98 97 100 98 45 100 92 47 95 97 32 75 100 100 100 100 100 100 100 100 100
99 93 100 94 87 96 95 96 91 76 89 100 100 100 100 100 100 100 100 100 100 100 100 100 100 100 100 100 100 100 100 100 100 100 100 100 97 67 52 86 80 20 42 5 75 65 75 59 96 93 100 100 100 100
99 100 100 99 100 100 100 81 87 100 11 10 100 100 100 100 100 100 100 100 100 100 100 100 100 100 100 100 100 100 100 100 100 100 100 100 100 79 69 87 81 66 58 34 50 72 95 80 100 100 98 99 100 100
100 100 97 89 100 91 100 89 99 100 83 12 81 100 100 100 100 100 98 100 100 100 100 100 100 100 100 100 100 100 100 100 100 100 100 94 69 78 93 93 93 64 29 62 63 30 79 100 100 100 100 100 35 60
100 72 96 95 99 74 84 92 100 82 92 85 14 99 100 100 100 100 100 100 100 100 100 100 100 100 100 100 100 100 100 100 100 100 94 71 70 85 100 100 92 99 89 91 66 86 100 100 100 100 100 100 100 92
100 100 100 100 76 90 97 100 100 100 100 100 100 100 100 100 100 100 100 100 100 100 100 100 100 100 100 100 100 100 100 100 100 100 100 96 84 100 100 99 98 100 96 99 62 76 100 100 100 100 100 100 99 98
100 99 100 100 100 98 93 100 100 100 100 100 100 100 100 100 100 100 100 100 100 100 100 100 100 100 100 100 100 100 100 100 100 100 100 97 98 100 100 100 100 99 100 100 87 64 74 97 100 98 94 85 100 100
99 89 100 100 100 100 100 100 100 100 100 100 100 100 100 100 100 100 100 100 74 96 89 100 100 100 100 100 100 100 95 92 84 96 100 100 100 100 100 100 100 100 100 100 100 100 100 100 100 100 100 100 100 100
100 100 100 100 100 100 100 100 100 100 100 100 100 100 100 100 100 100 100 98 50 58 100 100 100 100 100 100 100 100 100 90 90 96 99 100 100 100 100 100 100 100 100 100 100 100 100 99 99 100 100 100 100 100
100 100 100 100 100 100 100 100 100 100 100 100 100 100 100 100 89 94 100 100 100 94 100 100 100 100 100 100 100 100 100 100 78 100 100 100 100 100 100 100 100 100 100 100 100 100 100 100 100 100 100 100 100 100
100 100 100 100 100 100 100 100 100 100 100 100 100 100 100 100 100 100 100 100 100 100 100 100 100 100 100 100 100 98 99 90 100 100 100 100 100 100 100 100 100 100 100 100 100 100 100 100 100 100 100 100 100 100
100 100 100 100 100 100 100 100 100 100 100 100 100 100 100 100 100 100 100 100 100 100 100 100 100 100 100 100 100 100 97 99 94 100 100 100 100 100 100 100 100 100 100 100 100 100 100 100 100 100 100 100 100 100
100 100 100 100 100 100 100 100 100 100 100 100 100 100 100 100 100 100 100 100 100 100 93 96 100 100 100 81 47 98 91 92 100 100 100 100 100 100 100 100 100 100 100 100 100 100 100 100 100 100 100 100 100 100
100 100 92 100 100 100 100 100 100 100 84 79 100 100 100 100 100 100 100 100 100 86 75 5 36 93 32 48 93 99 100 100 100 100 100 100 100 100 100 100 100 100 100 100 100 100 100 100 100 100 100 100 100 100
100 100 100 100 100 100 100 100 100 100 100 100 100 100 100 100 100 100 100 100 93 57 39 76 49 72 100 97 100 100 100 100 100 100 100 100 100 100 100 100 100 100 100 100 100 100 100 100 100 100 100 100 100 100
100 94 76 64 99 99 100 97 99 89 99 100 100 100 100 100 100 100 100 90 86 99 100 88 95 100 100 100 100 100 100 100 100 100 100 100 100 100 100 100 100 100 100 100 100 100 100 100 100 100 100 100 100 100
72 92 76 99 100 96 18 52 54 78 100 99 100 100 100 100 100 100 100 100 100 100 100 100 100 100 100 100 100 100 100 100 100 100 100 100 100 100 100 100 100 100 100 100 100 100 100 100 100 98 88 84 100 100
5 5 8 17 20 44 21 49 70 83 92 96 100 99 99 99 99 100 100 100 100 100 100 100 100 100 100 100 100 100 100 100 100 100 100 100 100 100 100 100 100 100 100 92 78 46 89 92 75 93 100 100 100 100
13 15 94 100 54 7 29 35 51 83 97 100 97 84 100 100 100 100 100 100 100 100 100 100 100 100 100 100 100 100 94 99 97 87 98 93 99 57 40 6 8 58 84 100 100 100 100 100 100 100 100 97 100 97
44 58 38 53 64 31 83 94 94 94 100 96 99 100 100 100 94 100 100 100 100 100 100 100 100 100 100 100 99 93 98 99 96 92 49 5 9 71 35 24 65 73 70 85 99 100 100 64 65 96 92 99 100 100
80 92 50 7 59 93 63 93 100 100 100 100 100 99 96 90 70 90 100 100 100 100 100 100 99 100 100 100 100 89 53 74 39 71 24 5 5 26 58 60 90 100 85 70 90 100 100 100 70 99 100 100 100 100
13 66 97 99 100 100 100 77 76 77 99 94 99 98 92 96 100 100 100 100 100 100 100 100 99 98 94 93 87 68 91 7 5 8 60 64 69 62 80 81 98 100 100 100 100 100 100 97 100 100 100 100 100 100
98 96 58 84 44 59 100 99 96 89 83 92 98 70 80 100 100 100 100 100 100 100 100 100 98 83 86 96 98 100 94 42 6 50 76 79 84 99 98 92 93 100 100 100 100 100 100 100 100 100 100 90 43 69
87 100 87 87 100 100 89 74 62 55 87 96 74 98 100 100 100 100 100 100 100 100 100 100 100 100 85 54 66 71 30 13 5 28 74 78 59 70 82 94 70 100 100 100 100 100 100 100 100 100 100 100 100 100
97 97 99 98 84 60 48 45 71 98 100 77 26 59 76 73 100 100 100 100 100 100 100 100 96 79 25 5 5 5 5 5 14 37 71 74 69 84 97 100 100 81 91 99 100 100 100 100 100 100 100 100 100 100
85 60 60 60 56 92 100 100 100 100 100 76 27 93 100 100 100 100 100 100 100 94 81 34 63 65 65 78 86 77 93 100 100 33 5 11 94 100 100 100 100 100 100 100 79 91 100 100 100 100 100 100 100 100
61 41 38 50 57 100 100 100 100 100 100 100 98 100 100 100 100 100 100 100 92 95 94 84 99 87 43 28 65 91 99 100 100 96 33 19 90 100 100 100 100 100 100 100 100 100 97 96 99 100 94 100 100 100
48 57 64 99 100 100 100 100 98 96 100 100 100 100 100 100 100 100 100 100 100 100 71 9 23 13 35 42 83 57 89 96 75 81 77 100 100 100 100 90 88 100 100 100 99 96 88 88 98 76 69 17 19 11
42 75 69 86 100 98 100 63 60 83 94 100 97 50 88 100 100 100 100 100 100 100 56 81 100 100 99 100 82 60 90 92 98 99 88 51 70 22 54 65 72 95 100 100 100 100 94 77 25 6 5 5 5 5
80 67 36 50 99 100 95 80 26 27 72 92 100 100 100 94 100 100 100 100 100 100 100 100 89 65 29 27 54 65 50 60 79 67 77 49 69 54 90 100 100 100 100 100 100 100 93 49 5 5 5 5 5 5

GFSWCAN_prec_cloud_069.txt.gz
Cloud_Cover
100 100 100 100 100 100 100 100 100 100 100 99 100 100 100 100 65 100 100 100 100 100 98 100 82 48 68 98 100 98 100 100 100 100 100 100 100 100 100 100 100 100 100 100 100 100 100 100 100 100 100 100 55 82
100 100 99 98 89 72 69 100 100 100 100 100 100 100 100 100 100 100 97 100 100 100 100 52 5 75 78 38 100 100 100 100 99 100 89 100 100 100 100 100 100 100 100 100 100 100 100 100 100 100 100 100 100 100
100 100 100 100 100 98 100 100 100 100 100 100 100 100 100 100 100 100 100 100 100 100 100 86 5 29 17 68 100 100 99 100 100 100 100 100 100 100 100 100 100 100 100 100 100 100 100 100 100 100 100 100 100 100
100 100 100 97 54 78 100 100 98 100 100 100 100 100 100 100 100 100 100 100 100 100 100 58 11 10 5 58 100 100 100 100 100 100 100 100 100 100 100 100 100 100 100 100 100 100 100 100 100 100 100 100 100 100
100 80 50 94 61 80 68 75 98 100 100 100 100 100 100 100 100 100 100 100 100 100 100 100 72 40 99 100 100 100 100 100 100 100 100 100 100 100 100 100 100 100 100 100 100 100 100 100 100 100 100 100 100 100
100 80 100 100 100 96 95 57 84 100 14 100 100 100 100 100 100 100 100 100 100 100 100 100 94 100 100 100 100 100 100 100 100 100 100 100 100 100 100 100 100 100 100 100 100 100 100 100 100 100 100 92 90 74
100 100 100 36 99 100 100 91 97 100 98 85 100 100 100 100 100 100 100 100 100 100 100 100 100 100 100 100 100 100 100 100 100 100 100 100 100 100 99 100 100 100 100 100 100 100 100 100 100 90 88 100 100 96
100 100 97 82 79 88 100 100 92 100 100 100 100 100 100 100 100 100 100 100 100 100 100 100 100 96 99 100 99 98 100 100 100 100 100 100 92 99 99 100 100 73 62 97 74 60 99 100 100 100 99 88 96 100
100 89 86 100 100 97 98 82 100 100 100 100 100 100 100 100 100 100 100 100 100 100 100 100 100 100 92 100 99 100 100 100 100 100 91 73 100 100 100 100 100 99 72 89 68 82 100 94 86 90 68 52 98 78
100 93 100 90 100 100 100 100 100 100 100 100 100 100 100 100 100 100 100 100 100 100 100 100 100 100 100 100 97 100 94 100 100 100 92 100 100 99 89 97 98 100 100 86 73 75 82 92 100 100 90 89 96 99
100 100 100 100 100 100 100 100 100 100 100 100 100 100 100 100 100 100 100 100 98 100 97 100 100 100 100 100 100 100 100 100 95 87 94 99 100 100 99 99 100 100 99 100 100 100 100 100 100 100 100 100 100 100
100 100 100 100 100 100 100 100 100 100 100 100 100 100 100 100 100 100 100 87 93 76 100 100 100 100 100 98 100 100 100 100 100 100 86 100 100 100 100 100 100 100 100 100 100 100 100 100 100 100 100 100 100 100
100 100 100 100 100 100 100 100 100 100 100 100 100 100 100 100 100 74 100 99 100 100 100 100 100 100 100 100 100 100 100 100 100 100 100 100 100 100 100 100 100 100 100 100 100 100 100 100 100 100 100 100 100 100
100 100 48 99 100 100 100 100 100 100 100 100 99 99 99 100 100 100 100 100 100 100 100 100 100 100 100 100 100 100 100 99 100 100 100 100 100 100 100 100 100 100 100 100 100 100 100 100 100 100 100 100 100 100
98 100 100 100 100 98 100 100 100 100 100 100 100 100 100 99 100 93 89 98 100 100 100 100 100 100 100 100 100 100 100 100 100 100 100 100 100 100 100 100 100 100 100 100 100 100 100 100 100 100 100 100 100 100
100 100 100 100 100 100 100 100 100 100 100 100 100 100 100 100 100 100 100 100 100 100 100 100 100 100 100 100 100 100 100 100 100 100 100 100 100 100 100 100 100 100 100 100 100 100 100 100 100 100 100 100 100 100
100 100 100 100 100 100 100 100 100 100 100 100 100 100 100 100 100 100 100 100 100 100 100 99 100 97 60 98 100 100 100 100 100 100 100 100 100 100 100 100 100 100 100 100 100 100 100 100 100 100 100 100 100 100
100 100 100 100 100 100 100 100 99 100 100 100 100 100 100 100 100 100 100 100 100 86 76 62 88 97 100 100 100 100 100 100 100 100 100 100 100 100 100 100 100 100 100 100 100 100 100 100 100 100 100 96 99 100
100 100 95 100 100 100 100 100 86 88 100 100 100 100 100 100 100 100 100 89 78 62 83 94 92 100 100 100 100 100 100 100 100 100 100 100 100 100 100 100 100 100 100 100 100 100 100 100 100 100 100 100 100 100
100 96 100 95 100 100 100 100 99 97 100 100 100 100 100 100 100 100 98 80 94 98 100 100 100 100 100 100 100 100 100 100 100 100 100 100 100 100 100 100 100 100 100 100 100 92 100 100 99 100 99 96 100 100
44 11 33 79 24 70 82 78 94 92 100 100 100 100 100 100 100 100 100 100 100 100 100 100 100 100 100 100 100 100 100 100 100 100 100 100 100 100 100 100 100 100 100 100 100 77 94 100 97 100 100 100 100 100
6 6 5 8 26 42 80 91 97 99 100 100 99 100 100 100 100 100 100 100 100 100 100 100 100 100 100 100 100 100 99 86 77 70 88 94 100 100 100 99 81 98 98 100 100 100 100 100 100 100 100 100 100 99
63 54 69 57 42 53 96 96 92 100 100 100 98 98 98 100 100 100 100 100 100 100 100 100 100 100 100 100 100 100 100 100 100 100 99 78 72 86 68 64 90 99 99 88 86 100 100 49 74 100 99 99 100 100
88 98 86 68 92 99 67 93 94 98 100 99 98 100 100 100 100 100 100 100 100 100 100 100 100 100 100 100 100 99 76 60 51 92 34 21 21 8 39 47 90 97 70 67 99 100 100 100 51 98 100 100 100 100
100 94 83 91 43 49 57 70 83 92 98 97 100 100 100 100 100 93 100 100 100 100 100 100 100 100 100 99 99 56 41 90 81 73 64 54 66 66 72 27 89 87 93 100 100 100 100 100 100 100 100 100 100 100
81 74 99 92 46 52 35 76 97 90 84 100 100 100 100 96 94 99 100 100 100 100 100 100 100 100 100 100 99 99 90 24 37 67 16 13 21 83 92 86 100 100 99 100 100 100 100 100 100 100 100 90 74 70
98 100 90 94 97 79 99 100 99 99 100 94 84 73 53 44 100 100 100 100 100 100 100 100 100 100 100 100 90 82 55 41 22 27 23 5 5 13 82 100 97 100 100 100 100 100 100 100 100 100 100 100 100 100
99 100 97 88 78 57 47 57 69 94 99 54 9 27 36 91 100 100 100 100 100 100 100 98 98 100 96 95 79 61 29 23 50 47 73 85 96 98 100 100 98 22 90 100 100 100 100 100 100 100 100 100 100 100
98 99 98 59 27 78 98 100 100 100 92 100 55 85 100 100 100 100 100 100 100 100 100 100 100 100 98 94 99 100 100 100 100 17 5 53 100 100 100 100 100 100 100 100 90 66 100 100 100 100 100 100 100 100
88 99 65 66 82 100 100 100 100 100 100 95 100 100 100 100 100 100 100 100 100 100 100 100 100 100 100 96 85 99 100 100 100 99 100 100 100 100 100 100 100 100 100 100 100 100 99 100 100 100 97 100 100 100
100 93 58 100 100 100 100 100 100 100 100 100 100 100 100 100 100 100 100 100 100 100 100 100 100 100 100 100 100 93 100 98 71 88 79 100 100 100 100 100 100 100 100 100 100 100 100 96 100 100 100 96 59 5
100 80 48 95 100 100 100 100 100 100 100 100 100 100 100 100 100 100 100 100 100 100 100 100 100 100 100 100 74 53 80 97 100 98 90 100 100 100 100 100 100 100 100 100 100 100 100 100 99 94 69 32 5 5
100 100 72 82 99 99 93 100 77 98 100 100 100 100 100 99 99 100 100 100 100 100 100 100 100 100 100 85 80 58 79 79 86 60 48 53 85 42 90 100 100 100 100 100 100 100 99 85 38 24 5 5 5 5

GFSWCAN_prec_cloud_072.txt.gz
Cloud_Cover
8 99 100 100 85 81 100 99 98 100 50 96 91 100 92 97 5 10 5 11 41 87 97 61 76 99 86 98 89 65 82 88 94 100 87 93 100 100 100 100 100 100 100 100 100 100 100 100 100 100 100 100 100 100
100 100 100 100 100 100 99 94 93 100 100 95 100 100 100 100 84 44 18 74 98 91 84 59 8 21 100 100 100 99 100 90 100 99 38 100 99 100 100 100 100 100 100 100 100 100 100 100 100 100 100 100 100 85
100 100 100 100 100 100 100 100 93 100 100 100 100 100 100 100 100 100 99 100 100 100 100 5 4 21 79 35 100 100 100 100 100 100 100 100 100 100 100 100 100 100 100 100 100 100 100 100 100 100 100 100 100 100
100 100 100 100 100 62 70 26 93 83 100 100 100 100 100 100 100 100 100 99 100 100 100 76 8 5 57 34 92 100 100 100 92 100 100 100 100 100 99 100 100 100 100 100 100 100 100 100 100 98 100 100 100 100
100 100 100 100 98 100 100 100 80 95 100 100 100 100 100 100 100 100 100 100 100 100 100 100 22 46 58 4 7 98 78 70 100 100 100 100 100 100 100 100 100 100 100 100 100 100 100 100 100 99 100 100 100 100
100 100 100 100 100 100 100 100 100 18 49 100 100 100 100 100 100 100 100 100 100 100 100 100 98 5 82 6 100 100 100 100 100 100 100 100 100 100 100 100 100 100 100 100 100 100 100 100 100 100 100 100 100 100
100 100 100 100 100 98 73 100 72 79 61 98 100 100 100 100 100 100 100 100 100 100 100 100 100 100 34 100 100 100 100 100 100 100 100 100 100 100 100 100 100 100 100 100 100 100 100 100 100 100 100 100 100 100
100 100 100 92 100 100 100 95 100 98 100 100 100 100 100 100 100 100 100 100 99 100 100 100 100 98 92 92 100 100 100 100 100 100 100 100 100 100 100 100 100 100 100 100 100 100 100 100 100 100 100 100 100 100
100 100 100 89 100 100 100 100 100 100 100 100 100 100 100 100 100 100 100 100 100 100 91 100 100 100 100 100 100 100 100 100 100 100 100 100 100 100 100 100 100 100 100 100 100 100 100 100 100 100 100 100 100 100
100 100 100 100 100 100 100 100 100 100 100 100 100 100 100 100 100 100 100 100 100 100 100 100 100 100 100 100 100 100 100 100 100 100 100 100 100 100 100 100 100 100 100 100 100 100 100 100 100 100 100 100 100 100
100 100 98 100 100 100 100 100 100 100 100 100 100 100 100 100 100 100 100 100 100 100 50 100 100 100 100 100 99 100 100 100 100 98 100 100 100 100 100 100 100 100 100 100 99 100 100 94 100 99 95 99 100 100
100 100 100 100 100 100 100 100 100 100 100 100 100 100 100 100 100 100 99 100 76 100 98 100 100 100 100 100 100 100 100 88 100 98 100 100 100 100 100 100 100 100 100 100 100 100 100 100 100 100 100 100 100 94
100 100 100 100 100 100 100 100 100 100 100 100 100 100 100 100 100 100 98 85 100 100 100 100 100 100 100 100 100 100 100 100 96 98 100 100 100 97 100 100 100 100 100 100 100 100 100 100 99 95 97 95 88 90
100 100 100 100 100 100 100 100 100 100 100 100 95 50 93 98 100 100 100 100 100 100 100 100 100 100 100 100 100 100 100 100 100 100 100 100 100 100 96 99 100 100 100 100 100 100 100 100 100 100 100 88 83 89
100 100 100 100 100 100 100 100 100 100 100 97 94 94 94 95 100 100 96 100 94 100 100 98 91 98 100 100 100 100 100 100 100 100 100 100 100 100 100 100 98 100 100 100 97 93 98 98 98 100 98 94 87 80
100 100 100 100 100 100 100 100 100 100 100 100 100 100 100 100 100 100 100 100 99 100 100 100 100 100 100 100 100 100 100 100 100 100 100 100 100 100 100 95 96 91 98 92 100 94 97 100 100 99 100 95 97 90
100 100 100 100 100 100 100 100 100 100 100 100 100 100 100 86 100 100 99 100 100 100 100 100 100 100 100 100 100 100 100 100 100 100 100 99 100 97 97 100 100 100 100 100 100 100 100 98 99 99 100 100 98 76
100 100 100 100 100 100 100 100 100 100 100 100 100 100 100 100 100 100 100 100 100 100 100 100 100 100 100 100 100 100 100 100 100 100 100 100 100 100 100 100 100 100 100 100 99 88 85 79 85 100 79 56 87 100
100 100 100 100 100 100 100 98 99 100 100 100 100 100 100 100 100 100 100 100 100 96 91 92 97 100 100 100 100 100 100 100 100 100 100 100 95 100 99 100 97 98 97 97 100 100 70 67 80 98 96 92 100 96
100 100 100 100 100 91 100 90 97 97 100 93 100 100 99 100 100 100 90 92 90 82 79 97 100 100 100 100 100 100 100 98 98 100 100 100 100 100 100 100 100 100 100 100 97 96 91 86 89 46 57 67 100 100
46 69 92 98 100 75 77 90 97 99 98 100 100 100 100 100 99 99 94 98 100 100 100 100 100 100 100 98 100 100 100 100 100 100 97 100 100 100 100 100 100 100 100 100 100 73 54 100 100 100 100 100 100 70
57 25 60 75 78 47 82 96 95 94 100 100 100 100 100 100 100 100 100 100 100 100 100 100 100 100 100 100 100 100 96 71 74 65 89 86 100 100 100 100 100 97 97 90 98 98 100 95 63 100 100 82 93 89
76 21 38 68 56 79 85 95 99 100 100 100 100 100 100 100 100 100 99 100 100 100 100 100 100 100 100 100 100 100 100 100 100 100 100 100 100 76 98 97 96 92 100 96 80 100 99 50 69 49 69 97 100 78
75 87 76 46 70 96 72 99 100 100 100 100 100 100 100 99 100 100 100 100 100 100 100 100 100 100 100 100 100 99 100 100 100 100 91 100 100 68 74 83 94 80 60 85 92 96 96 99 24 98 58 92 82 17
90 74 62 71 62 76 98 99 100 99 97 100 100 100 100 100 100 100 100 100 100 100 100 100 100 100 100 99 100 62 79 100 100 96 53 77 68 80 69 25 41 6 49 100 100 100 96 16 100 96 82 100 80 5
86 85 100 100 100 100 100 94 97 100 100 100 100 100 100 100 100 100 100 100 100 100 100 100 100 100 100 100 100 100 90 70 97 71 39 56 62 81 89 84 100 100 99 73 95 98 100 100 77 91 97 100 96 53
100 99 79 69 98 100 100 100 100 100 100 100 100 99 91 96 100 100 100 100 100 100 100 100 100 100 97 99 93 93 36 56 45 39 6 5 48 85 98 100 100 95 96 89 100 100 98 96 100 100 100 100 100 100
86 98 83 99 100 82 92 100 100 100 98 39 34 92 97 98 100 100 100 100 100 100 100 98 98 98 100 100 100 81 57 47 49 36 74 94 89 88 86 72 6 1 47 38 29 56 100 100 100 100 100 100 100 100
100 100 100 99 69 93 100 100 100 98 97 100 100 100 100 100 100 100 100 100 100 100 100 100 100 100 100 100 100 100 100 96 100 9 12 88 100 100 100 97 100 100 100 100 100 98 98 53 100 97 66 77 94 100
100 90 78 76 88 100 100 100 100 100 100 100 100 100 100 100 100 100 100 100 100 100 100 100 100 100 100 100 99 100 100 100 99 100 100 100 100 96 97 100 100 100 98 100 100 100 99 100 95 100 97 100 100 100
100 94 57 100 100 100 100 100 100 100 100 100 94 95 100 100 100 100 100 100 100 100 100 100 100 100 99 99 100 100 100 94 31 41 82 97 100 100 97 79 100 100 100 100 100 100 100 88 100 100 100 95 33 16
100 95 60 95 100 100 100 100 100 100 100 100 100 100 100 100 100 100 100 100 100 100 100 100 100 100 100 98 100 100 72 80 99 89 93 100 100 100 100 100 100 100 100 100 100 100 100 98 98 88 89 97 55 28
100 100 80 90 100 99 94 100 100 100 100 100 100 99 98 100 100 100 100 100 100 100 100 100 100 100 100 100 100 98 87 66 6 5 5 18 5 5 58 100 97 100 100 100 100 100 99 100 80 35 5 5 10 5

GFSWCAN_prec_cloud_075.txt.gz
Cloud_Cover
9 5 5 6 97 97 100 99 80 92 99 84 62 31 56 100 26 31 53 6 54 100 70 14 70 79 54 97 100 89 97 99 66 15 10 5 57 67 100 100 95 92 100 100 100 97 100 100 100 100 100 100 100 100
5 5 61 99 82 100 100 100 100 98 100 100 78 50 19 97 76 58 78 5 39 92 14 48 41 5 5 71 96 100 100 100 82 83 13 96 100 100 100 100 100 87 100 100 100 100 100 100 100 100 100 100 100 100
5 60 34 50 100 100 100 100 100 100 100 100 100 96 99 100 100 77 100 20 85 80 100 100 97 50 12 91 100 100 100 100 82 100 100 100 100 100 100 100 100 100 100 100 100 100 100 100 100 100 100 100 100 100
5 5 87 100 100 100 100 100 100 100 100 100 100 100 81 100 100 100 100 66 33 56 99 100 8 5 46 100 89 100 100 100 100 100 100 100 100 100 100 100 100 100 100 100 100 100 100 100 100 100 100 100 100 100
5 98 100 100 100 100 100 100 100 100 91 100 100 100 100 100 94 100 100 100 100 69 80 91 10 2 5 8 100 100 100 100 100 90 100 100 100 100 100 100 100 100 100 100 100 100 100 100 100 100 100 100 100 100
100 100 100 100 100 100 100 100 100 100 89 98 100 100 100 100 100 100 100 100 100 99 100 95 67 5 3 15 100 100 69 99 100 100 100 100 100 100 100 100 100 100 100 100 100 100 100 100 100 92 100 100 100 100
100 100 100 100 100 100 95 96 100 100 100 72 99 100 100 100 100 100 100 100 100 100 100 100 100 19 1 56 92 89 56 100 100 100 100 100 100 100 100 100 100 100 100 100 100 100 100 100 100 100 100 100 100 100
100 100 100 100 88 100 100 100 100 100 100 27 95 100 100 100 100 100 100 100 100 100 100 100 91 100 64 80 86 98 100 100 100 100 100 100 100 100 100 100 100 100 100 100 100 100 100 100 100 94 100 100 100 100
100 100 100 95 99 100 100 100 100 98 99 100 100 100 100 100 100 100 100 100 100 80 100 100 96 100 89 100 100 100 100 100 100 100 100 100 100 100 100 100 100 100 100 100 100 100 100 100 100 100 99 99 100 100
100 100 96 100 100 100 100 100 100 100 100 100 100 100 100 100 100 100 100 100 100 100 90 100 97 100 100 100 100 100 100 100 100 100 100 100 100 100 100 100 100 100 100 100 100 100 100 100 100 100 100 100 100 100
100 97 99 100 100 100 100 100 100 100 100 100 100 100 100 100 100 100 100 100 100 100 94 100 100 100 100 100 100 100 100 100 100 100 100 100 100 100 100 100 100 100 100 100 100 100 100 100 100 100 100 100 100 100
100 100 100 100 100 100 100 100 100 100 100 100 100 100 100 100 100 100 98 100 94 91 100 100 100 100 100 100 98 96 100 100 100 100 100 100 100 100 100 100 100 100 88 44 59 81 96 100 100 100 100 100 100 94
100 100 100 100 100 100 100 100 100 100 100 100 100 100 100 99 98 77 100 100 100 100 99 96 100 100 100 100 100 100 100 100 100 100 100 100 100 100 100 67 37 78 71 63 88 81 98 100 80 100 100 100 98 98
100 100 100 100 100 100 100 100 100 100 100 100 100 100 100 99 100 100 100 100 100 100 100 100 100 100 100 96 100 100 95 77 99 100 100 100 92 64 46 35 7 74 29 17 42 40 70 91 99 96 88 56 20 87
100 100 100 100 100 100 100 100 100 100 100 100 100 100 100 100 100 100 100 98 100 100 99 98 100 100 99 95 98 100 100 100 100 100 100 100 93 84 78 92 100 98 87 81 42 69 63 21 84 100 60 5 7 5
100 100 100 100 100 100 97 97 98 100 100 100 72 91 98 97 99 100 100 100 95 100 100 100 96 100 100 100 86 95 100 97 100 96 100 100 99 69 98 99 96 96 93 89 75 63 59 14 33 73 20 12 5 5
100 100 100 100 100 100 100 100 100 100 100 95 100 98 100 58 84 96 100 100 100 100 100 98 93 100 70 99 100 100 100 100 100 100 81 82 43 82 99 99 100 90 95 93 75 18 6 24 64 48 68 49 5 7
100 100 100 100 100 100 100 100 100 100 89 99 96 100 100 81 98 99 100 97 93 97 53 85 82 97 100 100 100 100 100 100 71 74 77 95 98 100 100 95 94 90 92 57 28 99 100 98 88 22 13 30 48 83
100 100 100 100 100 100 100 100 100 100 100 100 100 88 96 96 98 85 84 67 93 48 17 66 99 100 100 100 97 97 78 97 98 100 99 90 88 81 80 96 100 100 100 98 93 81 93 96 70 54 68 99 100 100
100 100 100 100 100 100 100 100 100 100 100 100 100 100 100 98 100 100 98 87 87 71 100 99 98 100 94 96 98 96 100 100 99 89 95 100 100 98 100 95 71 34 64 72 56 86 95 76 11 5 35 95 100 92
100 100 89 100 100 75 80 100 99 99 100 100 100 100 100 100 100 100 100 100 100 100 99 99 100 100 100 100 87 76 89 61 57 9 56 88 74 79 81 87 79 99 100 100 94 65 6 27 27 5 11 55 34 6
100 100 99 79 86 66 64 78 55 90 94 93 93 94 85 89 92 94 79 68 93 100 100 99 98 91 95 79 94 94 95 100 98 55 65 88 93 92 88 95 99 31 8 10 53 84 61 44 20 82 79 54 5 5
74 92 88 82 56 47 91 97 100 100 100 100 100 100 100 100 100 84 98 94 100 97 65 61 63 23 20 51 57 83 94 87 49 11 55 96 99 88 49 24 5 69 100 74 5 36 41 7 5 12 8 72 100 100
75 97 90 52 53 86 83 100 100 96 99 99 100 100 100 100 83 79 96 100 98 70 32 12 41 63 86 77 56 57 96 70 23 74 100 97 92 52 15 5 5 5 9 5 5 5 18 7 5 95 90 5 75 78
82 50 34 25 26 39 54 88 94 99 100 96 95 99 97 99 98 85 93 99 100 98 60 76 85 95 74 92 78 87 100 98 64 56 65 70 72 41 46 9 6 5 5 54 99 100 50 8 11 5 5 5 5 6
76 74 85 78 99 100 100 100 100 100 100 100 100 100 100 100 99 100 91 100 100 100 100 100 99 100 97 70 97 94 68 69 94 71 5 5 9 54 67 75 89 74 10 22 5 17 98 100 100 53 13 39 93 81
89 87 82 90 95 100 100 100 100 100 100 100 100 100 55 58 84 99 100 96 99 100 100 100 100 100 96 96 100 84 88 97 77 5 5 5 5 5 19 67 96 92 88 7 33 5 26 69 38 58 88 82 100 100
77 95 57 80 81 92 92 100 100 97 60 100 64 70 82 91 100 100 100 100 94 100 100 100 100 95 83 78 100 87 35 18 5 5 8 24 32 26 5 5 5 4 8 5 16 5 5 5 6 60 78 70 81 74
96 100 100 100 100 97 78 99 100 79 78 89 88 100 100 100 100 100 97 94 100 100 100 75 79 72 82 96 97 97 94 98 100 8 55 100 92 69 36 39 100 89 22 83 98 100 94 92 28 5 40 44 12 17
100 100 100 99 64 88 100 97 92 56 55 93 100 100 98 100 100 93 88 86 90 100 96 81 70 46 56 16 84 75 33 28 63 77 85 97 96 99 82 44 22 19 39 68 5 5 50 79 29 54 100 100 100 99
88 48 44 54 84 99 100 100 93 90 90 94 74 80 98 100 100 100 100 96 85 96 99 100 100 98 78 91 80 95 100 35 42 22 5 17 63 42 21 5 5 28 95 64 5 22 6 31 5 5 9 17 20 16
54 43 56 64 100 100 100 84 87 96 98 97 99 89 87 87 84 100 100 96 100 100 100 61 61 99 62 53 54 35 46 72 78 66 51 93 57 53 52 90 90 86 16 5 73 95 99 53 52 8 5 5 5 5
90 72 56 55 81 95 100 81 100 100 100 100 100 100 100 90 95 91 100 98 91 95 100 90 98 56 54 38 44 93 82 62 29 60 77 86 65 52 24 24 20 8 27 5 5 60 66 84 92 65 8 5 5 9

GFSWCAN_prec_cloud_078.txt.gz
Cloud_Cover
58 83 5 5 5 5 5 43 97 92 86 100 89 79 88 35 50 92 97 5 21 99 33 5 76 5 5 5 69 100 100 100 96 68 34 5 10 4 11 90 99 63 100 97 100 100 100 100 100 100 100 100 100 100
60 5 5 6 5 80 100 98 94 100 16 49 92 98 70 42 100 87 100 27 5 84 8 42 27 3 1 14 32 100 100 100 100 84 12 91 76 95 100 100 100 100 82 100 100 100 100 100 100 100 100 100 100 100
5 5 8 99 99 44 67 100 100 100 100 99 100 100 83 89 78 94 100 86 19 88 33 6 1 4 4 5 5 97 100 100 100 100 100 100 100 100 100 100 100 100 94 100 100 100 100 100 100 100 100 100 100 100
5 5 92 87 23 47 97 100 100 100 100 100 100 99 100 64 37 92 100 100 36 29 51 4 2 5 4 0 5 89 100 82 100 100 100 100 100 100 100 100 100 100 100 96 100 100 100 100 100 100 100 100 100 100
46 62 24 81 100 100 100 100 100 100 100 99 100 100 100 100 94 100 100 100 62 5 44 33 12 5 0 0 12 92 100 100 100 100 100 100 100 100 100 100 100 100 100 100 100 100 100 100 100 100 100 100 100 100
6 5 72 100 97 94 100 100 100 100 100 100 100 100 100 100 99 100 100 100 100 98 99 95 38 58 19 96 100 88 100 100 100 100 100 100 100 100 100 100 100 100 100 100 100 100 100 100 100 100 100 100 100 100
8 28 96 99 100 100 100 100 100 100 100 100 99 100 100 100 100 100 100 100 100 100 100 96 100 25 100 99 100 96 100 99 100 100 100 100 100 100 100 100 100 100 100 100 100 100 100 100 100 100 100 100 100 100
100 100 100 100 100 100 100 100 100 100 100 96 97 100 100 100 100 100 100 100 100 100 100 98 96 100 48 100 100 98 91 85 100 100 100 100 100 100 100 100 100 100 100 100 100 100 100 100 100 100 100 100 100 100
100 100 100 48 100 100 100 99 100 100 100 98 100 100 100 100 100 100 100 100 100 97 85 98 100 100 98 100 87 92 100 100 100 100 100 100 100 100 100 100 100 100 100 100 100 100 100 100 100 100 100 98 91 100
100 81 59 64 100 100 100 100 100 100 100 100 100 100 100 100 100 100 100 100 100 100 100 100 100 100 100 100 100 100 100 100 100 100 100 99 100 100 99 91 100 100 96 46 100 100 100 100 100 100 100 100 100 100
100 83 84 100 98 94 92 100 100 100 100 100 100 100 100 100 100 100 100 100 100 100 91 90 100 100 100 100 100 100 100 100 100 100 100 99 100 100 100 100 89 62 39 99 97 99 100 100 100 100 100 100 100 100
100 99 100 100 79 100 100 100 100 100 100 92 100 100 100 100 100 97 96 100 96 94 100 100 100 100 100 100 100 100 100 100 100 100 100 100 100 100 100 100 100 80 66 89 87 100 99 100 100 99 100 100 100 94
100 100 100 100 99 100 100 100 100 100 100 100 100 100 100 100 100 99 100 100 100 100 100 100 100 100 100 100 100 97 89 97 100 100 100 100 100 98 100 100 100 99 92 97 100 100 99 100 79 73 100 100 100 100
100 100 100 100 100 100 100 100 100 100 100 100 100 81 74 96 100 100 100 96 100 100 100 100 100 100 100 93 100 100 100 100 98 100 100 89 100 100 78 70 19 80 52 73 85 80 93 89 100 88 84 69 44 86
100 100 100 100 100 100 100 100 100 100 100 100 100 98 100 100 100 100 100 100 100 100 100 100 100 100 100 100 100 100 100 100 100 95 100 100 100 100 97 87 80 96 86 92 70 70 86 75 84 100 82 68 63 58
100 100 100 100 100 100 100 100 100 100 100 100 100 100 100 100 98 100 99 100 100 100 100 100 100 100 100 100 100 100 100 100 100 100 100 99 100 100 100 100 86 68 66 89 72 64 39 54 68 95 43 47 48 59
100 100 100 100 100 100 100 100 100 100 100 100 100 100 92 94 100 99 100 100 100 100 100 99 96 100 100 100 100 100 100 98 100 100 100 100 92 100 90 93 100 100 98 98 77 66 71 49 53 32 22 10 7 5
100 100 100 100 100 98 90 90 87 70 98 100 88 100 99 95 82 100 100 99 98 98 100 94 93 97 100 99 100 100 100 100 100 97 99 92 100 100 93 74 70 49 67 72 70 91 85 78 93 100 90 85 51 17
100 100 100 100 100 100 99 100 79 66 94 87 100 93 88 93 93 77 96 98 91 100 84 78 88 97 99 100 100 100 100 98 95 100 100 100 100 92 81 50 47 51 69 96 77 82 95 99 97 100 100 97 100 100
100 100 100 100 100 100 99 100 100 87 68 83 85 94 86 92 83 95 88 80 92 78 89 72 99 100 100 84 79 96 100 100 100 100 100 100 84 22 45 5 17 69 96 96 56 90 60 22 15 15 56 74 100 100
100 100 100 100 100 100 100 100 100 100 91 48 56 73 77 72 75 67 82 80 82 80 100 97 100 100 100 100 100 100 100 96 77 38 80 91 69 79 95 92 96 100 94 99 84 65 55 77 73 34 40 92 5 5
92 79 99 100 100 100 100 100 100 100 100 100 100 87 86 78 84 88 83 94 86 100 94 100 100 100 99 97 86 55 33 17 9 25 59 31 75 54 62 94 91 82 74 75 56 56 66 73 68 41 76 92 53 51
84 84 83 96 100 100 100 100 100 100 100 100 96 92 87 85 33 52 85 97 100 100 100 99 98 77 59 75 74 84 100 88 5 5 18 82 70 44 46 22 5 8 10 63 33 5 5 38 5 15 30 81 55 82
66 87 74 63 100 100 100 100 100 100 98 92 98 79 65 64 91 88 100 100 99 99 89 69 28 61 87 86 45 56 49 57 61 56 73 97 100 46 65 7 5 40 15 48 44 61 34 5 35 55 54 70 46 99
68 42 33 50 84 95 100 100 100 100 100 100 87 80 81 96 97 93 87 100 93 75 62 50 64 97 99 100 79 100 98 90 86 87 100 92 55 32 5 5 48 60 29 49 93 64 78 90 38 5 6 29 5 5
65 55 97 99 100 100 100 100 100 97 69 87 100 92 88 72 40 96 86 85 61 87 72 97 66 66 69 95 94 76 80 90 98 64 67 70 59 48 15 56 86 81 64 40 16 74 78 99 88 79 35 64 76 58
87 100 100 100 100 100 100 100 100 100 100 100 90 66 46 94 100 99 93 86 96 100 90 94 92 100 100 100 100 99 70 37 39 50 30 65 9 20 11 58 95 76 78 9 20 10 87 98 100 100 99 98 100 100
100 100 100 100 100 100 100 98 99 98 99 99 90 87 55 27 89 100 100 100 95 72 66 100 93 82 90 81 37 42 48 10 42 14 37 39 42 13 5 5 19 68 44 5 6 30 10 42 96 83 41 14 40 41
100 100 99 100 98 63 93 97 100 92 93 99 35 91 98 94 98 87 100 81 67 81 72 71 100 93 99 87 60 60 65 78 62 100 99 100 98 90 88 84 15 10 83 73 67 78 94 100 88 85 31 73 87 99
100 95 94 77 58 97 100 92 86 96 98 78 72 100 98 100 100 100 96 99 96 68 57 59 73 9 57 19 98 68 87 87 68 89 74 88 57 97 100 98 78 58 90 29 61 29 54 28 36 17 61 32 74 85
38 48 42 34 93 96 93 100 90 83 27 61 48 39 98 100 100 100 100 98 80 63 68 91 85 27 55 89 96 100 91 62 75 88 65 64 88 80 59 52 29 74 17 22 60 100 90 62 56 61 50 22 15 38
42 25 39 52 100 98 88 48 75 100 99 76 97 68 99 98 88 100 100 100 86 75 86 78 96 96 100 98 100 100 78 88 91 92 81 88 99 100 94 76 94 63 51 60 64 73 75 54 68 63 58 38 51 29
90 80 74 51 100 94 98 80 99 100 87 95 99 100 98 71 88 91 99 90 48 88 100 100 100 100 100 100 100 98 81 63 96 69 97 95 26 81 59 11 19 12 5 5 44 71 86 69 83 67 37 65 65 65

GFSWCAN_prec_cloud_084.txt.gz
Cloud_Cover
100 100 100 100 100 100 100 100 100 41 5 5 7 20 5 5 48 100 100 100 100 82 13 5 20 49 80 90 85 100 100 100 100 100 92 46 64 99 100 98 100 100 90 93 100 100 100 100 85 87 100 100 100 100
100 100 100 100 100 100 100 100 96 10 5 72 45 80 9 5 46 100 100 100 100 100 5 6 56 74 5 36 100 100 100 100 100 100 100 100 100 100 100 100 100 100 100 99 92 87 100 100 100 100 100 100 100 100
94 100 100 100 100 100 100 100 98 27 100 96 63 35 53 13 23 70 100 98 100 100 76 17 5 28 87 100 100 100 100 100 100 100 100 100 100 100 100 100 100 97 99 100 100 100 100 100 100 100 100 100 100 100
86 41 100 100 100 100 100 100 100 58 95 64 100 100 99 27 74 81 100 89 92 68 78 22 0 0 5 12 80 100 100 100 100 100 100 100 100 100 100 94 84 86 96 100 100 100 100 100 100 100 100 100 100 100
80 99 100 100 100 100 100 68 6 24 87 100 95 100 99 78 100 87 100 98 98 84 21 5 2 4 5 5 5 81 100 100 89 89 98 75 100 100 100 98 94 100 100 100 100 100 100 100 100 100 100 100 100 100
100 100 9 6 87 60 95 5 36 92 79 98 100 100 100 100 100 100 100 100 100 100 99 73 3 5 5 5 5 5 70 100 92 88 83 100 100 100 100 100 100 99 100 100 100 100 100 100 100 100 100 100 100 100
29 7 5 14 92 5 5 5 97 100 96 100 100 100 100 100 100 100 91 35 97 100 100 98 9 5 5 5 1 4 7 99 84 98 87 100 100 100 100 100 100 100 100 100 100 100 100 100 100 100 100 100 100 100
38 5 5 5 5 5 5 86 100 100 100 100 100 100 100 100 100 100 99 100 100 100 100 100 26 23 36 20 40 46 86 97 71 61 100 100 100 100 100 100 100 100 100 100 100 100 100 100 100 100 100 100 100 100
5 5 5 48 25 77 100 100 100 100 100 100 100 100 100 100 100 100 97 100 100 100 100 100 100 73 63 100 94 84 97 89 75 100 100 100 100 100 100 100 100 100 100 100 100 100 100 100 100 100 100 100 100 100
5 5 44 96 100 100 100 100 100 100 100 100 100 100 100 100 100 100 100 100 100 100 100 48 40 86 76 100 100 91 98 86 100 100 100 100 100 100 98 100 100 100 100 100 100 100 100 100 100 100 100 100 100 100
11 94 100 100 100 100 100 100 100 100 100 100 100 100 100 100 100 100 100 100 100 100 100 100 60 100 100 100 87 80 99 100 100 100 100 100 100 100 100 100 100 100 100 100 100 100 100 100 100 100 100 100 100 100
100 100 100 100 100 100 100 100 100 100 100 100 99 100 100 100 100 100 100 98 96 63 72 88 59 100 100 97 98 100 100 100 100 100 100 100 100 100 100 100 100 100 100 100 88 100 100 100 97 100 100 100 99 76
100 100 100 100 98 100 100 100 100 100 100 100 100 100 100 100 100 100 100 100 100 78 100 100 94 93 100 100 100 100 100 100 98 100 100 100 100 100 100 92 100 100 94 67 90 73 63 72 44 22 99 86 61 82
100 100 100 71 99 100 100 100 100 100 100 100 100 100 54 100 100 100 100 100 40 96 95 100 100 96 100 100 100 98 71 94 97 92 100 100 95 100 57 35 43 76 86 94 84 49 65 79 100 94 83 22 11 48
100 100 100 100 100 79 100 100 100 100 100 100 60 89 68 100 100 100 100 76 100 100 98 100 99 100 100 100 100 100 100 99 70 33 61 98 88 100 100 97 95 75 66 77 63 87 98 61 79 99 90 40 5 10
100 100 100 100 100 100 100 100 100 100 100 99 77 100 100 100 100 100 100 100 100 100 99 100 100 100 100 100 100 90 100 93 100 100 100 86 79 81 95 100 100 100 100 83 67 43 76 50 36 96 55 50 57 5
100 100 100 100 100 100 100 100 100 100 100 100 100 100 100 100 100 100 100 100 100 100 100 100 100 100 100 100 100 100 100 99 100 100 100 100 100 100 99 59 54 91 95 98 99 100 100 95 92 46 31 9 5 20
100 100 100 100 100 100 100 100 100 99 100 100 100 100 100 100 100 100 100 100 100 100 100 100 100 74 100 100 100 100 100 100 100 100 100 100 95 100 100 100 100 100 89 67 42 50 62 74 96 100 96 90 79 89
100 100 100 100 100 100 100 100 100 100 100 100 100 100 100 100 100 100 100 100 98 94 87 97 100 100 100 100 100 100 100 100 100 100 100 100 100 100 96 85 100 85 69 81 69 86 92 96 62 86 90 99 100 100
100 100 100 100 100 100 100 100 100 100 70 92 97 99 89 98 100 100 100 97 72 79 93 100 100 100 100 100 100 100 100 100 100 100 100 100 94 57 81 66 82 73 99 100 50 10 51 62 59 68 70 68 64 77
100 100 96 100 100 100 98 90 53 11 80 53 72 99 93 100 100 99 99 87 96 100 100 100 100 100 100 100 100 100 100 100 99 96 96 100 97 62 76 93 81 81 29 64 67 88 62 64 65 34 43 30 28 38
100 100 100 96 98 35 17 5 22 23 41 90 90 76 84 98 100 98 98 100 100 100 100 100 100 100 98 98 99 95 97 100 97 55 48 36 94 97 98 91 79 93 91 82 64 38 65 66 59 44 94 80 62 21
100 100 100 100 100 81 85 68 12 50 52 94 90 49 56 56 59 100 100 100 100 100 100 100 95 92 89 64 61 68 60 61 76 58 57 62 74 81 100 96 57 60 75 95 35 7 5 33 28 68 50 97 99 100
100 100 100 100 94 82 90 77 45 33 100 97 81 85 57 38 81 79 94 93 99 100 96 99 82 96 86 20 77 99 85 68 56 45 86 100 95 91 56 59 69 77 93 53 19 53 6 54 100 85 100 100 97 77
100 100 100 100 100 98 86 83 75 50 86 73 67 95 90 41 67 51 65 84 99 100 100 90 74 100 79 100 100 98 74 20 9 77 99 88 78 43 70 76 86 74 40 68 100 99 98 95 92 68 56 98 57 61
100 100 100 100 100 100 89 94 50 54 46 28 37 88 89 38 30 10 36 53 93 94 84 86 100 94 81 70 67 63 57 62 99 100 90 70 52 59 71 79 34 65 42 35 86 100 100 100 98 99 100 100 100 100
100 100 100 100 100 100 100 99 26 8 59 69 92 99 51 11 27 88 91 86 92 100 100 89 60 83 100 90 92 62 90 100 100 100 82 46 74 89 49 100 96 77 79 62 59 79 98 100 100 100 100 100 95 100
74 84 75 100 100 100 93 60 77 98 100 100 76 66 13 7 67 100 100 100 100 68 72 96 100 100 99 76 97 100 100 100 100 85 71 53 77 65 84 99 100 71 72 60 90 83 87 100 100 100 100 100 100 100
42 90 88 85 37 57 98 100 98 94 98 100 40 94 100 99 96 100 100 100 64 76 74 92 100 96 88 100 100 100 100 97 60 90 100 100 96 82 100 100 100 99 95 76 93 99 99 100 100 100 100 100 100 100
60 44 62 68 58 100 100 100 98 100 99 98 67 72 82 100 100 100 100 98 59 64 74 69 78 75 100 96 97 97 90 98 100 100 100 84 92 100 100 100 100 100 100 99 98 71 71 55 55 49 50 47 76 62
17 13 24 11 94 91 100 100 99 100 90 59 49 49 88 96 100 100 100 100 100 99 78 72 99 85 89 91 85 100 92 100 100 100 98 87 100 100 98 99 100 99 88 100 100 100 100 100 100 100 100 97 76 73
5 40 49 92 88 93 92 81 82 97 100 99 100 70 80 76 91 83 98 100 100 100 100 100 100 97 96 95 99 94 100 100 100 100 95 100 100 100 100 100 100 100 91 99 100 100 99 100 100 100 100 99 62 44
68 41 84 96 98 100 70 20 55 51 99 100 100 100 87 85 98 86 94 93 100 100 100 94 100 100 100 100 100 100 100 100 100 100 100 100 100 99 41 60 41 10 11 46 56 29 5 5 5 5 28 49 32 7

GFSWCAN_prec_cloud_087.txt.gz
Cloud_Cover
100 100 100 100 100 100 100 100 100 100 100 100 100 19 25 99 60 94 100 100 100 62 6 5 12 100 97 82 96 100 100 100 100 95 100 100 100 100 82 8 35 71 83 91 100 97 100 100 99 74 100 100 100 100
100 100 100 100 100 100 100 100 100 100 100 100 88 62 100 100 79 94 100 100 100 98 5 5 3 99 27 14 98 100 100 100 100 100 100 100 100 52 86 83 94 100 100 100 100 100 100 100 100 100 100 100 100 100
100 100 100 100 100 100 100 100 100 100 100 100 99 58 100 96 90 43 100 100 100 100 58 5 4 5 20 19 100 100 100 100 100 100 100 100 100 98 100 93 61 36 100 100 100 100 100 100 100 100 100 100 100 100
100 100 100 100 100 100 100 100 100 100 100 100 72 30 88 96 29 72 100 93 100 55 78 3 4 8 5 98 100 100 100 100 100 100 100 100 100 100 100 100 100 100 100 100 100 100 100 99 100 100 100 100 100 100
100 92 96 100 100 75 41 94 100 100 100 79 28 26 100 100 63 68 97 95 46 71 6 5 0 2 5 13 100 41 98 100 100 100 100 100 100 100 100 100 100 97 100 100 100 100 100 100 100 100 100 100 100 100
96 98 5 100 100 12 5 17 63 100 81 88 75 79 100 100 95 100 100 95 69 100 95 68 1 3 3 7 6 16 100 100 100 100 100 100 100 100 100 100 100 100 100 100 100 100 100 100 100 100 100 100 100 100
5 9 99 100 38 5 5 61 90 70 65 100 100 100 100 100 99 100 90 88 76 100 99 99 8 2 5 5 5 6 64 99 99 97 99 99 100 100 100 100 100 100 100 100 100 100 100 100 100 100 100 100 100 100
100 100 100 53 5 5 61 17 5 6 95 100 100 100 100 100 100 100 93 86 100 100 91 97 34 5 42 54 48 52 96 62 91 100 87 100 100 100 100 100 100 100 100 100 100 100 100 100 100 100 100 100 100 100
100 100 17 5 5 5 55 5 66 99 100 98 100 100 100 100 100 100 100 99 100 100 91 83 94 22 96 94 98 100 96 96 68 100 100 100 100 100 100 100 100 100 100 100 100 100 100 100 100 100 100 100 100 100
100 9 5 5 5 5 9 100 100 100 100 100 100 100 100 100 100 100 100 100 100 100 100 98 83 64 33 100 100 100 97 83 99 82 100 100 100 100 100 100 100 100 100 100 100 100 100 100 100 100 100 100 100 100
5 5 29 94 7 10 100 100 100 100 100 100 100 100 100 100 100 100 100 100 97 99 93 79 20 28 92 98 88 50 88 99 100 100 100 100 100 100 100 100 100 100 100 100 100 100 100 100 100 100 100 100 100 100
5 36 100 100 90 100 100 100 100 100 100 100 100 100 100 100 100 100 100 100 100 100 53 79 100 69 100 94 92 97 95 98 100 100 100 100 100 100 100 100 100 100 100 100 100 100 100 100 100 100 100 100 99 78
54 99 100 100 100 100 100 100 100 100 100 100 100 100 100 100 100 100 100 100 100 100 10 86 100 100 99 99 100 100 100 100 100 100 100 100 100 100 100 100 100 100 100 100 100 90 82 84 54 41 89 67 60 44
100 100 100 100 100 100 100 100 100 100 100 100 100 100 96 86 100 100 60 93 90 48 87 70 95 100 100 100 100 100 98 97 100 100 100 100 100 100 99 95 44 96 59 67 84 60 74 77 98 67 12 14 5 37
100 100 100 94 100 100 100 100 100 100 100 98 59 51 80 100 100 99 90 100 100 81 100 100 100 100 100 100 99 89 100 100 97 95 20 99 100 70 61 68 66 72 62 85 69 69 62 24 35 76 26 5 5 5
98 92 100 52 93 84 100 100 100 100 100 98 11 62 98 100 100 100 99 100 100 100 98 68 100 99 99 100 100 100 100 100 82 58 94 97 67 74 100 100 93 55 80 91 87 79 95 96 99 100 96 79 6 5
100 100 100 100 100 100 100 100 100 100 100 87 90 97 61 63 99 96 100 100 99 100 45 89 91 99 100 100 100 100 70 62 98 100 100 100 100 100 100 100 100 100 100 100 100 100 100 81 60 14 5 5 6 5
100 100 100 100 100 100 100 100 100 76 68 100 82 99 100 100 99 100 98 100 100 100 96 100 100 100 100 100 100 100 100 100 100 100 92 100 100 100 100 100 100 100 100 100 100 97 75 24 18 31 52 36 24 74
100 100 100 100 100 100 100 100 100 100 100 100 100 100 100 100 95 77 100 100 99 82 100 98 96 100 100 100 100 100 100 100 100 100 100 100 100 100 100 100 94 87 63 63 35 62 76 90 100 70 88 98 100 100
100 100 100 100 100 100 100 100 100 100 100 100 100 100 100 98 100 100 99 98 100 100 100 100 100 100 100 100 100 100 100 100 100 100 100 100 90 98 85 57 22 32 90 98 92 67 57 58 66 6 5 10 22 56
100 100 100 94 98 98 89 100 100 100 100 100 100 100 100 100 100 100 100 100 100 100 100 100 100 100 100 100 100 100 100 100 100 89 91 99 99 77 96 93 89 89 69 77 65 70 81 76 9 5 5 5 5 5
100 100 100 100 100 100 99 58 100 99 100 100 100 100 100 100 100 99 77 99 100 100 100 100 100 100 100 100 100 100 93 59 32 50 46 49 98 97 98 81 68 72 98 100 98 56 42 20 35 30 72 76 52 53
100 100 100 100 95 17 78 83 25 19 36 97 98 100 94 84 77 61 95 100 100 100 100 100 100 100 100 100 89 46 51 68 63 52 63 59 64 78 83 99 99 68 66 21 29 8 38 30 29 17 55 77 84 80
100 100 99 55 22 91 76 72 12 30 92 80 38 87 61 26 38 94 100 100 100 100 100 100 97 100 85 54 62 89 43 8 69 89 47 89 100 100 100 100 43 7 8 11 53 10 45 5 64 72 95 73 62 14
100 100 100 78 70 6 40 86 71 17 91 62 73 100 69 25 76 100 100 100 100 100 100 100 99 62 76 100 100 92 22 76 85 89 96 100 100 99 88 62 32 55 35 61 53 93 100 100 100 95 86 82 64 80
100 99 100 89 82 61 65 94 79 60 20 68 37 90 53 38 80 53 86 100 97 95 100 84 63 65 73 70 87 77 78 88 90 89 98 100 100 66 64 76 26 46 91 24 44 70 74 95 99 95 94 88 97 100
100 100 100 99 91 70 37 5 6 9 62 90 93 100 77 46 79 98 89 81 59 61 38 13 43 44 20 81 98 100 100 100 100 86 68 79 100 76 100 100 45 54 67 41 56 64 12 79 76 80 75 74 63 76
100 100 100 100 99 54 39 50 75 99 96 100 94 60 68 88 64 98 98 95 95 92 84 82 66 68 87 85 92 100 91 72 67 68 99 88 100 100 100 98 60 80 54 96 100 82 32 10 63 89 99 96 91 100
100 100 100 100 100 99 97 98 96 98 98 100 46 96 100 99 100 99 100 100 100 90 36 81 100 74 70 96 94 78 80 79 98 100 100 99 76 100 92 100 68 75 94 100 100 99 99 81 96 98 98 94 84 99
65 86 93 97 98 99 100 98 97 100 98 98 52 72 96 100 100 100 100 100 90 60 52 37 72 88 95 91 96 83 90 99 99 100 99 96 100 100 100 84 92 100 100 100 89 36 85 47 52 38 37 61 73 75
65 38 55 82 96 98 100 100 100 100 96 69 64 48 79 95 100 100 100 100 100 100 82 69 64 81 90 73 67 99 100 87 98 100 100 100 100 100 100 96 100 100 100 97 92 93 89 87 100 97 76 37 9 17
73 62 67 86 83 90 83 70 90 58 100 99 100 79 94 85 87 88 99 100 100 100 100 93 98 99 87 99 100 98 99 100 100 100 100 100 100 100 100 100 100 100 97 89 80 78 44 6 5 5 5 5 5 5
76 55 96 97 97 100 88 20 43 64 91 99 100 100 89 75 85 85 96 96 99 100 100 100 100 92 100 100 100 100 100 100 100 100 100 100 100 100 100 100 100 70 6 5 5 5 5 5 5 5 5 5 5 5

GFSWCAN_prec_cloud_090.txt.gz
Cloud_Cover
100 100 100 100 100 100 100 100 100 100 100 83 20 49 5 5 66 76 100 97 100 97 80 42 5 32 93 97 82 77 100 100 71 100 100 100 100 100 100 100 90 100 98 100 98 100 99 80 34 67 100 100 100 100
100 100 100 100 100 100 100 100 100 100 100 73 72 12 5 5 75 53 98 94 100 100 99 57 5 5 5 70 88 96 80 100 100 100 100 100 98 100 100 100 99 97 96 100 100 100 100 100 100 100 100 100 100 100
100 100 100 100 100 100 100 100 100 100 94 97 78 41 85 87 81 8 74 100 100 100 87 35 4 0 4 64 67 8 87 57 100 97 100 99 100 100 100 100 98 40 41 100 100 100 100 100 100 100 100 100 100 100
100 100 100 100 100 100 100 100 100 100 100 100 79 65 5 92 90 42 54 87 100 84 64 2 0 4 0 4 5 51 29 98 100 100 100 95 100 100 100 96 79 95 88 99 100 100 100 100 100 100 100 100 100 100
100 100 100 100 100 100 100 100 100 100 100 100 92 5 5 62 88 41 92 100 98 95 91 5 2 0 0 5 5 5 32 99 100 100 100 100 100 100 97 73 99 100 100 100 100 100 99 100 100 100 100 100 100 100
98 90 93 99 100 100 100 100 73 28 74 96 5 5 91 100 100 100 100 94 100 100 71 80 5 3 19 3 4 5 62 100 100 100 100 100 100 100 100 100 100 100 100 100 94 100 86 100 100 100 100 100 100 100
66 86 95 85 100 98 30 5 5 23 98 55 8 63 100 100 99 68 93 70 72 71 91 78 64 5 27 6 8 95 59 100 100 100 100 100 100 100 100 100 100 100 100 100 100 97 100 100 100 100 100 100 100 100
30 60 90 66 87 96 5 0 9 100 76 89 98 100 100 100 100 96 100 76 94 96 100 100 48 12 54 93 100 75 100 100 100 100 100 100 100 100 100 100 100 100 100 100 100 100 100 100 100 100 100 100 100 100
35 64 70 97 92 7 5 5 6 78 69 100 100 100 100 100 100 100 88 100 100 64 100 100 89 78 86 95 36 80 83 71 90 100 100 100 100 100 100 100 100 100 100 100 100 100 100 100 100 100 100 100 100 100
100 99 100 100 99 5 2 5 5 7 98 100 100 100 100 100 100 100 100 100 100 100 100 98 24 30 45 98 91 71 68 98 100 91 100 100 100 100 100 100 100 100 100 100 100 100 100 100 100 100 100 100 100 100
100 100 97 96 10 5 1 11 95 90 100 100 100 100 100 100 100 100 100 100 100 84 90 98 71 51 54 93 88 89 94 98 100 87 100 100 100 100 100 100 100 100 100 100 100 100 100 100 100 100 100 100 100 99
100 96 64 5 5 5 5 17 88 100 100 100 100 100 100 100 100 100 100 100 98 98 97 94 97 63 100 100 74 94 100 96 99 91 100 100 100 100 100 100 100 100 100 100 100 100 99 100 100 100 100 98 94 96
73 20 5 5 5 6 81 94 100 100 100 100 100 100 100 100 100 100 100 82 85 72 82 96 78 88 98 97 64 99 96 95 85 100 100 100 100 100 100 100 98 100 100 100 100 100 100 100 97 94 98 100 76 16
5 5 5 16 82 100 100 100 100 100 100 100 95 98 90 95 100 100 100 68 44 16 39 100 97 82 69 96 100 100 100 100 100 99 100 100 100 100 98 99 95 94 100 99 100 98 94 82 92 84 86 58 5 5
15 22 63 83 100 100 100 100 100 100 100 100 100 84 76 66 100 100 91 95 100 87 88 91 99 71 100 100 98 100 100 100 100 99 97 100 100 100 100 100 100 100 100 100 100 91 88 89 97 89 86 40 6 5
90 97 99 100 100 100 100 100 100 100 100 99 25 71 92 96 100 100 100 100 100 100 59 60 100 100 97 92 94 100 89 97 97 99 99 100 100 100 100 100 100 100 100 100 100 96 97 88 42 34 81 64 42 28
100 100 100 100 100 100 100 100 100 100 100 100 88 86 95 88 90 100 100 100 99 76 89 73 93 76 100 76 97 84 99 94 100 96 100 99 82 97 100 100 100 100 100 100 100 100 68 59 85 94 99 75 82 33
100 100 100 100 100 100 100 100 100 98 93 85 84 100 93 100 85 100 100 100 100 72 83 54 21 88 98 98 100 100 100 100 100 99 100 100 100 100 100 100 100 100 98 90 69 66 63 86 95 100 73 74 22 81
100 100 100 100 100 100 100 100 100 99 98 96 99 100 99 93 100 95 100 86 56 70 87 97 100 100 100 100 100 100 100 99 100 100 100 100 100 100 100 100 95 84 69 71 92 98 98 96 96 84 98 98 94 100
100 100 100 100 100 100 100 100 100 100 100 99 100 97 92 98 95 98 89 85 86 94 98 99 100 100 100 100 100 100 100 100 100 100 100 100 89 96 85 38 85 96 95 96 100 70 100 88 84 94 76 41 63 100
100 100 100 100 100 100 100 100 100 100 100 100 100 98 100 97 96 92 91 89 100 97 98 95 91 96 100 100 100 100 100 100 93 61 92 98 90 100 93 100 94 98 100 100 100 92 91 100 100 100 100 100 95 100
97 94 100 100 100 100 100 98 100 100 100 100 100 100 90 96 99 97 83 88 77 93 76 100 100 100 100 100 100 99 76 68 59 72 92 80 94 100 98 100 100 100 100 100 100 100 100 100 93 73 90 100 75 100
100 72 87 43 76 41 70 100 100 100 100 100 100 100 100 100 90 86 98 75 95 100 100 100 100 100 100 100 96 47 43 41 60 82 89 100 93 97 100 100 100 100 100 100 100 100 99 21 5 53 84 90 100 100
100 100 99 100 82 96 74 100 100 100 100 100 100 100 100 100 99 75 89 100 100 100 100 100 100 100 94 70 46 60 62 86 80 93 95 92 98 100 100 99 88 90 74 95 42 59 57 96 44 89 100 100 100 100
100 100 100 100 100 60 89 89 100 100 100 100 80 94 86 38 61 39 93 100 100 100 100 100 98 94 92 98 95 87 47 24 25 82 84 100 100 89 60 46 76 100 96 65 77 97 100 100 100 100 100 100 100 100
100 100 69 87 81 37 64 51 46 87 80 72 83 97 75 87 31 69 47 97 100 100 100 95 95 100 97 76 72 34 57 49 98 98 97 82 66 60 80 76 96 89 63 80 98 99 100 97 88 100 100 93 54 65
100 98 96 89 97 70 88 74 38 15 22 61 97 100 85 50 9 62 100 100 100 99 99 96 97 77 65 92 81 94 76 70 69 91 86 66 63 96 94 77 70 93 99 72 73 100 98 80 100 56 70 97 99 100
95 97 88 87 59 46 57 62 71 44 98 92 80 64 69 38 62 100 100 100 100 99 100 95 93 90 95 91 95 85 83 95 96 96 99 78 89 100 99 99 85 75 100 100 100 76 84 100 100 100 100 93 99 100
100 98 91 78 35 72 99 93 96 100 100 100 94 98 99 100 100 100 100 100 100 100 96 98 100 100 100 100 93 78 100 90 100 100 95 100 100 89 76 78 80 100 100 100 100 91 100 98 100 96 95 74 81 99
100 100 100 86 14 80 100 100 100 100 100 100 92 95 99 100 100 100 100 100 100 100 90 77 97 61 67 66 76 88 100 100 100 100 100 100 95 100 93 100 100 99 100 100 97 100 88 92 92 98 81 78 80 66
100 100 100 94 99 100 100 100 100 100 100 100 94 98 100 100 100 100 100 100 100 100 100 100 100 97 94 96 99 100 100 98 100 100 100 93 100 100 100 98 93 100 100 100 100 100 94 30 8 5 5 5 5 5
100 39 35 77 100 100 100 96 100 100 100 100 100 100 100 100 100 100 100 100 100 100 96 91 84 97 96 97 100 99 100 100 100 97 97 100 100 92 99 98 100 100 100 100 98 93 41 3 5 5 5 5 5 5
83 75 93 99 100 100 95 63 63 100 100 100 100 94 93 95 99 100 100 100 100 100 100 98 97 96 99 100 100 100 97 100 100 100 100 100 96 100 99 100 100 100 100 100 100 57 6 5 5 5 5 5 13 74

GFSWCAN_prec_cloud_096.txt.gz
Cloud_Cover
100 100 100 100 100 100 100 100 100 100 100 100 100 100 100 100 100 76 96 57 84 96 5 38 28 75 63 78 98 6 54 98 100 100 100 100 100 100 100 100 100 100 100 100 100 100 100 100 95 89 100 100 100 100
100 100 100 100 100 100 100 100 100 100 100 100 100 100 100 100 100 100 89 83 86 30 10 2 0 5 5 6 56 13 100 99 100 100 100 94 100 100 100 100 100 100 100 100 100 100 100 100 100 100 100 100 100 100
100 100 100 100 100 100 100 100 100 100 100 100 100 100 100 100 100 29 100 71 75 97 16 14 65 9 2 0 5 78 98 60 100 100 100 93 100 100 100 100 100 100 100 100 100 100 100 100 100 91 100 100 95 100
100 100 100 100 100 100 100 100 100 100 100 100 100 100 100 100 20 16 100 92 50 34 92 83 4 69 2 0 4 5 26 18 67 100 100 100 100 80 99 100 89 100 100 100 100 100 100 100 96 100 100 100 100 100
100 100 100 100 100 100 100 100 100 100 100 100 100 100 100 94 62 42 87 98 85 65 97 57 22 24 0 5 5 5 11 84 100 91 97 100 100 99 40 99 96 92 99 100 100 100 69 100 100 100 100 100 100 100
100 100 100 100 100 100 100 100 100 100 100 100 100 100 99 18 62 100 98 11 88 10 86 98 61 30 15 5 39 55 60 96 96 100 100 100 100 100 81 100 100 84 100 88 99 83 98 100 100 100 100 100 100 99
100 100 100 100 100 100 100 100 100 100 100 100 100 100 100 48 100 100 86 100 95 100 98 81 95 42 5 14 69 90 86 78 100 40 100 100 93 100 98 100 100 99 100 100 100 100 100 100 100 100 100 100 100 100
100 100 100 100 100 100 100 100 100 100 100 100 100 100 100 100 100 74 73 27 94 86 94 100 64 87 5 26 11 22 60 66 100 100 84 100 100 100 100 100 100 100 100 100 100 100 98 96 98 100 100 100 100 100
100 100 100 100 100 100 100 100 100 100 100 100 100 100 100 100 100 97 72 58 90 99 89 87 98 100 16 53 40 39 76 72 100 100 100 100 100 100 100 100 100 100 100 100 100 100 100 98 100 100 100 100 100 100
100 100 100 100 100 100 100 100 100 100 100 100 100 100 100 100 100 98 100 99 93 98 99 100 25 73 45 41 33 6 74 82 99 96 100 100 100 100 100 100 100 100 100 100 100 99 100 100 100 100 100 100 100 100
100 96 100 100 100 100 100 100 100 100 100 100 100 100 100 100 100 100 97 95 54 99 83 100 76 35 36 78 45 26 25 67 100 98 93 100 100 100 100 100 100 100 100 100 100 100 100 96 100 100 100 100 100 100
96 7 53 100 100 100 100 100 100 100 100 99 100 100 100 100 100 98 66 78 97 82 81 92 40 79 60 36 59 34 93 45 100 100 100 99 100 100 100 100 100 100 100 100 100 100 100 100 100 97 100 88 47 26
5 7 12 56 100 100 98 99 100 99 100 100 100 100 100 100 100 100 100 90 70 5 44 65 62 95 30 53 31 93 85 78 100 100 72 100 100 100 100 100 100 100 100 100 100 100 100 100 95 64 56 10 5 5
5 30 100 100 100 100 17 21 37 80 100 100 100 100 98 98 62 100 94 18 16 7 71 86 35 61 23 53 97 100 91 89 95 99 100 96 100 100 100 100 100 100 100 100 98 91 90 83 68 96 99 94 39 5
15 75 100 100 100 67 5 5 50 100 100 100 100 70 45 43 100 100 100 84 91 57 25 61 64 55 100 74 46 84 82 96 99 83 100 100 94 100 100 100 100 98 91 98 100 84 95 100 98 46 6 5 5 5
100 100 100 100 94 5 5 20 100 100 100 100 100 99 100 100 100 100 100 100 71 62 14 74 94 98 56 100 87 88 94 56 96 100 100 100 98 91 94 93 98 98 99 100 100 100 76 12 6 59 7 5 5 5
86 77 32 99 19 5 5 94 100 100 100 100 97 100 100 100 100 100 99 78 90 50 93 88 89 94 99 100 99 99 100 100 100 100 100 100 100 100 100 100 100 100 100 100 96 49 31 30 5 5 71 12 36 66
62 88 38 5 9 88 100 100 100 100 98 100 100 100 100 100 100 100 100 100 90 100 100 100 100 73 91 96 100 100 100 100 100 100 100 100 100 100 100 100 100 100 99 84 10 14 20 36 83 100 44 80 5 16
80 87 16 3 75 99 100 100 100 100 100 100 100 100 100 100 98 92 70 100 100 92 93 72 60 87 99 100 100 100 100 100 88 100 100 100 100 100 100 100 100 100 89 70 77 76 79 100 94 55 37 13 65 88
23 46 38 96 82 100 100 100 99 100 100 100 100 100 100 100 100 100 100 100 96 81 89 43 66 96 100 100 91 75 100 95 70 99 100 100 100 100 100 97 95 98 100 91 97 96 96 77 36 19 42 19 18 78
62 86 100 98 100 100 100 100 100 100 100 100 100 95 98 100 100 100 100 100 100 97 90 64 92 100 100 84 100 100 100 100 100 97 100 100 96 100 99 100 91 100 99 100 98 87 66 92 100 90 76 76 86 57
100 100 100 100 100 100 100 100 100 100 100 100 100 97 100 100 100 100 100 100 80 99 99 94 96 96 100 83 100 100 100 100 100 95 96 87 95 91 99 100 100 100 100 100 93 99 91 100 56 58 55 92 85 86
100 100 100 100 100 100 100 100 100 100 98 96 95 100 97 93 100 87 99 100 92 58 46 99 99 100 100 100 100 100 100 94 95 94 92 95 97 98 99 100 100 100 100 93 83 81 88 78 34 66 66 85 95 94
100 100 100 100 100 100 95 100 98 97 99 100 100 100 98 100 99 98 100 88 94 45 67 82 95 93 100 100 100 98 96 98 85 88 100 100 100 100 96 98 100 100 98 100 68 99 77 74 59 90 87 88 92 93
100 100 100 100 100 100 100 100 98 89 100 100 100 100 98 73 100 98 98 99 80 76 100 99 94 89 79 91 90 97 100 87 93 100 98 99 98 91 99 100 100 83 69 74 100 82 100 88 72 68 70 52 65 76
100 94 97 100 99 99 87 93 95 100 100 99 99 100 98 93 93 95 96 100 93 100 100 100 100 100 98 98 96 98 97 96 94 99 100 100 74 92 100 100 100 98 89 99 98 90 89 92 73 71 63 61 88 47
100 100 100 100 100 98 86 90 100 100 98 100 100 100 98 93 81 86 98 99 100 100 100 100 100 100 100 98 100 100 100 99 94 98 85 77 78 100 100 100 100 97 100 100 78 99 74 81 77 70 67 80 95 97
100 100 100 84 94 85 100 100 100 100 100 100 100 100 86 91 92 100 100 87 100 98 99 100 100 100 95 90 83 72 84 78 16 12 25 44 97 100 100 100 100 100 98 99 97 90 97 93 80 78 80 74 48 55
100 100 100 100 97 91 92 100 100 100 100 100 100 98 99 100 100 100 100 100 100 100 100 100 100 92 80 82 79 85 97 77 34 73 67 96 100 100 100 100 100 100 100 88 100 100 99 99 91 74 71 67 57 65
100 100 100 100 81 99 100 100 100 100 100 99 100 98 93 100 100 94 97 99 100 100 100 100 100 100 100 100 99 100 100 100 69 63 80 100 100 100 100 100 100 100 100 100 100 100 91 90 78 83 91 97 100 80
100 100 96 100 100 100 100 100 98 100 100 99 100 100 99 100 99 98 100 100 100 100 100 100 100 100 100 100 100 99 99 94 93 80 100 100 100 100 100 100 99 100 99 100 99 90 85 81 85 95 80 73 61 97
100 100 87 100 100 100 100 100 100 100 100 100 100 97 100 100 100 100 97 99 100 100 100 100 100 100 100 100 100 100 91 98 95 100 100 100 100 100 100 100 100 100 100 100 97 78 81 83 75 66 85 100 100 100
100 100 100 100 100 100 100 100 100 100 100 100 100 100 100 100 100 100 100 100 100 99 100 100 100 100 100 100 100 100 100 100 100 100 100 100 100 100 100 100 100 100 100 98 77 84 82 49 74 81 100 100 100 100

GFSWCAN_prec_cloud_099.txt.gz
Cloud_Cover
100 100 100 100 100 100 100 100 100 100 100 100 100 100 100 100 100 100 100 100 97 76 6 2 1 2 0 3 5 3 67 100 100 94 41 100 100 100 100 100 100 100 100 100 100 100 100 100 86 48 100 100 100 100
100 100 100 100 100 100 100 100 100 100 100 100 100 100 100 100 100 100 100 100 98 6 4 2 2 0 0 0 5 83 100 100 100 85 70 100 100 100 100 100 100 100 100 100 100 100 100 100 100 100 63 61 100 100
100 100 100 100 100 100 100 100 100 100 100 100 100 100 100 100 100 100 100 99 23 31 10 8 5 0 0 0 0 48 74 98 100 100 89 100 100 92 94 100 100 100 100 99 87 100 100 100 100 97 17 78 82 100
100 100 100 100 100 100 100 100 100 100 100 100 100 99 100 100 100 92 100 84 23 42 50 92 46 75 5 0 0 0 5 4 48 100 84 100 100 100 100 100 100 100 100 100 97 100 100 100 100 98 94 66 100 99
100 100 100 100 100 100 100 100 100 100 100 100 100 100 100 100 97 100 88 6 74 88 67 4 8 2 2 0 3 5 4 7 6 83 100 100 100 100 100 100 100 100 100 100 100 100 100 100 100 83 64 84 100 100
100 100 100 100 100 100 100 100 100 100 100 100 100 100 100 100 100 100 74 12 71 100 46 12 6 4 5 1 4 5 2 5 98 5 7 99 99 42 100 79 100 100 100 100 100 100 100 100 82 94 100 98 100 100
100 100 100 100 100 100 100 100 100 100 100 100 100 100 98 100 100 100 80 98 87 100 72 39 14 84 44 43 54 15 3 2 67 39 24 100 96 100 66 93 100 100 100 88 85 94 100 100 100 100 100 100 100 100
100 100 100 100 100 100 100 100 100 100 100 100 100 100 100 100 99 96 98 100 100 85 31 98 52 57 28 10 9 5 5 5 52 41 90 100 100 95 88 95 74 88 99 100 99 99 67 87 100 100 98 100 100 100
100 100 100 100 100 100 100 100 100 100 100 100 100 100 100 100 99 100 100 100 74 98 88 92 77 100 56 7 6 5 5 5 94 74 99 100 100 100 100 100 100 100 82 78 98 100 100 100 100 100 99 97 100 100
100 100 100 100 100 100 100 100 100 100 100 100 100 100 100 100 100 100 100 91 87 97 79 62 31 68 80 52 7 32 5 84 85 100 100 100 100 100 100 100 100 100 100 100 100 100 100 100 100 100 100 100 100 100
100 100 100 100 100 100 100 100 100 100 100 100 100 100 100 100 100 100 99 99 64 60 60 64 73 5 54 68 17 62 55 100 89 100 100 100 100 100 100 100 100 100 100 100 100 100 100 100 100 100 100 100 99 100
98 100 100 100 100 100 100 100 100 100 100 100 100 100 100 100 100 100 69 40 92 26 71 88 17 5 5 80 62 34 70 68 88 100 100 100 100 100 100 100 100 100 100 100 100 100 100 100 76 24 18 15 5 5
100 42 100 100 100 100 100 100 100 100 100 100 100 100 100 100 100 89 55 68 52 5 25 24 37 66 19 5 4 46 78 88 99 100 100 100 100 100 100 100 100 100 100 100 100 100 100 100 90 71 32 49 11 31
100 9 5 86 100 100 100 100 100 100 100 100 100 100 100 100 100 32 51 20 17 9 5 5 14 8 28 49 93 99 95 93 99 98 89 100 100 100 100 100 100 100 100 100 100 100 99 34 53 8 15 17 11 40
100 100 57 84 100 100 100 96 100 100 100 100 100 94 98 95 100 100 100 64 59 8 5 5 26 32 33 83 98 92 82 100 84 100 89 90 84 96 100 100 100 100 100 100 72 22 55 46 65 94 54 20 38 22
100 100 95 100 100 100 99 48 92 100 100 100 100 100 100 98 100 100 100 100 92 62 12 19 30 46 68 56 95 88 92 48 89 100 100 100 95 100 100 100 100 92 12 32 50 44 91 100 83 78 59 36 10 14
48 90 99 100 100 100 40 41 100 100 100 100 100 96 100 97 100 100 100 95 78 19 91 22 49 81 85 100 100 97 60 92 100 100 100 100 86 85 100 100 5 28 5 84 100 100 89 72 78 87 75 20 26 34
58 100 100 100 100 95 100 100 100 100 100 80 94 98 100 100 100 100 100 100 100 22 25 56 86 62 85 87 91 84 100 100 100 100 100 100 95 29 5 30 70 32 100 100 99 80 81 45 39 44 29 52 48 18
91 100 100 100 69 96 66 92 100 100 87 86 78 100 100 100 100 100 78 100 100 78 99 79 51 80 100 100 100 100 100 96 90 98 100 100 95 5 46 94 99 99 100 84 72 63 52 72 76 100 99 78 70 51
100 100 92 89 12 69 100 100 80 100 57 100 100 100 100 100 100 100 89 100 100 100 100 89 46 77 93 98 100 100 66 77 77 99 100 99 93 96 98 100 100 86 57 63 59 92 87 100 84 35 45 27 18 24
99 100 100 63 80 100 100 97 94 97 100 100 100 100 100 100 100 100 99 100 100 95 100 33 97 20 76 48 98 99 38 100 100 100 100 100 95 98 100 100 74 72 57 75 60 100 100 100 100 100 99 99 96 87
96 88 92 95 94 98 99 100 100 100 100 100 100 100 100 100 100 100 98 100 100 100 68 19 18 9 7 48 100 100 100 100 100 92 43 16 98 95 95 99 46 66 68 98 100 99 98 93 98 100 100 75 62 66
77 39 100 100 100 99 100 100 100 100 100 100 100 98 100 100 95 95 96 96 99 57 47 58 8 5 51 100 100 100 100 100 96 48 5 19 45 46 98 96 78 99 100 100 100 100 100 99 98 100 75 85 71 74
100 100 100 100 100 100 100 100 100 100 100 95 81 93 99 100 100 98 94 69 48 15 19 9 5 26 100 100 100 100 100 92 83 82 34 90 92 99 100 100 100 100 97 100 100 100 100 100 100 100 76 98 100 97
100 100 100 100 100 100 100 100 100 100 94 92 91 100 100 92 98 100 99 73 99 82 20 74 99 98 99 100 100 100 100 48 5 73 99 93 100 100 100 100 94 98 100 100 100 96 100 100 98 78 88 99 100 58
100 80 82 89 95 93 100 97 83 78 90 100 100 100 50 99 100 94 80 94 95 100 100 100 96 95 100 98 100 100 92 99 87 97 100 99 75 24 57 29 23 78 100 94 82 89 99 100 96 100 100 100 90 53
86 98 60 79 85 90 91 90 99 62 90 99 100 72 98 100 89 62 94 95 92 90 100 100 100 98 93 87 99 95 100 99 95 76 78 72 75 57 31 24 35 66 64 62 94 90 98 98 100 100 96 77 90 90
83 62 100 100 100 100 83 96 98 96 85 95 69 93 90 80 74 96 80 98 99 64 76 98 100 100 92 95 92 90 84 82 82 63 72 90 45 90 58 39 50 99 100 100 100 100 100 100 100 99 92 79 81 36
100 100 100 100 100 100 92 94 99 98 100 100 100 100 100 100 100 99 80 100 100 92 90 94 100 100 97 98 100 95 100 81 85 99 100 100 100 90 56 65 100 100 100 100 100 100 100 100 96 93 86 95 82 100
100 100 100 100 100 100 90 92 100 100 100 100 100 100 100 100 62 50 98 100 100 100 100 100 100 100 99 100 100 100 98 99 100 99 96 72 65 85 72 100 100 100 100 100 99 98 100 87 98 99 100 99 89 75
100 100 100 100 100 100 100 88 90 100 100 100 100 100 98 73 95 85 77 82 100 92 100 100 100 100 100 100 100 100 98 98 100 100 100 88 47 69 100 100 100 100 100 100 100 100 100 99 100 100 98 75 59 50
94 100 100 100 100 100 93 98 100 100 100 100 100 69 62 77 75 76 99 99 100 99 99 100 100 100 100 100 100 100 100 100 100 100 100 100 100 100 100 100 100 100 100 100 98 100 97 100 100 100 95 98 84 26
93 92 100 97 100 100 100 98 100 100 95 99 59 13 96 100 90 89 100 98 98 97 100 100 100 100 100 100 100 100 100 100 100 100 100 100 100 100 100 100 100 100 100 98 100 100 100 100 99 100 58 11 5 5

GFSWCAN_prec_cloud_102.txt.gz
Cloud_Cover
100 100 100 100 100 100 100 100 100 100 100 100 100 100 100 100 100 100 100 100 100 100 94 21 5 5 1 1 5 4 45 98 100 91 100 100 100 100 100 100 100 100 100 100 100 100 100 100 100 100 100 100 100 100
100 100 100 100 100 100 100 100 100 100 100 100 100 100 100 100 100 100 99 97 100 83 7 5 5 0 0 0 3 7 56 98 100 13 100 100 96 100 100 100 100 100 100 100 100 100 100 100 100 100 94 100 100 92
100 100 100 100 100 100 100 100 100 100 100 100 100 100 100 100 100 100 100 27 68 12 5 5 5 2 1 0 0 11 8 33 100 27 99 100 100 100 100 100 100 100 100 100 100 100 100 100 100 100 100 100 100 98
100 100 100 100 100 100 100 100 100 100 100 100 100 100 100 100 100 100 99 15 40 8 23 5 4 5 5 3 0 0 0 4 94 34 91 100 100 100 100 100 100 100 100 100 100 100 100 100 100 100 100 90 99 99
100 100 100 100 100 100 100 100 100 100 100 100 100 100 100 100 100 100 90 27 89 56 26 5 3 2 5 5 0 1 0 0 88 100 73 100 100 100 100 100 100 100 99 88 92 97 100 100 100 100 90 100 100 78
100 100 100 100 100 100 100 100 100 100 100 100 100 100 100 100 100 100 97 91 71 96 5 28 4 10 30 3 4 5 5 3 5 100 85 100 100 100 100 100 100 100 88 93 100 100 99 84 100 100 96 100 71 63
100 100 100 100 100 100 100 100 100 100 100 100 100 100 100 100 100 100 73 97 41 90 71 50 34 89 94 20 5 5 9 5 5 7 99 100 100 100 100 100 100 100 100 70 100 100 100 100 99 80 99 96 82 93
100 100 100 100 100 100 100 100 100 100 100 100 100 100 100 100 98 55 64 78 97 65 37 27 17 47 76 5 5 16 9 5 5 4 9 47 81 100 100 100 100 86 100 100 100 100 100 100 70 80 73 76 100 98
100 100 100 100 100 100 100 100 100 100 100 100 100 100 100 100 100 100 58 82 50 64 94 43 5 86 5 7 5 5 5 5 5 8 6 88 99 93 23 54 31 40 56 34 87 76 77 76 85 26 93 100 99 99
100 100 100 100 100 100 100 100 100 100 100 100 100 100 100 100 100 84 59 74 78 96 83 53 5 30 58 10 8 5 5 14 81 55 48 100 96 97 70 43 47 54 79 85 77 100 96 99 100 100 99 100 100 100
100 100 100 100 100 100 100 100 100 100 100 100 100 100 100 100 100 96 85 89 85 84 51 23 80 5 6 51 19 21 7 97 100 88 100 100 100 100 100 100 100 100 100 100 100 100 100 100 100 100 100 94 100 71
100 100 100 100 100 100 100 100 100 100 100 99 100 100 100 100 100 100 80 47 92 100 68 70 7 5 68 5 14 28 32 59 93 99 100 100 100 100 100 100 100 100 100 100 100 100 100 100 99 63 66 33 7 5
73 49 100 100 100 100 100 100 100 100 100 100 100 100 100 100 100 100 96 99 90 5 74 15 5 88 26 9 6 12 76 31 98 100 100 100 100 100 100 100 100 100 100 100 100 100 100 100 8 6 6 80 12 14
92 16 61 100 100 100 100 100 100 100 100 100 100 100 100 100 100 92 96 99 8 6 5 52 5 8 31 9 41 89 90 97 100 98 84 100 100 100 100 100 100 100 100 100 100 97 72 84 54 45 11 13 6 5
74 5 5 65 100 100 100 100 100 100 100 100 100 100 100 100 100 96 100 61 44 5 5 2 27 15 15 73 99 96 100 100 46 54 75 100 99 100 100 100 100 100 100 100 100 100 100 68 30 87 68 10 6 38
44 56 8 30 100 100 100 100 100 100 100 100 100 100 100 100 100 100 100 85 99 58 14 40 51 54 81 16 96 46 89 23 48 68 83 99 100 100 100 100 100 100 100 100 100 91 38 58 79 52 58 50 48 59
45 45 57 99 100 100 58 100 100 100 100 100 100 100 100 100 100 100 100 100 87 9 95 46 38 5 48 91 69 52 52 74 83 88 100 100 100 72 76 100 100 100 100 34 33 76 51 37 32 52 90 36 16 25
99 100 100 100 98 90 81 93 100 100 100 100 100 99 100 100 100 99 100 100 100 49 9 62 85 78 99 95 83 56 100 100 98 100 100 100 100 95 28 30 42 30 12 23 39 20 45 80 99 78 64 54 43 51
100 100 100 100 94 25 46 27 96 84 100 100 100 100 100 100 100 73 100 100 100 68 27 12 52 65 28 100 100 100 71 71 96 95 100 100 100 63 46 24 5 5 5 17 19 82 100 100 82 52 66 56 74 78
100 100 100 100 96 52 60 72 78 100 86 26 100 100 100 100 91 100 100 100 100 100 99 48 9 64 36 100 100 100 74 17 38 95 100 99 90 81 22 28 67 6 5 68 100 98 87 61 65 100 98 100 100 100
100 100 100 99 81 99 100 100 100 75 69 45 88 100 95 100 100 100 100 100 100 100 100 20 52 75 12 20 34 100 99 42 55 66 78 98 91 48 24 80 8 10 77 81 78 62 78 94 100 94 68 98 100 100
100 98 82 73 86 96 100 100 85 33 10 86 99 95 100 97 75 100 97 100 98 96 100 44 35 24 17 25 20 45 100 52 100 100 100 100 98 89 97 94 64 67 56 22 46 47 62 91 100 100 100 100 100 92
76 74 99 99 100 100 91 100 88 100 100 100 97 65 100 89 69 90 98 95 100 25 10 11 8 5 5 5 29 99 100 100 100 100 100 100 93 27 48 38 22 25 40 55 62 99 91 100 100 100 100 98 65 48
94 73 100 100 96 68 94 100 100 100 84 99 100 99 88 92 100 99 100 56 27 43 5 5 5 6 5 5 91 100 100 100 100 100 94 28 9 48 5 9 37 67 83 80 80 75 95 100 100 89 70 81 47 97
94 62 100 100 100 100 100 100 100 99 79 97 100 98 91 97 78 100 53 6 92 81 70 25 7 21 32 84 100 100 100 100 100 100 54 5 66 91 100 99 95 99 81 78 100 100 100 99 69 80 83 83 76 100
100 92 98 100 100 100 100 100 100 100 100 99 64 72 60 89 92 55 15 89 81 90 97 87 80 84 88 79 100 100 87 65 62 40 75 34 15 26 57 70 74 83 82 85 100 100 91 95 100 100 96 76 100 100
96 100 100 100 100 100 100 100 97 82 58 67 77 91 79 99 89 6 80 88 99 94 100 100 100 97 96 99 100 94 97 98 73 73 90 88 100 100 98 33 29 58 64 72 80 85 100 100 100 100 100 100 100 100
78 88 91 82 100 100 100 100 80 63 60 24 58 84 97 80 6 79 81 98 99 100 97 96 94 90 98 98 100 100 99 100 98 99 100 90 98 99 95 88 31 67 44 64 99 100 100 100 100 100 100 100 100 100
63 89 99 100 99 100 94 85 91 62 70 72 75 75 93 92 93 87 92 97 98 72 75 89 100 97 96 100 100 98 97 98 98 97 94 96 99 100 100 78 33 10 51 90 83 99 100 100 100 100 100 100 100 97
100 99 83 92 100 100 100 100 100 100 86 78 79 68 62 84 73 83 95 94 95 82 81 90 98 93 89 82 98 100 100 100 99 100 94 98 98 98 86 67 39 58 100 100 100 100 100 100 100 98 100 100 97 62
100 100 100 100 100 100 100 100 100 76 74 78 98 96 93 88 31 71 97 99 85 88 99 100 100 100 100 100 100 100 100 100 100 100 100 100 100 100 100 100 100 100 100 100 100 100 100 100 86 100 100 100 72 58
100 100 100 100 100 100 100 100 92 74 77 100 100 100 100 68 95 76 89 100 100 99 94 100 100 94 97 100 100 100 100 100 100 100 100 100 100 100 100 100 100 100 100 100 100 100 100 96 100 100 98 68 53 53
96 100 100 100 100 100 100 100 100 100 100 100 90 78 100 100 94 78 95 89 95 86 77 98 99 100 99 99 100 100 100 100 100 100 100 100 100 100 100 100 100 100 100 100 100 100 99 92 91 83 58 50 55 54

GFSWCAN_prec_cloud_105.txt.gz
Cloud_Cover
100 100 100 100 100 100 100 100 100 100 100 100 100 100 100 100 100 100 100 100 100 100 100 100 100 34 5 5 5 4 5 49 87 95 79 15 100 100 100 100 100 100 100 100 100 100 100 100 100 100 100 100 100 100
100 100 100 100 100 100 100 100 100 100 100 100 100 100 100 100 100 100 100 100 100 100 100 100 14 5 5 4 2 45 4 5 92 98 100 81 100 100 100 100 100 100 100 100 100 100 100 100 100 100 100 100 100 100
100 100 100 100 100 100 100 100 100 100 100 100 100 100 100 100 100 100 100 100 100 100 99 19 40 5 5 0 0 5 4 4 31 42 100 98 100 100 100 100 100 100 100 100 99 100 100 91 100 99 100 100 100 99
100 100 100 100 100 100 100 100 100 100 100 100 100 100 100 100 100 100 100 100 100 91 65 11 5 5 1 0 0 0 0 0 3 99 28 100 100 100 100 100 100 100 100 100 100 100 100 100 100 100 100 86 88 86
100 100 100 100 100 100 100 100 100 100 100 100 100 100 100 100 100 100 100 100 100 72 17 5 5 5 5 0 0 0 0 0 0 55 23 100 100 100 100 100 100 100 100 100 100 100 100 100 100 100 100 89 83 82
100 100 100 100 100 100 100 100 100 100 100 100 100 100 100 100 100 100 100 92 15 35 5 5 5 21 5 3 0 4 3 1 5 5 100 89 100 100 100 100 100 100 100 100 100 100 100 100 100 100 92 91 82 80
100 100 100 100 100 100 100 100 100 100 100 100 100 100 100 100 100 100 86 100 93 89 35 5 21 77 38 40 31 5 5 5 5 5 30 100 100 100 100 100 100 100 100 100 100 100 100 100 100 78 65 88 90 100
100 100 100 100 100 100 100 100 100 100 100 100 100 100 100 100 100 100 100 100 11 15 26 25 78 88 76 7 33 5 5 5 5 8 15 99 97 100 100 100 100 100 100 100 100 100 100 90 95 96 78 73 54 54
100 100 100 100 100 100 100 100 100 100 100 100 100 100 100 100 100 100 100 82 23 16 47 6 5 96 26 16 5 5 5 5 5 8 18 100 99 100 100 100 100 100 100 100 100 100 100 84 62 74 77 61 38 31
100 100 100 100 100 100 100 100 100 100 100 100 100 100 100 100 100 100 98 34 24 38 52 21 7 58 44 12 30 7 6 19 47 87 85 89 100 100 100 100 88 100 100 100 100 92 97 79 65 8 6 5 22 25
100 100 100 100 100 100 100 100 100 100 100 100 100 100 100 100 100 100 100 78 54 44 13 10 67 34 10 16 62 63 58 54 50 84 96 100 100 100 95 100 84 99 88 100 95 63 34 73 92 91 100 100 44 67
100 100 100 100 100 100 100 100 100 100 100 100 100 100 100 100 99 90 88 80 91 8 9 11 10 5 53 30 17 61 41 44 60 98 100 100 100 100 100 99 100 100 100 97 100 100 100 100 100 96 24 88 72 70
100 100 100 100 100 100 100 100 100 100 100 100 100 100 96 100 100 96 84 82 82 10 29 15 5 5 18 7 5 26 12 88 69 94 100 100 100 100 100 100 100 100 100 100 100 100 100 100 97 90 95 62 15 5
100 100 100 100 100 100 100 100 100 100 100 100 100 100 100 100 77 58 99 81 20 7 56 92 35 9 71 38 27 5 23 74 55 90 56 94 100 100 100 100 100 100 100 100 100 100 100 76 89 76 95 30 34 64
8 100 100 100 100 100 100 100 100 100 100 100 100 100 100 96 95 72 99 100 80 63 67 83 23 46 66 71 96 58 70 94 27 12 46 39 100 100 100 100 100 100 100 100 100 100 90 100 78 81 67 65 35 44
32 8 27 100 100 100 100 100 100 99 100 100 100 100 100 100 100 100 100 100 100 98 40 52 61 47 98 39 99 61 50 44 61 89 80 49 100 100 100 100 100 100 100 100 100 100 100 81 14 41 58 17 46 18
40 7 5 100 99 99 100 95 100 100 100 100 100 100 100 100 100 100 100 100 100 100 100 60 6 10 71 96 87 94 5 54 81 99 100 100 100 100 100 100 100 100 100 100 95 72 99 35 64 48 28 14 18 9
23 5 83 100 82 69 88 100 100 100 100 100 100 100 100 100 100 100 100 100 100 91 84 48 90 98 100 94 72 21 88 82 86 100 99 96 100 100 62 83 100 100 100 58 81 48 47 52 22 5 5 21 13 34
10 56 100 100 91 72 5 52 87 99 100 100 100 100 100 100 100 100 100 100 100 98 21 17 53 97 26 91 67 87 96 77 84 95 96 100 100 88 49 42 6 38 40 5 6 40 26 5 5 6 14 42 67 63
100 100 100 98 87 98 38 53 61 92 83 84 100 100 100 100 100 100 100 100 100 100 92 6 7 38 12 98 94 40 69 35 80 100 100 99 100 93 68 9 20 5 5 5 5 5 5 25 46 49 71 68 66 21
98 100 100 100 25 92 91 100 100 95 73 66 100 100 100 100 100 100 100 100 100 89 24 11 54 68 60 90 64 96 22 78 10 64 40 95 97 77 82 67 5 9 16 53 42 80 59 43 72 45 45 52 19 63
100 100 100 56 49 54 85 86 100 82 59 93 100 100 76 98 100 75 31 61 57 32 64 34 54 62 64 34 98 99 98 50 7 22 23 40 98 100 99 98 90 83 24 22 5 18 80 72 55 19 90 100 65 100
86 78 30 82 85 96 98 100 87 76 81 99 100 88 60 68 49 44 66 80 91 6 17 20 13 46 52 15 5 5 5 5 47 100 100 100 100 99 81 66 5 18 58 42 78 83 60 61 49 82 100 98 100 96
65 60 80 70 75 57 88 100 100 91 84 82 71 86 52 54 31 40 99 100 90 72 17 8 5 26 36 10 50 24 7 10 100 100 100 100 100 100 94 38 17 86 97 81 70 44 89 98 100 100 100 79 74 79
90 45 99 99 100 96 94 93 98 94 98 98 87 96 96 97 83 100 100 100 51 78 82 63 21 59 67 89 84 86 7 44 100 100 100 100 100 100 96 89 85 98 92 94 96 92 98 98 100 96 71 89 100 90
91 14 59 74 86 68 70 89 89 69 97 90 86 84 89 94 99 100 100 96 94 75 86 99 78 88 94 89 90 79 51 99 100 96 98 100 94 25 49 71 90 78 76 97 100 100 100 100 77 69 90 100 100 100
99 98 94 99 99 99 100 84 64 99 100 100 96 100 79 88 100 100 100 94 74 79 86 100 100 100 100 100 95 90 91 100 100 100 100 74 51 92 75 77 95 79 73 77 77 96 66 53 77 98 100 100 100 100
99 100 100 100 100 100 98 94 100 100 100 88 58 91 75 88 93 74 76 88 96 100 95 86 96 88 93 92 100 100 100 100 100 100 96 99 96 96 100 100 100 100 100 100 90 25 79 95 100 100 100 100 100 100
82 98 96 97 100 100 100 100 100 100 100 81 7 36 48 61 61 98 70 83 98 100 98 74 92 97 100 100 100 100 99 98 100 99 99 94 96 95 92 98 100 100 95 11 12 55 97 100 100 100 100 100 96 100
64 98 90 76 91 93 94 82 98 80 76 44 46 48 52 65 70 93 78 79 93 86 77 73 85 100 100 100 100 98 97 96 98 99 100 98 96 100 100 100 100 98 100 100 100 100 100 100 100 100 100 100 99 87
100 100 84 69 78 92 100 100 99 100 100 81 83 82 74 59 22 77 90 86 93 92 79 86 85 89 91 92 95 100 99 98 100 98 100 100 100 100 100 100 99 100 100 100 100 100 100 100 100 100 96 67 59 57
99 100 98 100 100 100 100 100 100 99 83 79 100 88 98 78 95 62 79 90 100 98 84 73 67 93 100 100 100 100 99 100 100 100 100 100 100 100 100 100 100 100 100 100 100 100 100 91 100 86 72 71 53 52
100 100 100 100 100 100 100 100 100 100 80 89 89 66 62 41 36 64 87 96 90 66 80 79 95 100 100 100 100 99 99 100 100 100 100 100 100 100 100 100 100 100 100 100 100 98 81 100 100 98 63 43 54 32

GFSWCAN_prec_cloud_108.txt.gz
Cloud_Cover
100 100 100 100 100 100 100 100 100 100 100 100 100 100 100 99 100 100 93 98 100 100 100 100 100 100 100 100 26 5 5 5 76 22 5 70 100 100 100 100 100 100 100 100 100 100 100 100 100 100 100 100 100 100
100 100 100 100 100 100 100 100 100 100 100 100 100 100 100 100 100 100 100 100 100 100 100 99 100 100 21 6 5 15 5 5 5 99 88 83 100 100 100 100 100 100 100 100 100 100 100 100 100 100 100 100 100 100
100 100 100 100 100 100 100 100 100 100 100 100 100 100 100 100 100 100 100 99 96 100 88 100 100 57 5 5 5 3 4 5 5 8 100 72 100 100 100 100 100 100 100 100 99 100 100 100 100 100 100 100 100 100
100 100 100 100 100 100 100 100 100 100 100 100 100 100 100 100 100 100 99 89 81 90 100 100 38 11 5 5 5 0 0 2 3 5 63 97 89 100 100 100 100 100 100 100 100 100 100 100 99 100 100 100 100 100
100 100 100 100 100 100 100 100 100 100 100 100 100 100 100 100 100 95 100 90 92 100 98 42 31 5 5 5 0 0 0 0 0 5 9 96 99 98 100 100 100 100 100 100 100 100 100 100 96 60 100 98 100 76
100 100 100 100 100 100 100 100 100 100 100 100 100 100 100 100 100 75 100 100 100 100 98 37 45 18 18 5 5 5 0 0 0 5 5 44 100 60 100 100 100 100 100 100 100 100 74 94 98 78 86 96 69 62
100 100 100 100 100 100 100 100 100 100 100 100 100 100 100 100 82 100 100 100 100 98 87 57 72 76 8 5 5 5 5 5 2 4 6 82 100 100 61 100 100 100 100 100 100 100 100 100 93 99 63 92 78 92
100 100 100 100 100 100 100 100 100 100 100 100 100 100 100 100 100 100 100 100 89 100 67 30 91 33 59 5 5 5 5 5 5 0 5 35 92 100 100 100 100 100 100 100 100 100 100 100 100 100 84 60 6 8
99 100 100 100 100 100 100 100 100 100 100 100 100 100 98 100 100 100 100 75 100 37 55 34 82 90 58 10 5 5 5 5 5 6 18 91 83 92 100 100 100 100 100 100 100 100 100 100 100 93 97 17 28 33
100 100 100 100 100 100 100 100 100 100 100 100 100 95 100 100 100 86 95 100 100 84 20 32 12 100 48 15 8 8 8 23 94 97 54 76 68 84 100 100 100 100 100 100 100 100 100 100 100 93 63 16 5 5
100 100 100 100 100 100 100 100 100 100 100 100 100 100 100 99 99 100 100 100 100 45 40 39 17 81 36 14 92 82 77 79 67 57 91 76 75 100 96 100 100 100 100 100 100 100 100 100 84 72 12 5 5 5
100 100 100 100 100 100 100 100 100 100 100 100 100 100 100 97 100 82 92 91 100 100 70 34 5 13 69 65 57 71 25 44 56 98 95 86 100 100 100 94 98 98 86 100 89 98 100 100 61 22 5 18 44 82
100 97 96 100 100 100 100 100 100 100 100 100 100 100 100 100 93 84 90 100 99 68 52 24 5 5 12 34 7 51 12 5 60 90 97 100 100 100 100 100 100 98 93 97 100 100 97 90 97 100 78 65 100 64
100 100 100 100 100 100 100 100 100 100 100 100 100 100 83 100 100 100 94 100 46 14 44 23 12 13 21 24 36 5 6 30 74 78 100 100 100 100 100 100 100 100 100 100 100 100 100 100 98 62 69 95 50 11
100 100 95 100 100 100 100 100 100 100 100 100 100 100 100 100 100 100 100 98 100 71 69 29 30 89 66 61 31 5 62 74 41 31 82 100 100 100 100 100 100 100 100 100 100 100 99 97 100 98 33 7 6 48
100 100 100 100 100 100 100 100 100 100 100 100 100 100 100 100 100 100 100 100 100 100 23 24 73 52 98 35 96 20 64 44 24 77 72 100 99 100 100 100 100 100 100 100 100 100 97 93 16 30 66 40 26 47
76 100 100 100 100 100 100 100 100 100 100 100 100 100 100 100 100 100 100 100 100 92 66 58 18 58 74 80 88 26 33 17 66 66 94 77 53 100 100 100 100 100 100 100 100 99 99 16 5 28 41 40 56 40
53 99 100 96 100 98 98 93 100 100 100 100 100 100 100 100 100 100 100 100 100 100 88 44 87 96 84 50 21 28 98 100 97 94 95 100 100 85 89 62 87 97 100 100 46 18 5 31 27 8 42 32 44 58
30 79 91 100 53 6 19 62 90 100 100 100 100 100 100 100 100 100 100 100 100 100 66 52 78 50 12 37 55 96 96 97 100 100 94 100 100 85 83 79 59 98 97 100 64 27 21 53 8 5 13 32 30 22
23 90 99 100 70 7 34 54 92 79 100 100 100 100 100 100 100 100 100 100 100 100 94 7 8 5 6 11 30 61 81 97 100 100 100 98 80 99 100 100 81 42 34 34 51 8 9 56 50 8 46 58 92 83
100 100 100 88 12 31 64 97 100 98 98 98 100 100 100 100 100 100 100 100 100 97 21 10 25 38 59 76 49 32 58 66 100 93 73 93 98 86 68 40 7 5 5 5 8 71 56 6 5 28 77 95 60 10
100 98 91 21 54 33 51 92 88 100 87 100 100 100 95 95 99 95 96 76 49 7 6 28 33 70 83 44 53 5 5 5 5 34 51 97 98 98 98 97 79 80 47 18 22 21 34 22 70 13 13 76 65 73
96 93 68 34 15 50 42 91 94 97 95 100 97 97 86 83 40 88 69 10 5 34 47 33 16 5 15 28 5 5 5 5 18 55 62 67 40 58 82 89 36 19 57 72 11 33 50 60 79 76 90 84 94 94
94 99 82 40 51 67 77 100 100 99 99 90 76 52 15 84 62 69 50 36 37 71 74 15 19 65 48 28 76 69 21 6 63 93 36 60 99 99 100 100 79 88 16 9 78 97 93 67 68 86 99 100 84 61
76 30 35 51 100 97 99 100 100 88 99 100 57 87 70 76 66 92 39 72 72 76 88 83 67 65 65 99 100 89 18 5 15 91 100 100 100 100 100 100 96 83 30 92 100 100 100 100 100 100 100 66 49 55
53 13 71 39 99 89 96 100 95 70 80 79 76 71 75 87 82 48 100 100 94 78 72 89 99 89 99 100 98 96 86 50 17 82 97 100 100 100 100 100 100 98 84 87 94 83 95 100 100 99 56 48 33 54
93 72 49 39 94 58 77 56 53 43 95 93 88 99 83 96 77 100 100 88 96 86 93 88 100 100 100 100 100 97 98 89 87 96 100 100 100 100 100 78 69 95 95 83 88 99 100 100 100 98 86 100 73 92
56 97 90 98 98 96 46 63 51 56 58 52 93 100 74 98 100 100 89 67 84 97 89 90 100 100 93 94 92 99 99 100 100 99 100 100 100 100 89 94 88 96 100 100 100 100 100 100 57 85 99 100 100 100
95 100 98 100 100 98 100 100 100 100 100 100 100 98 100 100 100 100 92 73 92 100 97 100 96 94 98 94 88 95 96 100 100 100 100 100 100 95 96 95 87 100 100 100 100 100 100 100 100 100 100 100 88 100
60 84 91 98 93 100 100 97 99 100 100 100 100 100 95 31 71 95 87 87 87 87 89 92 94 84 80 56 90 94 100 100 100 100 100 100 97 97 100 100 100 100 100 97 99 100 100 100 100 100 100 79 89 99
100 96 74 76 72 99 100 100 92 86 85 95 89 87 87 62 10 72 97 99 95 97 84 100 99 99 99 82 99 100 100 100 100 100 100 97 98 100 100 100 100 100 100 100 100 100 100 100 100 100 78 81 84 86
100 100 100 99 86 98 91 68 72 70 78 77 61 87 93 69 94 64 92 90 100 100 92 96 85 95 80 100 100 100 100 100 100 100 100 100 100 100 100 100 100 100 100 100 100 100 100 100 85 76 64 59 54 47
100 100 100 100 100 100 100 97 84 99 100 100 100 98 70 86 94 48 93 88 86 95 92 95 93 98 94 100 100 100 100 100 100 100 100 100 100 100 100 100 100 100 100 100 100 100 99 83 94 74 58 58 50 46

GFSWCAN_prec_cloud_111.txt.gz
Cloud_Cover
100 100 100 100 100 100 100 100 100 100 100 100 100 100 100 100 100 100 100 100 100 100 100 100 100 100 100 100 100 100 100 92 34 36 5 76 100 85 100 100 100 100 100 100 100 100 100 100 100 100 100 100 100 100
100 100 100 100 100 100 100 100 100 100 100 100 100 100 100 100 100 100 100 98 100 100 100 100 100 100 100 100 100 94 63 6 5 16 63 86 100 99 100 100 100 100 100 100 100 100 100 100 100 100 100 100 100 100
100 100 100 100 100 100 100 100 100 100 100 100 100 100 100 100 100 100 94 100 100 100 100 100 100 100 82 46 30 64 6 5 5 5 82 58 91 92 100 100 100 100 100 100 100 100 100 100 100 100 100 100 100 100
100 100 100 100 100 100 100 100 100 100 100 100 100 100 100 98 100 100 100 100 100 100 100 72 44 59 68 52 12 5 1 0 5 5 19 80 97 79 100 100 100 100 100 100 100 100 100 100 100 100 100 100 100 100
100 100 100 100 100 100 100 100 100 100 100 100 100 100 100 99 100 100 100 100 81 47 51 41 97 45 40 34 5 3 0 0 1 4 5 97 97 90 87 100 100 100 100 100 98 64 100 100 100 100 100 100 100 100
100 100 100 100 100 100 100 100 100 100 100 100 100 100 100 100 100 100 100 26 67 75 86 86 92 19 18 21 5 0 0 0 0 5 6 100 99 69 68 100 100 100 100 100 100 100 83 100 100 100 96 100 99 93
100 100 100 100 100 100 100 100 100 100 100 100 100 100 100 100 100 88 92 98 74 100 100 93 54 33 23 5 5 5 4 0 0 4 5 67 22 62 76 100 100 100 100 100 100 100 100 100 98 93 87 93 72 67
100 100 100 100 100 100 100 100 100 100 100 100 100 100 100 100 98 100 98 100 100 100 100 100 92 56 15 5 5 5 5 5 4 4 5 21 12 8 34 100 100 100 100 100 100 100 100 100 100 100 90 81 98 58
100 100 100 100 100 100 100 100 100 100 100 100 100 100 99 100 99 97 100 100 100 93 98 80 98 92 6 11 5 5 5 5 5 5 5 100 80 18 28 100 100 100 100 100 100 100 100 100 100 100 100 100 63 5
100 100 100 100 100 100 100 100 100 100 100 100 100 100 100 100 100 90 100 100 100 100 72 91 40 100 13 6 6 5 6 23 9 22 49 78 57 36 70 97 100 100 100 100 100 100 100 100 100 100 100 100 100 58
86 100 100 100 100 100 100 100 100 100 100 100 100 100 100 100 100 77 100 100 100 100 97 78 95 85 38 6 78 26 33 45 36 71 93 75 39 86 47 67 100 100 100 100 100 100 100 100 100 100 100 100 100 76
100 100 100 100 100 100 100 100 100 100 100 100 100 100 100 100 90 96 100 100 100 96 98 94 47 27 31 5 22 37 7 30 53 98 99 38 18 95 80 73 99 100 100 100 100 100 100 100 100 100 100 100 85 94
98 89 99 100 100 100 98 93 100 100 100 100 100 100 100 100 97 100 100 100 83 67 90 22 5 7 31 6 6 11 5 5 55 89 96 52 99 100 100 100 100 100 100 100 100 100 100 100 100 100 98 81 80 98
100 100 93 100 100 100 100 100 100 100 100 100 100 100 100 100 100 100 100 98 96 99 36 23 29 20 9 5 5 5 14 63 67 52 74 100 100 100 100 100 96 99 100 98 97 100 100 100 100 99 100 98 100 100
100 100 100 100 100 100 100 100 100 100 100 100 100 100 100 100 100 100 100 100 100 74 18 6 24 17 41 40 10 5 71 71 23 10 70 100 100 100 100 100 100 99 94 100 100 100 100 100 100 95 100 100 100 61
96 100 100 100 100 100 100 100 100 100 100 100 97 100 100 100 98 100 100 97 97 92 15 6 72 58 96 11 20 11 48 6 47 14 55 92 99 100 100 100 100 100 100 100 100 100 100 100 100 100 100 100 91 29
96 100 100 98 90 100 100 100 100 82 93 100 100 100 100 100 100 100 100 100 100 54 82 43 19 66 81 69 89 30 5 11 6 90 46 18 68 100 100 100 100 100 100 100 100 100 100 100 100 100 100 90 60 5
100 90 98 85 70 92 86 90 99 100 100 96 100 96 100 100 100 100 100 100 96 100 78 42 7 62 73 38 14 32 50 100 100 99 99 77 81 78 95 100 100 100 100 100 100 100 100 98 61 72 74 39 5 5
99 100 100 100 81 92 95 97 100 100 99 99 96 100 100 100 100 100 100 100 100 100 49 91 63 7 5 5 5 81 93 100 86 100 100 100 98 98 100 100 100 100 100 100 100 100 90 37 56 22 18 5 5 6
99 64 37 52 64 67 98 100 100 100 96 99 98 100 100 100 100 100 100 100 100 95 41 5 22 8 5 5 5 9 99 100 78 100 98 100 96 72 67 92 47 38 32 89 100 100 79 27 5 5 11 5 5 49
100 100 92 14 5 5 36 69 100 95 100 100 100 100 100 100 100 100 100 100 91 13 5 5 22 13 5 34 48 5 18 66 35 98 100 94 89 71 74 70 34 5 5 5 5 5 5 26 5 5 5 33 64 14
92 80 99 6 5 5 28 80 98 95 100 99 100 100 96 91 100 100 98 85 69 23 43 17 5 5 84 81 15 5 5 5 5 16 90 84 93 89 96 98 75 80 58 5 5 5 18 91 92 96 84 89 59 39
66 9 6 5 4 5 74 88 96 96 100 100 92 94 94 90 59 62 66 9 83 6 8 5 15 5 15 28 5 5 5 5 5 5 33 30 60 50 93 97 54 49 61 34 5 5 5 95 100 100 98 70 50 70
16 77 9 66 43 77 77 90 90 92 99 83 75 87 61 88 94 83 61 72 89 6 54 48 18 70 68 49 8 8 12 40 14 82 52 72 96 96 83 78 80 82 12 5 5 48 98 100 100 100 100 100 96 64
85 40 8 86 91 94 100 77 99 87 92 79 92 71 84 84 80 95 74 86 61 78 89 78 46 33 50 82 100 100 80 77 39 78 86 8 89 100 99 100 100 99 100 100 100 100 100 100 100 100 100 75 58 63
28 13 32 8 87 86 96 100 98 73 80 85 67 67 85 72 71 51 5 46 86 82 85 75 58 82 98 99 100 100 100 91 92 67 77 9 10 88 100 100 100 100 100 100 100 100 100 100 100 100 100 99 100 98
35 28 37 22 95 89 97 92 99 81 90 96 74 95 94 96 73 6 67 87 87 91 87 100 91 84 96 100 100 100 99 100 94 76 72 33 29 87 100 100 100 100 100 100 100 100 100 97 98 98 100 97 98 99
70 70 71 63 94 96 94 93 90 88 24 76 87 99 71 63 32 100 96 82 86 99 100 91 100 100 100 98 88 80 98 100 100 100 98 89 98 100 100 100 100 100 100 95 96 92 100 100 87 87 95 100 100 98
99 76 74 99 93 100 100 90 83 73 69 61 89 91 100 100 77 47 34 52 89 99 91 90 92 96 100 90 96 96 100 100 100 100 99 98 100 100 100 100 100 98 99 88 92 100 100 100 100 100 100 100 95 96
90 74 90 85 74 98 99 92 100 100 96 99 100 100 100 100 89 80 82 75 90 85 96 100 97 100 90 79 96 91 93 99 100 100 99 100 100 100 100 100 99 92 100 100 100 100 100 100 100 100 99 98 92 93
99 97 85 94 100 98 88 93 96 94 80 75 68 78 49 58 53 89 98 100 100 100 94 98 95 96 96 93 91 95 90 100 100 100 100 100 100 100 100 100 97 100 100 100 100 100 100 100 100 100 94 88 100 100
100 97 89 87 68 92 100 93 91 88 89 99 36 89 60 31 88 92 94 84 98 100 100 100 99 99 91 94 100 100 100 100 100 100 100 100 100 100 100 100 99 100 100 100 100 100 100 100 100 100 100 100 100 100
100 100 100 100 100 100 100 94 87 72 85 97 86 98 86 88 86 53 98 91 91 100 100 96 87 99 100 100 100 100 99 100 100 100 100 100 100 100 100 100 99 100 100 100 100 100 100 100 100 100 100 100 97 64

GFSWCAN_prec_cloud_117.txt.gz
Cloud_Cover
100 100 100 98 99 100 100 100 100 100 33 88 76 100 100 100 100 100 100 100 100 83 100 100 100 100 100 100 100 100 100 100 100 100 100 100 100 98 53 88 99 91 98 100 99 100 100 100 100 100 100 100 100 100
100 100 100 100 100 100 100 100 98 100 100 100 100 100 100 100 100 100 100 100 100 100 100 100 100 100 100 100 100 100 100 100 100 100 100 100 100 74 96 99 47 92 81 97 96 98 100 100 100 100 100 100 100 100
100 100 100 100 100 100 100 100 100 100 100 100 100 100 100 100 100 100 100 100 100 100 100 100 100 100 100 100 100 100 100 100 100 100 100 95 94 84 98 100 97 85 21 91 55 96 100 100 100 100 100 100 100 100
100 100 100 100 100 100 100 100 100 100 100 100 100 100 100 100 100 100 100 100 100 100 100 100 100 100 100 100 100 100 100 100 100 100 100 100 97 77 98 87 90 74 67 100 100 100 100 100 100 100 100 100 100 100
100 100 100 100 100 100 100 100 100 100 100 100 100 100 100 100 100 100 100 100 100 100 100 100 100 100 100 100 100 100 100 82 84 76 69 100 100 86 99 65 82 54 95 78 100 98 91 91 100 100 100 100 100 100
100 100 100 100 100 100 100 100 100 100 100 100 100 100 100 100 100 100 100 100 100 100 100 100 100 100 100 100 100 100 100 61 84 96 86 100 100 85 95 92 100 77 100 91 96 82 100 100 100 100 100 100 100 100
100 100 100 100 100 100 100 100 100 100 100 100 100 100 100 100 100 100 100 100 100 100 100 100 100 100 100 100 100 92 6 5 47 93 96 100 88 30 100 100 99 100 100 100 86 99 100 100 100 100 100 100 100 100
100 100 100 100 100 100 100 100 100 100 100 100 100 100 100 100 100 100 100 100 100 100 100 100 100 94 100 100 44 7 5 4 2 15 14 94 75 75 100 93 100 100 100 100 100 100 100 100 100 100 100 100 100 100
100 100 100 100 100 100 100 100 100 100 100 100 100 100 100 100 100 100 100 100 100 100 100 94 100 100 100 89 68 5 5 16 8 31 48 14 93 79 89 87 100 95 87 100 100 100 99 92 95 89 98 99 88 81
100 100 100 100 100 100 100 100 100 100 100 100 100 100 100 100 100 100 100 100 100 57 94 100 100 100 46 46 98 60 5 20 60 35 62 9 93 22 13 48 55 78 100 100 100 100 100 100 100 100 98 98 100 100
100 100 100 100 100 100 100 100 100 100 100 100 100 100 100 100 100 100 100 99 52 98 99 100 100 100 54 98 88 69 83 61 76 86 82 54 31 66 74 79 73 88 100 100 100 100 100 100 100 100 100 97 92 100
100 100 100 94 78 100 100 100 100 94 98 84 100 100 100 100 100 100 97 82 92 100 98 100 100 79 68 54 84 35 98 41 80 42 90 71 75 56 88 95 100 82 100 100 100 100 100 100 100 100 100 100 98 100
100 100 100 100 98 100 100 100 100 99 100 100 100 100 100 100 100 100 80 84 100 100 77 85 80 78 8 97 73 84 21 96 79 89 94 95 63 94 100 100 100 100 100 100 100 100 100 100 100 100 100 100 100 88
100 99 100 100 96 100 100 100 100 100 100 100 100 100 100 100 100 99 98 100 99 100 100 100 69 94 83 54 32 93 84 78 100 100 96 93 80 99 91 100 100 100 100 100 100 100 100 100 100 100 100 100 100 100
100 100 100 67 99 100 100 100 100 91 100 100 100 100 91 90 99 100 100 100 100 100 94 62 34 45 65 43 79 66 82 85 62 92 99 100 100 100 96 99 83 100 100 100 100 100 100 100 100 100 100 100 100 100
100 97 62 20 34 100 53 71 79 77 94 43 73 98 100 100 100 100 97 100 100 65 57 10 34 96 89 67 57 72 61 73 71 100 100 100 100 100 100 100 100 100 100 100 100 100 100 100 100 100 100 100 100 100
22 76 6 9 5 5 5 20 69 61 90 79 92 100 100 98 100 100 100 100 86 79 62 95 64 95 63 86 77 86 92 98 100 100 100 100 100 100 100 97 100 100 100 100 100 100 100 100 100 100 100 100 100 100
20 29 50 22 5 5 5 7 16 66 96 100 100 100 100 100 100 100 100 100 82 69 88 88 75 87 87 67 98 73 100 100 100 100 100 100 100 100 94 100 100 100 100 100 100 100 100 100 100 100 100 100 100 100
17 5 5 5 11 32 34 40 68 84 100 100 100 100 100 100 100 100 100 100 36 64 88 57 58 93 98 77 100 100 100 100 100 100 100 100 100 100 100 100 100 100 100 100 100 100 100 100 100 100 100 100 100 100
54 79 21 40 30 62 31 70 86 100 100 100 100 100 100 100 99 100 100 100 74 88 80 55 75 98 95 100 100 100 100 100 95 100 100 100 100 100 100 100 100 100 100 100 100 100 100 100 100 100 100 100 100 100
13 13 9 5 5 15 82 90 100 92 100 100 100 100 100 100 99 71 58 67 85 80 80 84 60 88 40 42 25 31 34 43 86 90 83 100 78 100 100 100 100 100 100 100 100 100 100 100 100 100 100 100 100 100
73 86 70 22 26 43 80 90 99 95 99 98 96 100 100 100 100 87 39 87 87 100 100 87 44 10 14 35 29 11 11 6 5 5 8 96 98 88 100 100 100 100 100 100 100 100 100 94 84 97 94 100 98 100
48 47 50 43 33 36 62 86 87 92 100 99 97 89 100 100 99 94 94 72 90 97 97 59 10 5 27 12 5 5 5 5 18 37 9 68 95 100 100 100 100 100 100 100 100 100 97 98 95 95 100 100 100 100
16 28 10 12 13 85 93 89 100 99 87 97 88 98 100 99 99 97 54 20 73 60 20 9 7 20 30 12 60 61 15 43 83 100 52 74 99 100 100 100 100 100 100 100 100 100 100 100 100 100 100 100 100 100
5 7 21 23 14 77 100 84 92 83 100 90 82 84 96 100 96 44 5 51 52 99 66 51 62 100 100 100 100 47 14 46 94 99 72 78 99 100 100 100 100 100 100 99 100 100 100 100 100 100 100 100 100 100
5 5 33 11 22 63 87 100 100 93 79 93 93 90 99 79 46 20 22 90 82 100 100 100 100 100 100 95 98 85 90 97 98 100 91 86 98 100 100 100 100 100 100 100 100 100 100 100 100 100 100 100 100 100
5 43 38 20 82 24 84 90 84 98 99 97 100 100 100 97 72 76 66 82 100 100 100 100 100 100 100 100 83 98 100 88 87 87 94 96 100 100 100 100 100 99 100 100 100 100 100 100 100 100 100 100 100 100
46 48 91 98 90 94 98 80 89 90 76 93 86 100 99 95 91 87 96 100 100 100 100 100 100 100 100 100 100 100 100 99 90 86 89 97 100 100 99 100 76 78 100 100 100 100 100 100 100 100 100 100 100 100
64 87 100 95 98 100 100 90 79 86 46 63 96 84 73 35 72 90 100 83 92 100 100 100 100 100 100 100 100 100 100 100 100 100 100 100 99 100 100 100 100 100 100 100 100 100 100 100 100 100 100 100 100 100
70 79 69 87 77 12 78 81 97 100 53 63 47 14 25 70 100 89 78 94 96 100 100 100 100 99 100 100 100 100 100 98 99 97 100 100 97 100 100 100 100 100 100 100 100 100 100 100 100 100 100 100 100 100
94 100 97 82 86 92 100 100 100 100 100 100 97 99 97 98 100 99 100 100 100 100 100 100 100 100 100 100 100 100 100 98 90 100 95 80 99 100 100 100 100 100 100 100 100 100 100 100 100 100 100 100 100 100
100 100 100 98 97 99 87 100 100 100 100 100 100 99 100 97 100 100 100 100 100 100 100 100 100 100 100 100 98 92 92 99 100 100 100 100 100 100 100 100 100 100 100 100 100 100 100 100 100 100 100 96 99 87
100 100 100 100 100 98 100 98 99 100 100 100 100 100 100 100 100 100 100 100 100 100 100 100 100 100 100 100 100 100 100 100 100 100 100 100 100 100 100 100 100 100 100 100 100 100 100 100 100 100 99 88 83 86

GFSWCAN_prec_cloud_120.txt.gz
Cloud_Cover
100 100 63 100 100 100 100 100 100 100 100 87 13 5 35 24 48 98 100 76 99 17 74 100 100 100 92 53 94 100 100 100 100 100 100 100 100 100 100 100 100 100 90 86 95 100 98 100 100 76 100 100 100 100
100 100 99 100 100 100 100 100 100 100 100 86 5 11 40 5 98 100 100 100 100 98 10 100 68 62 100 100 100 100 100 100 100 100 100 100 100 100 100 100 100 99 99 92 100 98 78 100 100 100 100 91 100 100
100 100 66 100 100 100 100 100 100 100 100 94 15 5 5 100 100 100 100 100 42 100 82 100 100 100 100 100 100 100 100 100 100 100 100 100 100 100 100 100 97 11 5 38 18 84 83 100 100 100 100 100 99 100
100 100 100 97 100 100 100 100 100 93 35 51 13 97 99 100 100 100 100 92 26 100 100 100 100 100 100 100 100 100 100 100 100 100 100 100 100 100 100 88 94 56 5 83 84 88 82 100 100 100 100 100 100 99
100 100 100 100 100 100 100 85 74 57 72 88 95 100 100 100 100 100 100 100 100 100 100 100 100 100 100 100 100 100 100 100 100 100 100 100 100 98 68 36 85 5 44 54 82 26 65 97 100 100 100 100 100 100
100 100 100 100 100 100 100 100 100 100 100 100 100 100 100 100 100 100 100 100 100 100 100 100 100 100 100 100 100 100 100 100 100 100 100 77 100 81 100 99 50 99 94 20 45 11 71 90 100 100 100 100 100 99
100 100 100 100 100 100 100 100 100 100 100 100 100 100 100 100 100 100 100 99 100 100 100 100 100 100 100 100 100 100 100 100 100 100 56 70 100 60 100 50 51 100 23 5 25 14 99 100 100 100 100 100 100 100
100 100 100 100 100 100 100 100 100 100 100 100 100 100 100 100 100 100 100 100 100 100 100 100 100 100 100 100 100 100 100 100 100 94 60 74 62 76 96 87 81 100 83 78 70 98 100 100 100 100 100 100 100 100
100 100 100 100 100 100 100 100 100 100 100 100 100 100 100 100 100 100 100 100 100 100 100 100 100 100 100 100 100 100 100 100 18 5 79 12 31 42 34 67 99 96 53 87 86 100 100 100 100 100 100 100 100 100
100 100 100 100 100 100 100 100 100 100 100 100 100 100 100 100 100 100 100 100 100 100 100 100 100 100 100 100 100 100 28 32 7 4 20 7 6 5 10 15 36 61 88 99 92 100 100 100 100 100 100 100 100 100
100 100 100 100 100 100 100 100 100 100 100 100 100 100 100 100 100 100 100 100 100 100 100 100 100 100 100 97 30 50 14 36 24 20 28 29 8 22 9 34 69 88 99 98 94 100 100 100 100 100 100 100 100 100
100 100 100 100 100 100 100 100 100 100 100 100 100 100 100 100 100 100 100 100 100 100 100 84 100 100 100 100 95 46 24 5 57 7 17 26 77 54 70 100 100 100 100 100 100 100 100 100 100 100 100 100 100 99
100 100 100 100 100 100 100 100 100 100 97 97 100 100 99 100 100 100 100 100 100 100 100 100 100 70 52 10 5 11 5 61 18 71 59 84 91 86 100 100 100 100 100 88 100 100 100 100 100 100 100 100 100 100
100 100 100 100 100 100 100 100 100 100 100 100 100 100 100 100 100 100 100 100 100 100 100 100 74 17 38 34 11 24 65 17 68 89 66 96 100 89 100 97 99 100 93 100 100 99 100 100 100 100 100 100 100 100
100 100 100 100 100 100 100 100 100 100 100 100 100 100 100 100 100 100 100 100 99 100 99 99 100 97 78 18 64 64 79 84 49 88 99 94 100 95 90 92 66 94 75 72 100 100 100 100 100 100 100 100 100 100
100 78 94 100 100 100 100 100 100 100 100 100 100 100 100 100 100 100 100 92 79 95 100 100 98 52 58 8 34 38 64 78 91 94 100 100 100 100 100 86 100 100 96 100 100 100 100 100 100 100 100 100 100 100
100 99 74 86 100 100 100 100 100 100 100 100 100 100 100 100 100 100 100 97 51 99 100 94 79 77 24 79 51 64 66 96 100 100 100 100 100 100 100 86 100 100 87 100 100 100 100 100 100 100 100 100 100 100
100 100 100 100 100 100 100 100 100 92 97 100 100 100 100 100 100 100 56 100 100 100 100 96 58 67 46 79 78 100 100 100 100 100 100 100 100 100 100 92 100 100 100 98 100 100 100 100 100 100 100 100 100 100
74 10 5 5 27 10 23 38 46 67 100 98 100 94 62 89 95 92 88 100 100 100 100 100 76 52 81 100 99 100 100 100 100 100 100 100 100 100 100 100 89 99 98 99 99 100 100 100 100 100 100 100 100 100
69 45 34 5 5 5 5 39 70 80 100 97 98 98 100 100 86 100 100 100 100 100 100 100 99 100 100 100 100 97 100 100 100 100 100 100 100 100 100 98 98 100 100 100 100 100 100 100 100 100 100 100 100 100
5 5 21 5 5 6 65 76 89 90 80 78 95 93 100 97 100 100 100 100 100 100 100 100 100 100 100 84 63 98 80 100 100 100 76 98 100 100 100 100 100 100 100 100 100 100 100 100 100 100 100 100 100 100
5 5 5 5 5 18 59 72 97 91 99 98 87 100 100 100 100 100 100 100 100 100 100 100 100 100 100 87 60 37 13 5 5 5 47 42 97 100 100 100 100 100 100 100 100 100 100 100 100 100 100 100 100 100
10 5 5 5 5 32 53 71 60 94 96 99 96 97 100 100 100 100 100 100 100 100 100 100 100 98 67 56 41 6 5 24 80 69 46 100 100 100 100 100 99 100 100 100 100 100 100 82 82 100 100 100 100 95
5 9 12 6 12 92 73 80 86 72 88 100 95 99 100 99 77 81 73 91 99 100 100 100 68 40 41 20 100 97 28 93 90 50 99 100 100 100 100 100 100 100 100 100 98 97 100 100 90 98 100 98 100 100
13 5 24 5 29 67 77 73 73 66 97 94 74 94 96 98 80 45 55 83 100 99 88 88 60 91 100 100 100 50 6 75 100 100 93 100 100 100 100 100 100 100 100 99 100 100 100 100 100 100 100 100 100 100
22 5 44 21 18 81 91 98 70 74 94 73 89 89 78 90 60 62 47 100 100 100 100 100 100 100 100 100 100 100 46 96 100 91 100 100 100 100 100 100 100 99 100 100 100 100 100 100 100 100 100 100 100 100
59 89 45 44 91 56 92 77 71 94 82 70 69 99 78 49 31 62 98 100 100 100 100 100 100 100 100 100 89 84 82 81 79 83 77 77 93 100 100 99 99 93 84 100 100 100 100 100 100 100 100 100 100 100
60 29 82 90 88 62 73 44 67 66 45 83 56 100 100 90 94 100 98 100 100 100 100 100 100 100 100 100 100 100 100 100 80 83 74 82 90 95 100 98 94 92 96 100 100 98 98 100 100 100 100 100 100 100
68 72 96 94 94 99 86 64 63 50 19 77 88 99 89 81 100 100 100 100 100 100 100 100 100 100 100 100 100 100 100 100 100 100 100 98 100 100 100 100 96 98 100 100 100 100 97 100 100 100 100 100 100 100
81 82 67 68 15 42 71 100 100 100 74 91 58 30 32 95 100 99 100 100 100 100 100 100 100 100 100 100 100 100 100 100 100 100 100 100 95 99 100 97 94 96 100 100 100 100 99 100 100 100 100 100 100 100
94 100 98 96 83 83 93 100 100 100 100 100 100 100 89 100 100 100 100 100 100 100 99 100 100 100 100 100 100 100 100 98 100 98 78 73 88 100 100 96 100 100 95 100 100 100 100 100 100 100 100 100 100 100
100 95 92 98 99 99 100 100 100 100 100 100 100 100 100 100 100 100 100 100 100 100 100 100 100 100 100 100 99 95 97 89 100 100 100 98 98 93 89 89 100 100 100 100 100 100 100 100 100 100 100 100 100 100
96 92 93 93 100 100 100 97 100 100 100 100 100 100 100 100 100 100 100 98 100 100 100 100 100 100 100 100 100 100 100 100 100 98 98 93 94 99 100 100 96 100 100 100 100 100 100 100 100 100 100 100 100 100

GFSWCAN_prec_cloud_123.txt.gz
Cloud_Cover
100 100 100 100 100 100 100 100 100 100 100 100 96 100 100 18 79 75 100 100 100 66 4 0 8 4 21 64 20 37 63 92 88 100 100 100 100 100 100 100 100 100 100 100 100 100 73 56 5 63 100 100 100 100
100 100 100 100 86 100 100 100 100 100 100 99 82 100 94 5 78 92 100 100 100 100 27 66 98 98 61 7 5 8 84 63 100 100 100 100 100 100 100 100 100 100 100 100 100 45 57 53 57 86 100 100 100 100
100 100 100 100 100 100 100 100 100 100 100 100 97 100 8 11 22 84 100 100 100 100 10 75 30 31 49 90 86 100 100 100 100 100 100 100 100 100 100 100 100 100 100 100 100 29 29 92 46 56 100 100 98 95
100 100 100 100 100 100 100 100 100 100 100 100 95 100 5 5 5 100 100 100 100 79 100 99 6 66 100 100 100 100 100 100 100 99 100 100 100 100 100 100 100 100 100 100 70 38 14 63 86 31 100 100 100 100
100 100 100 100 100 100 100 99 89 59 89 100 34 10 5 5 5 100 100 100 91 37 91 100 65 100 100 100 100 100 100 100 100 100 100 100 100 100 100 100 100 100 100 17 7 5 5 8 65 94 100 100 100 98
100 89 100 40 41 100 100 100 92 97 99 89 70 5 5 5 5 5 100 100 48 98 98 100 100 100 100 100 100 100 100 100 100 100 100 100 100 100 100 100 100 80 72 8 5 5 5 10 61 85 99 100 100 100
100 100 99 98 92 94 100 78 100 100 44 31 5 5 5 5 28 100 77 32 95 55 84 100 100 100 100 100 100 100 100 100 100 100 100 100 100 100 100 34 25 72 8 5 5 9 90 59 99 100 100 100 100 100
100 100 100 100 100 99 30 34 58 84 83 24 5 55 96 100 100 100 100 100 100 100 100 100 100 100 100 100 100 100 100 100 100 100 100 100 100 98 23 53 5 5 11 9 5 5 5 12 98 100 100 100 100 100
100 100 100 100 100 100 100 100 100 100 64 100 100 100 100 98 100 100 100 100 100 100 100 100 100 100 100 100 100 100 100 100 100 100 100 100 72 5 2 8 69 5 11 10 44 89 8 60 100 100 100 100 100 100
100 100 100 100 100 100 100 100 100 100 100 100 100 100 100 100 100 100 100 100 100 100 100 100 100 100 100 100 100 100 100 100 100 100 66 21 5 5 4 5 5 5 6 5 75 68 90 100 100 100 100 100 100 100
100 100 100 100 100 100 100 100 100 100 100 100 100 100 100 100 100 100 100 100 92 100 100 100 100 100 100 100 100 100 100 98 84 27 5 12 18 5 5 5 5 5 67 90 19 5 100 100 100 100 100 100 100 100
100 100 100 100 100 100 100 100 100 100 100 100 100 100 100 100 100 100 100 99 100 100 100 100 100 100 100 100 100 100 74 64 11 34 5 5 73 79 25 29 28 100 100 100 78 7 100 100 100 100 100 100 100 100
100 100 100 100 100 100 100 100 100 100 100 100 100 100 100 100 100 100 100 100 100 100 100 100 100 100 100 100 100 100 53 19 5 5 5 60 63 100 100 100 100 100 100 100 92 71 100 100 100 100 100 100 100 100
100 100 100 100 100 100 100 100 100 100 100 100 100 100 100 100 100 100 100 100 100 100 100 65 84 100 100 89 42 32 57 12 10 81 44 97 99 79 98 100 100 100 99 100 70 80 100 100 100 100 100 100 100 100
100 100 100 99 100 100 100 100 100 100 100 100 100 100 100 100 100 100 99 100 100 100 98 100 100 100 100 100 63 13 48 42 36 55 80 68 100 90 94 100 94 90 87 95 80 84 100 100 100 100 100 100 100 100
98 100 87 98 100 100 100 98 100 100 100 100 100 100 97 96 100 100 100 100 100 100 96 93 100 100 100 100 98 75 50 77 96 99 100 100 100 100 100 100 90 65 64 66 72 100 100 100 100 100 100 100 100 100
100 100 100 100 100 99 99 100 95 94 100 99 100 100 100 100 100 100 100 100 100 100 100 100 100 100 100 100 100 72 57 93 100 100 100 100 100 100 100 97 80 40 65 98 97 100 100 100 100 100 100 100 100 100
100 100 100 100 96 81 100 100 100 100 100 100 100 100 100 100 100 100 100 100 100 100 100 100 100 100 100 100 96 69 100 100 100 100 100 100 100 100 100 100 82 31 52 67 100 100 100 100 100 100 100 100 100 100
100 100 100 100 100 100 100 100 100 100 100 100 100 100 100 100 100 98 100 100 100 100 100 100 100 100 100 100 91 100 100 100 100 100 100 100 100 100 100 89 84 69 68 79 99 100 100 100 100 100 100 100 100 100
100 100 100 100 100 100 100 100 91 95 100 100 100 100 100 100 81 98 100 100 100 100 100 100 100 100 100 100 100 100 100 100 93 100 100 100 100 100 100 100 82 89 100 100 100 100 100 100 100 100 100 100 100 100
100 100 84 7 87 54 70 65 93 92 92 65 94 100 98 95 92 100 100 100 100 100 100 100 100 100 100 100 100 100 100 100 100 90 33 100 100 100 100 100 98 100 100 100 100 100 100 100 100 100 100 100 100 100
100 100 100 69 23 43 14 79 90 95 86 100 97 100 100 100 100 100 100 100 100 100 100 100 100 100 100 100 100 100 98 66 20 15 64 54 100 100 100 100 97 82 95 100 100 100 100 100 96 100 100 100 100 100
91 97 78 10 5 5 41 43 32 98 90 66 99 100 100 100 100 100 100 100 100 100 100 100 100 100 100 98 92 92 80 63 89 45 81 99 100 100 100 100 100 98 91 90 87 100 100 100 84 99 100 100 100 100
5 4 10 5 5 30 5 24 5 6 99 99 77 90 98 98 88 100 100 100 100 100 100 100 97 87 89 98 96 95 64 100 100 99 100 100 100 100 100 100 100 100 100 98 94 96 98 77 96 100 100 100 100 100
5 5 8 6 12 7 5 5 35 39 78 72 76 74 77 93 80 13 98 98 100 100 97 94 97 100 100 100 100 93 29 94 100 100 100 100 100 100 100 100 100 100 100 100 100 96 86 96 98 97 100 100 100 100
37 8 38 16 37 6 17 5 28 75 5 5 62 50 62 56 9 94 89 100 100 100 100 100 100 100 100 100 100 100 82 94 90 94 100 100 100 100 100 100 100 96 100 100 99 96 100 100 100 100 100 100 100 100
14 8 5 6 59 32 5 23 9 5 5 47 6 22 5 17 35 96 100 100 100 100 100 100 100 100 100 100 100 98 68 60 92 78 87 78 93 97 99 98 100 95 99 100 87 100 100 100 100 100 100 100 100 100
11 79 60 76 38 9 6 5 5 21 82 97 5 5 7 95 97 100 99 100 100 100 100 100 100 100 100 100 100 100 100 99 99 96 88 78 83 83 81 85 75 79 87 88 92 98 100 100 100 100 100 100 100 100
10 20 81 93 88 88 15 91 99 69 42 17 15 99 96 96 100 100 100 100 100 100 100 100 100 100 100 100 100 100 100 85 82 85 50 84 88 94 100 96 95 88 98 100 97 94 97 100 100 100 100 100 100 100
43 38 80 6 6 66 98 100 99 100 100 84 40 46 58 100 100 100 100 100 100 100 100 100 100 100 100 100 100 100 99 100 100 100 90 72 64 94 93 90 98 97 81 70 92 100 100 100 100 100 100 100 100 100
100 100 50 7 78 85 100 100 100 100 100 100 100 100 99 98 96 99 93 100 100 100 100 100 100 100 100 100 100 100 100 95 73 85 63 63 56 92 99 88 84 81 85 78 82 100 100 100 100 100 100 100 100 100
100 91 97 98 91 84 100 100 99 100 100 100 100 100 100 100 100 96 95 91 97 100 100 100 100 100 100 100 100 92 97 88 90 97 90 95 100 97 90 90 96 92 86 85 89 87 99 100 100 100 100 100 100 100
92 96 56 73 100 100 93 19 94 100 100 91 100 100 100 100 98 91 92 74 93 96 98 100 100 100 100 100 100 100 99 97 99 97 96 99 99 98 93 96 98 100 100 100 100 99 94 100 100 100 100 100 100 100

GFSWCAN_prec_cloud_126.txt.gz
Cloud_Cover
100 100 100 100 100 100 100 100 100 100 95 58 22 100 100 100 100 22 17 100 100 100 100 100 100 100 100 56 3 16 78 94 94 100 100 96 79 68 100 86 93 100 100 100 100 100 100 89 81 99 6 39 100 100
100 100 100 64 96 100 100 100 100 100 100 100 100 99 91 100 34 35 98 100 100 100 100 100 100 100 87 10 1 5 1 0 6 58 89 84 99 98 99 97 100 100 100 100 100 99 98 100 100 92 53 41 100 100
100 100 100 100 100 100 100 100 100 100 100 100 100 99 7 100 98 7 33 100 100 100 100 64 55 62 24 5 36 42 5 6 96 23 88 100 100 100 100 100 100 100 100 100 100 100 100 100 83 7 42 5 100 100
100 100 100 88 100 100 100 100 100 100 100 100 100 61 25 68 71 5 17 99 100 100 100 85 8 75 52 74 79 100 97 100 100 100 100 100 100 100 100 100 100 100 100 100 100 100 100 91 18 5 5 5 22 100
100 100 100 100 100 100 100 100 100 100 100 100 100 35 5 23 5 8 39 100 100 100 100 100 100 100 100 100 97 100 100 100 100 100 100 100 100 100 92 100 100 100 98 100 100 70 43 6 5 5 5 5 13 100
100 100 100 100 99 100 100 100 100 100 100 100 100 100 41 50 5 93 100 100 100 100 100 100 100 100 78 32 100 100 100 100 100 100 100 100 100 100 100 100 100 100 100 100 16 5 5 5 5 5 5 5 11 100
100 100 68 94 100 100 100 100 100 99 69 100 100 70 5 5 17 98 40 100 100 100 100 100 98 100 100 100 100 100 100 100 100 100 100 100 100 100 100 100 100 100 93 5 5 10 97 35 52 17 18 26 91 100
91 69 40 52 49 15 66 75 98 100 100 42 5 3 66 90 86 86 100 100 100 100 99 86 95 100 100 100 100 100 100 100 100 100 100 100 100 100 100 100 100 62 5 5 5 5 5 5 6 79 95 87 100 100
100 100 95 20 34 39 30 7 18 8 5 5 19 98 44 59 88 100 100 100 100 100 83 94 76 100 100 100 100 100 100 100 100 100 100 100 100 100 100 100 20 5 9 7 5 5 5 5 34 71 76 100 100 100
100 100 78 47 27 6 43 42 10 5 6 12 90 93 100 100 100 100 100 100 100 100 66 100 100 100 100 100 100 100 99 100 100 100 100 100 100 100 15 4 5 5 5 5 6 99 100 100 100 91 97 100 100 100
100 100 100 100 100 92 96 100 94 100 100 100 100 100 91 52 100 100 100 98 100 100 100 100 100 100 100 100 100 100 100 98 100 100 100 94 50 8 5 5 5 5 5 5 5 5 5 43 99 100 100 100 100 100
100 100 100 100 100 100 100 100 100 100 94 48 60 100 100 100 100 100 94 85 88 100 100 100 100 92 100 100 98 82 100 100 100 97 55 11 5 5 14 5 5 5 12 64 5 5 5 5 98 100 100 100 100 100
100 100 100 100 100 100 100 100 100 100 100 100 100 100 100 99 100 100 100 100 100 100 100 100 100 99 94 70 100 100 100 100 100 67 24 5 7 14 100 87 70 100 100 100 98 64 16 75 100 100 100 100 100 100
100 100 100 100 100 100 100 100 100 100 100 100 100 100 100 100 100 100 100 100 100 100 100 100 100 100 100 100 100 100 100 32 60 52 5 11 99 100 100 100 100 100 100 100 99 77 100 92 100 100 100 100 100 100
100 100 100 100 100 100 100 100 100 100 100 100 100 100 100 100 100 100 100 100 99 88 100 100 87 96 100 100 99 57 58 55 8 19 87 82 99 79 99 100 100 100 82 96 100 87 81 93 100 100 100 100 100 100
100 100 100 100 100 100 100 100 100 100 100 100 100 100 100 100 100 100 100 100 100 98 96 72 99 100 100 98 80 75 91 83 42 98 94 95 100 100 100 100 100 98 82 78 74 72 76 97 100 100 100 100 100 100
100 100 100 100 100 100 100 100 100 100 100 100 100 100 100 100 100 100 100 100 100 100 100 100 100 99 92 96 99 100 100 100 97 100 100 100 100 100 100 100 100 90 62 77 80 98 82 98 100 100 100 100 100 100
88 100 100 100 87 72 86 100 99 89 100 100 100 100 100 100 100 100 100 100 100 100 87 99 99 95 100 99 100 100 100 100 100 100 100 100 100 100 100 100 93 79 67 66 55 69 85 100 100 100 100 100 100 100
84 77 94 100 100 100 97 88 94 100 100 100 100 100 100 99 98 100 100 100 100 100 100 100 100 100 100 100 100 100 100 100 100 100 100 100 100 100 100 100 91 81 69 71 77 84 81 100 100 100 100 100 100 100
100 100 100 78 90 100 100 100 98 98 100 99 100 100 100 99 94 94 100 100 100 100 100 100 100 100 100 100 100 100 100 100 100 100 100 100 100 100 100 100 100 94 83 84 100 100 95 92 100 100 100 100 100 100
100 100 100 100 100 100 100 100 100 100 100 100 100 100 100 100 100 100 100 100 100 100 100 100 100 100 100 100 100 100 100 100 100 100 82 97 100 100 100 100 100 85 79 83 92 94 100 100 100 100 100 100 100 100
100 100 100 100 100 100 100 100 100 96 94 100 98 100 100 46 78 70 87 100 100 100 100 100 100 100 100 100 100 100 100 100 100 96 61 43 100 100 100 100 100 88 91 90 98 100 100 100 100 100 100 100 100 100
100 100 100 91 100 36 42 20 15 89 92 87 100 98 99 73 58 79 80 97 100 100 100 100 100 100 100 100 100 100 100 100 100 83 84 94 100 100 100 100 100 100 98 96 98 99 96 99 100 100 100 99 100 100
100 100 100 100 100 100 92 39 5 73 100 100 98 100 95 59 51 95 100 100 100 100 100 100 100 100 100 100 100 100 100 100 100 100 100 100 100 100 100 100 100 100 100 98 88 84 81 97 82 88 100 100 100 100
43 94 98 99 76 61 63 23 11 8 24 95 72 96 54 90 84 83 100 100 100 100 100 100 100 100 100 100 100 100 98 100 100 100 100 100 100 100 100 100 100 100 100 94 96 77 88 98 100 100 100 100 100 100
56 8 10 11 41 11 14 27 37 53 5 24 54 26 88 64 34 99 100 100 100 100 100 100 100 100 100 100 100 100 98 87 100 100 100 100 100 100 100 100 100 98 99 100 96 82 88 95 100 100 100 100 100 100
45 37 32 88 92 10 9 52 6 5 10 6 54 5 5 17 93 100 100 100 100 100 100 100 100 100 100 100 100 100 98 81 97 92 95 90 86 95 100 100 100 99 88 88 89 96 96 96 100 100 100 100 100 100
75 45 6 15 30 6 5 14 13 35 91 98 5 5 45 96 100 100 100 100 100 100 100 100 100 100 100 100 100 100 100 100 98 96 88 80 72 79 78 84 70 68 78 72 96 96 96 94 100 96 96 100 100 100
45 86 29 33 25 38 87 100 100 100 100 92 89 99 89 99 100 100 100 100 100 100 100 100 100 100 100 100 100 100 100 94 96 87 92 95 94 86 98 98 86 97 96 100 99 96 91 87 99 100 100 100 100 100
44 63 27 34 57 92 99 100 96 100 100 100 94 95 100 100 100 100 100 100 100 100 100 100 100 100 100 100 100 100 94 92 98 92 82 92 79 95 86 80 86 100 100 100 91 99 100 94 100 100 100 100 100 100
96 6 8 40 96 96 100 100 100 100 100 100 99 100 90 96 96 100 99 99 100 100 100 100 100 100 100 99 100 100 96 98 96 90 87 86 88 99 98 100 100 100 100 98 100 100 100 99 97 98 100 100 100 100
47 77 92 65 96 86 100 94 97 100 100 99 97 99 100 100 100 98 75 89 96 95 97 96 100 100 96 91 100 99 99 100 100 100 99 95 98 100 97 92 98 100 100 99 100 100 100 100 99 100 96 100 100 100
97 100 94 79 100 98 84 6 67 100 99 98 96 99 100 100 96 82 99 79 88 91 98 99 99 100 100 100 99 99 95 98 100 99 97 98 94 93 94 95 94 91 85 99 100 100 98 95 100 100 90 100 100 100

GFSWCAN_prec_cloud_129.txt.gz
Cloud_Cover
100 100 100 100 100 71 5 5 44 100 100 100 100 100 100 100 100 96 98 100 100 100 100 100 100 100 100 100 100 100 100 68 100 100 100 88 47 65 40 100 94 82 98 100 100 100 100 100 5 69 14 5 5 5
100 100 100 100 100 100 100 17 5 11 99 100 100 100 100 100 100 100 100 100 100 94 100 100 100 100 100 100 100 100 100 77 63 80 85 97 58 65 100 29 33 100 100 100 100 100 100 100 96 29 5 35 6 5
100 100 100 100 100 100 100 100 100 84 15 54 5 10 80 94 100 73 100 100 100 100 100 100 100 100 100 100 100 100 100 90 5 86 88 9 50 100 44 66 100 100 100 100 97 100 100 100 100 35 69 5 5 5
100 100 100 100 100 100 100 100 100 100 100 100 89 12 72 100 100 96 64 83 100 100 100 100 85 97 100 100 100 100 100 99 44 5 7 95 100 95 100 100 100 100 100 100 100 100 100 100 100 100 34 34 5 5
100 100 100 100 100 100 100 100 100 100 100 100 100 100 100 100 100 100 100 49 13 72 100 100 90 100 100 100 100 100 94 100 100 97 100 100 100 100 100 94 100 100 100 100 98 100 95 100 100 64 29 5 5 5
100 100 100 100 100 100 100 100 100 100 100 100 100 100 100 100 100 100 100 100 50 97 100 100 100 100 100 100 100 100 100 100 100 100 100 97 100 100 89 100 100 100 100 100 70 100 100 100 79 5 5 5 5 5
100 100 98 100 100 100 100 100 100 100 100 100 100 96 10 100 99 94 23 44 94 100 100 100 100 100 100 100 100 100 100 100 100 100 100 100 100 99 100 100 98 100 100 100 100 100 100 88 41 5 5 5 5 54
100 100 100 100 100 100 100 100 100 100 100 100 97 94 100 100 100 86 100 100 100 100 100 100 100 100 100 100 100 100 100 100 100 100 100 100 100 100 100 100 100 100 100 100 100 100 58 5 5 5 30 59 52 82
100 100 100 100 100 100 100 100 100 100 100 100 100 100 100 100 93 100 100 100 100 100 100 100 100 100 100 100 100 100 100 100 100 100 100 100 100 100 100 100 100 100 100 98 19 5 5 5 6 19 79 89 96 73
37 100 83 94 99 98 98 100 100 100 79 100 100 100 100 100 100 100 100 100 100 100 100 100 100 100 100 100 100 100 100 99 100 100 100 100 100 100 100 100 99 35 5 5 44 98 99 96 100 99 90 100 95 100
23 5 36 41 68 30 24 6 5 34 53 42 99 100 100 100 100 100 100 100 100 100 71 84 98 100 100 100 100 100 100 100 100 100 100 100 70 100 99 30 5 5 5 5 5 5 5 5 95 100 99 100 99 100
100 37 18 5 5 5 4 2 5 11 29 54 94 100 100 100 100 100 96 100 71 29 87 100 94 100 98 80 100 100 100 100 100 100 91 18 96 64 7 5 5 5 5 5 5 5 5 5 98 100 100 100 100 100
100 100 100 100 93 30 5 4 56 20 12 16 74 100 100 100 100 71 60 20 96 100 100 100 98 100 100 100 100 100 100 100 61 100 100 100 33 16 5 5 5 5 17 63 60 15 5 40 64 92 100 100 100 100
100 100 100 100 100 100 100 64 100 100 75 66 52 48 52 86 96 100 100 100 100 100 100 100 100 100 100 100 100 96 96 97 100 100 93 29 26 27 76 9 7 84 96 100 100 80 50 100 95 93 100 100 100 100
100 100 100 100 100 100 100 100 100 100 100 100 100 100 100 100 100 100 100 100 73 81 100 100 100 100 100 100 100 76 88 100 100 74 67 95 21 100 99 100 90 100 86 69 67 85 100 100 82 100 100 100 100 100
100 100 100 100 100 100 100 100 100 100 100 100 100 100 100 100 100 100 100 100 99 100 92 97 100 100 98 83 45 94 100 100 100 96 100 62 96 100 100 100 100 98 69 100 100 96 83 76 74 100 99 100 100 100
100 100 100 100 100 100 100 100 100 100 97 99 98 99 100 100 100 100 100 100 100 100 99 85 92 77 100 100 100 100 100 100 100 82 100 100 100 100 100 100 100 97 66 73 76 75 74 75 78 100 98 98 100 100
99 100 100 100 100 100 100 100 100 100 100 100 100 100 100 100 100 100 100 100 100 100 100 98 98 99 89 79 98 97 100 100 100 100 100 100 100 100 100 100 100 92 82 80 59 73 71 69 84 90 100 100 100 100
72 63 100 91 96 100 100 100 100 98 100 100 98 100 98 73 98 95 96 98 100 100 100 98 100 100 96 100 100 100 100 100 100 100 100 100 100 100 100 100 100 80 73 81 77 73 62 73 83 75 88 93 100 100
76 98 98 98 92 91 99 100 100 100 100 100 98 100 93 96 100 100 100 100 100 100 100 100 100 100 100 100 100 100 100 100 100 100 100 100 100 100 100 100 100 92 76 82 71 70 78 79 100 94 98 100 100 100
100 95 98 100 98 77 66 83 87 85 99 100 100 100 100 100 100 100 95 65 78 98 95 100 100 100 100 100 100 100 100 100 100 100 100 100 100 100 100 100 100 100 74 75 77 77 71 92 100 100 100 100 100 100
97 98 100 100 100 94 96 80 83 99 98 100 100 100 100 100 100 100 100 100 100 100 100 100 100 100 100 100 100 100 100 100 100 100 100 100 100 100 100 100 100 100 100 97 100 99 92 98 100 83 100 100 100 100
98 95 100 100 100 100 100 100 100 100 100 99 56 62 76 80 77 53 73 91 100 100 99 99 100 100 100 100 100 100 100 100 100 100 100 100 100 100 100 100 100 100 100 94 100 100 92 90 79 87 97 100 100 100
100 100 100 100 100 100 100 100 100 72 95 53 82 87 64 38 78 100 95 100 100 100 100 100 100 100 100 100 100 100 100 100 100 100 100 100 100 100 100 100 100 100 100 100 92 100 98 99 91 93 98 100 100 99
100 100 100 100 100 100 100 100 91 63 35 98 84 98 55 87 96 93 88 100 100 100 100 100 100 100 100 100 100 100 100 100 100 100 100 100 100 100 100 100 100 100 100 95 99 100 100 95 100 99 100 100 100 100
99 91 43 51 89 98 77 81 81 99 87 77 83 58 91 97 86 100 100 100 100 100 100 100 100 100 100 100 100 100 100 100 100 100 98 100 100 100 100 100 100 99 100 100 99 86 86 96 99 100 100 99 93 94
70 74 85 98 90 60 36 26 13 6 11 26 63 8 5 81 99 100 100 100 100 100 100 100 100 100 100 100 100 100 100 100 92 90 89 92 99 98 100 100 100 97 100 100 100 100 100 100 99 99 100 97 92 90
96 18 60 52 63 31 39 63 32 80 90 74 6 25 68 94 86 100 94 100 100 100 100 100 100 100 100 100 100 100 100 100 100 97 90 71 67 81 83 97 97 100 93 95 100 100 100 95 91 91 94 97 100 100
80 56 7 12 18 89 85 91 99 95 100 99 87 97 97 98 100 100 100 100 100 100 100 100 100 100 100 100 100 100 100 100 98 93 74 99 97 68 94 99 100 100 100 99 99 100 100 100 98 94 100 97 100 100
36 58 40 88 86 96 98 100 100 100 100 100 100 100 99 100 100 100 100 100 100 100 100 100 100 100 100 100 100 100 94 83 78 85 94 92 75 68 96 91 90 95 97 97 100 100 100 100 100 100 100 100 100 100
26 33 23 84 94 100 100 100 100 100 100 100 100 100 94 87 92 98 99 100 99 100 100 100 100 100 100 100 99 95 87 82 100 100 89 85 95 98 100 100 100 100 100 100 100 100 100 97 98 100 100 100 100 100
59 96 77 96 100 98 99 98 100 100 98 98 100 91 96 95 90 87 75 89 99 73 82 92 98 97 100 100 100 100 99 93 92 97 100 100 100 100 100 100 100 100 98 99 98 87 99 92 98 100 100 100 100 100
98 97 100 92 100 97 90 23 52 95 90 93 93 92 95 100 86 91 100 92 91 91 89 81 81 89 96 99 100 100 100 99 96 98 98 93 98 92 93 90 90 87 82 97 97 100 100 100 98 94 93 100 99 94

GFSWCAN_prec_cloud_132.txt.gz
Cloud_Cover
100 100 100 100 100 12 5 17 94 100 100 100 100 100 100 100 100 100 74 100 100 100 100 100 100 100 100 100 100 100 100 100 100 100 100 99 96 85 96 37 74 100 91 86 84 100 57 100 100 63 100 100 100 88
100 100 100 100 100 100 7 5 9 100 100 100 100 100 100 100 100 100 100 91 100 100 100 100 100 100 100 100 100 100 100 100 100 100 96 54 74 76 20 50 100 26 100 99 62 39 100 100 100 99 100 100 91 24
100 100 100 100 100 100 100 5 5 78 100 100 100 100 100 100 100 100 100 100 100 92 100 100 100 100 100 100 100 100 100 100 100 100 73 78 22 46 30 6 7 100 100 17 25 100 100 100 100 93 77 99 66 8
100 100 100 100 100 100 100 87 5 4 74 100 100 100 100 100 100 91 97 100 100 93 97 100 100 100 100 100 100 100 100 100 100 100 60 87 37 36 45 8 96 100 87 97 77 100 100 100 100 100 100 47 24 6
100 100 100 100 100 100 100 100 10 5 100 100 100 100 100 100 100 100 100 100 100 100 99 100 100 100 100 100 100 100 100 100 100 100 84 87 48 58 98 96 91 100 100 43 80 100 100 100 100 100 99 100 53 43
100 100 100 100 100 100 100 100 53 5 5 100 100 100 100 100 100 100 100 100 99 100 100 100 99 100 100 100 100 100 100 100 96 100 100 97 87 100 96 98 100 100 52 51 100 100 100 100 100 100 100 100 81 44
100 100 100 99 100 100 100 100 100 100 100 100 100 100 100 90 100 100 79 95 100 100 100 100 100 100 100 100 100 100 100 100 98 100 100 100 70 99 88 100 99 97 98 74 100 100 100 100 100 68 42 62 63 64
100 100 100 100 100 100 100 100 100 100 100 100 100 100 100 100 100 100 52 93 100 100 100 100 100 100 100 100 100 99 100 100 100 100 87 94 100 98 100 100 100 98 100 100 100 100 100 100 74 52 25 17 14 5
100 100 100 100 100 100 100 100 100 100 100 100 100 100 100 100 100 100 100 100 69 100 100 100 100 100 100 100 100 100 100 100 100 100 90 94 100 100 100 100 100 100 100 100 95 76 17 5 6 6 7 13 51 33
100 100 100 100 100 100 100 100 100 100 100 94 100 100 100 100 100 100 100 100 100 100 100 100 100 100 100 100 98 100 100 100 100 97 99 100 100 100 100 100 100 100 100 60 23 80 18 32 27 36 67 58 91 99
100 100 100 100 100 100 100 100 97 92 94 100 100 100 100 98 100 100 100 100 100 100 100 100 100 100 100 100 100 100 100 100 99 100 100 100 100 100 100 100 100 97 33 5 5 5 5 5 5 71 99 88 90 76
100 100 100 100 100 100 100 90 24 68 37 28 55 75 98 100 100 100 100 100 100 100 100 100 100 100 100 100 100 100 100 100 100 100 100 100 100 100 100 100 58 18 5 5 5 5 5 5 94 100 100 87 75 86
40 50 30 71 85 16 11 6 18 89 97 92 97 100 93 100 62 47 70 42 74 99 95 75 98 100 99 100 100 100 100 100 100 100 100 100 100 100 100 61 51 5 5 5 5 5 5 8 62 100 96 83 86 100
6 5 18 49 10 45 99 100 100 99 80 100 93 27 39 56 80 98 100 99 40 5 35 77 98 93 96 100 100 100 100 100 100 100 100 100 100 95 63 32 5 48 100 100 100 94 31 100 99 100 85 93 100 100
100 100 100 100 97 100 100 100 100 98 89 89 60 97 98 95 89 96 83 35 10 13 43 78 79 98 100 100 100 100 100 100 100 100 100 100 77 100 100 100 100 100 99 90 89 77 100 100 100 95 90 94 99 100
100 100 100 100 100 100 100 100 100 100 100 45 78 100 100 100 100 100 100 100 87 94 23 95 100 100 100 100 100 100 100 100 100 100 100 87 98 100 100 100 100 100 100 100 100 100 100 100 86 90 90 99 94 100
100 100 100 100 100 100 100 100 100 100 100 100 100 100 100 92 100 100 100 82 84 88 100 100 100 100 100 100 100 100 100 100 100 100 100 100 100 100 100 100 100 100 98 100 100 100 86 84 88 96 82 94 85 83
100 100 100 100 100 100 100 100 100 100 100 100 100 100 94 87 99 100 100 100 100 100 100 100 100 100 100 90 96 99 100 98 100 100 100 100 100 100 100 100 100 100 94 88 78 86 86 82 80 87 82 84 90 99
100 100 100 100 100 100 100 100 100 100 100 100 100 100 100 100 100 100 100 100 100 100 100 100 98 98 88 100 100 100 100 100 100 100 100 100 100 100 100 100 100 96 84 90 78 82 76 78 66 63 76 78 90 94
100 100 100 100 100 100 100 100 100 100 100 100 100 100 100 100 100 100 100 100 100 100 100 100 100 100 100 100 100 100 100 100 100 100 100 100 100 100 100 100 100 96 84 90 88 71 82 91 80 74 88 92 99 99
100 100 100 100 100 100 100 100 100 100 100 100 100 100 100 100 100 100 100 100 100 100 100 100 100 100 100 100 100 100 100 100 100 100 100 100 100 100 100 100 100 100 93 87 86 89 77 72 84 76 68 76 80 89
98 95 100 100 100 100 100 100 100 100 100 100 100 100 100 100 100 100 100 100 100 100 100 100 100 100 100 100 100 100 100 100 100 100 100 100 100 100 100 100 100 100 98 89 84 81 82 80 75 75 76 81 93 100
100 100 93 100 97 80 100 98 100 100 100 100 100 100 100 100 100 100 100 100 100 100 100 100 100 100 100 100 100 100 100 100 100 100 100 100 100 100 100 100 100 100 100 98 85 75 78 78 75 76 75 75 78 88
100 100 100 100 76 96 100 100 100 100 100 100 100 100 100 99 100 100 100 100 100 100 100 100 100 100 100 100 100 100 100 100 100 100 100 100 100 100 100 100 100 100 100 98 92 99 98 100 92 88 92 97 100 100
100 100 100 100 100 100 100 100 100 100 100 100 100 100 89 92 94 82 87 100 100 100 100 100 100 100 97 100 100 100 100 100 100 100 100 100 100 100 100 100 100 100 100 98 99 98 88 100 99 96 95 96 97 95
100 100 100 100 100 100 100 100 100 100 100 100 100 100 95 99 78 97 99 100 100 100 100 100 100 100 100 100 100 100 100 100 100 100 100 100 100 96 100 100 100 97 99 100 98 85 86 84 91 96 97 92 83 86
73 74 94 100 99 90 99 83 26 15 65 35 79 38 30 80 95 91 95 100 100 100 100 100 100 100 100 100 100 100 100 100 99 94 89 96 99 95 99 99 100 87 95 100 96 92 87 84 83 93 86 95 89 78
97 92 86 91 86 77 92 81 89 83 100 93 6 46 55 88 77 82 100 100 100 100 100 100 100 100 100 100 100 100 100 100 100 100 88 44 42 85 81 89 100 100 100 90 87 87 95 86 83 73 74 66 88 96
86 61 7 19 61 92 86 100 90 100 100 100 95 100 96 91 88 100 100 100 100 100 100 100 100 100 100 100 100 100 100 100 97 80 67 72 90 43 93 95 96 100 100 100 87 94 97 84 87 88 84 81 98 99
70 34 64 100 52 98 100 100 100 100 100 100 100 98 97 98 100 100 100 100 100 100 100 100 100 100 100 100 100 97 85 76 73 49 91 90 74 60 99 91 99 100 99 93 87 98 100 98 100 100 100 100 97 100
26 34 45 97 90 100 100 100 100 100 100 100 100 100 96 97 100 99 100 100 100 100 100 100 100 100 99 96 100 99 90 77 73 70 74 82 85 92 96 99 100 100 100 100 100 100 92 91 96 98 100 98 100 100
67 76 87 90 92 98 100 97 100 100 96 84 79 86 94 93 84 73 82 90 100 86 95 95 100 99 98 100 92 90 92 81 79 74 61 69 94 97 98 100 100 100 100 100 98 79 85 91 92 95 100 100 100 100
97 100 100 96 97 93 86 55 80 76 81 96 97 98 95 97 76 92 100 95 77 86 89 82 78 86 88 90 89 87 82 80 99 98 94 99 100 98 97 100 96 96 78 76 78 78 83 89 98 100 100 100 100 100